<?xml version='1.0' encoding='UTF-8'?>
<gpx version="1.1" creator="https://www.komoot.de" xmlns="http://www.topografix.com/GPX/1/1" xmlns:xsi="http://www.w3.org/2001/XMLSchema-instance" xsi:schemaLocation="http://www.topografix.com/GPX/1/1 http://www.topografix.com/GPX/1/1/gpx.xsd">
  <metadata>
    <name>56_800MuttenzSchauenburg</name>
    <author>
      <link href="https://www.komoot.de">
        <text>komoot</text>
        <type>text/html</type>
      </link>
    </author>
  </metadata>
  <trk>
    <name>56_800MuttenzSchauenburg</name>
    <trkseg>
      <trkpt lat="47.541385" lon="7.870812">
        <ele>339.180675</ele>
        <time>2021-11-14T17:31:15.609Z</time>
      </trkpt>
      <trkpt lat="47.541410" lon="7.870791">
        <ele>339.180675</ele>
        <time>2021-11-14T17:31:16.017Z</time>
      </trkpt>
      <trkpt lat="47.541576" lon="7.870664">
        <ele>339.180675</ele>
        <time>2021-11-14T17:31:18.460Z</time>
      </trkpt>
      <trkpt lat="47.541550" lon="7.870601">
        <ele>339.180675</ele>
        <time>2021-11-14T17:31:19.269Z</time>
      </trkpt>
      <trkpt lat="47.541521" lon="7.870517">
        <ele>339.180675</ele>
        <time>2021-11-14T17:31:20.323Z</time>
      </trkpt>
      <trkpt lat="47.541606" lon="7.870424">
        <ele>339.180675</ele>
        <time>2021-11-14T17:31:21.947Z</time>
      </trkpt>
      <trkpt lat="47.541698" lon="7.870328">
        <ele>339.180675</ele>
        <time>2021-11-14T17:31:23.548Z</time>
      </trkpt>
      <trkpt lat="47.541910" lon="7.870106">
        <ele>339.180675</ele>
        <time>2021-11-14T17:31:27.615Z</time>
      </trkpt>
      <trkpt lat="47.542014" lon="7.870126">
        <ele>339.168221</ele>
        <time>2021-11-14T17:31:29.094Z</time>
      </trkpt>
      <trkpt lat="47.542118" lon="7.870135">
        <ele>339.064281</ele>
        <time>2021-11-14T17:31:30.832Z</time>
      </trkpt>
      <trkpt lat="47.542181" lon="7.870131">
        <ele>339.001368</ele>
        <time>2021-11-14T17:31:31.718Z</time>
      </trkpt>
      <trkpt lat="47.542317" lon="7.870012">
        <ele>338.843776</ele>
        <time>2021-11-14T17:31:33.813Z</time>
      </trkpt>
      <trkpt lat="47.542348" lon="7.869983">
        <ele>338.807196</ele>
        <time>2021-11-14T17:31:34.253Z</time>
      </trkpt>
      <trkpt lat="47.542329" lon="7.869820">
        <ele>338.695791</ele>
        <time>2021-11-14T17:31:36.033Z</time>
      </trkpt>
      <trkpt lat="47.542372" lon="7.869746">
        <ele>338.630030</ele>
        <time>2021-11-14T17:31:36.847Z</time>
      </trkpt>
      <trkpt lat="47.542657" lon="7.869354">
        <ele>338.242014</ele>
        <time>2021-11-14T17:31:41.637Z</time>
      </trkpt>
      <trkpt lat="47.542696" lon="7.869257">
        <ele>338.165975</ele>
        <time>2021-11-14T17:31:42.573Z</time>
      </trkpt>
      <trkpt lat="47.542722" lon="7.869201">
        <ele>338.120199</ele>
        <time>2021-11-14T17:31:43.166Z</time>
      </trkpt>
      <trkpt lat="47.543049" lon="7.868759">
        <ele>337.678547</ele>
        <time>2021-11-14T17:31:48.077Z</time>
      </trkpt>
      <trkpt lat="47.543105" lon="7.868711">
        <ele>337.613997</ele>
        <time>2021-11-14T17:31:48.815Z</time>
      </trkpt>
      <trkpt lat="47.543201" lon="7.868657">
        <ele>337.511544</ele>
        <time>2021-11-14T17:31:49.894Z</time>
      </trkpt>
      <trkpt lat="47.543657" lon="7.868359">
        <ele>336.907458</ele>
        <time>2021-11-14T17:31:55.689Z</time>
      </trkpt>
      <trkpt lat="47.543801" lon="7.868269">
        <ele>336.706728</ele>
        <time>2021-11-14T17:31:58.169Z</time>
      </trkpt>
      <trkpt lat="47.544214" lon="7.867988">
        <ele>336.123029</ele>
        <time>2021-11-14T17:32:05.785Z</time>
      </trkpt>
      <trkpt lat="47.544246" lon="7.867967">
        <ele>336.078078</ele>
        <time>2021-11-14T17:32:06.382Z</time>
      </trkpt>
      <trkpt lat="47.544410" lon="7.867825">
        <ele>335.834110</ele>
        <time>2021-11-14T17:32:09.635Z</time>
      </trkpt>
      <trkpt lat="47.544469" lon="7.867776">
        <ele>335.747239</ele>
        <time>2021-11-14T17:32:10.657Z</time>
      </trkpt>
      <trkpt lat="47.544568" lon="7.867693">
        <ele>335.601140</ele>
        <time>2021-11-14T17:32:12.584Z</time>
      </trkpt>
      <trkpt lat="47.545003" lon="7.867278">
        <ele>335.145652</ele>
        <time>2021-11-14T17:32:21.432Z</time>
      </trkpt>
      <trkpt lat="47.545160" lon="7.866985">
        <ele>335.307447</ele>
        <time>2021-11-14T17:32:26.083Z</time>
      </trkpt>
      <trkpt lat="47.545240" lon="7.866887">
        <ele>335.373959</ele>
        <time>2021-11-14T17:32:28.356Z</time>
      </trkpt>
      <trkpt lat="47.546096" lon="7.866147">
        <ele>336.008969</ele>
        <time>2021-11-14T17:32:53.426Z</time>
      </trkpt>
      <trkpt lat="47.546327" lon="7.865959">
        <ele>336.177840</ele>
        <time>2021-11-14T17:32:59.847Z</time>
      </trkpt>
      <trkpt lat="47.546510" lon="7.865766">
        <ele>336.243164</ele>
        <time>2021-11-14T17:33:06.233Z</time>
      </trkpt>
      <trkpt lat="47.546819" lon="7.865489">
        <ele>336.279503</ele>
        <time>2021-11-14T17:33:14.386Z</time>
      </trkpt>
      <trkpt lat="47.546889" lon="7.865225">
        <ele>336.298766</ele>
        <time>2021-11-14T17:33:18.173Z</time>
      </trkpt>
      <trkpt lat="47.546894" lon="7.864837">
        <ele>336.325122</ele>
        <time>2021-11-14T17:33:23.350Z</time>
      </trkpt>
      <trkpt lat="47.546885" lon="7.864500">
        <ele>336.348027</ele>
        <time>2021-11-14T17:33:28.989Z</time>
      </trkpt>
      <trkpt lat="47.546974" lon="7.864423">
        <ele>336.358397</ele>
        <time>2021-11-14T17:33:30.577Z</time>
      </trkpt>
      <trkpt lat="47.547320" lon="7.863864">
        <ele>336.402985</ele>
        <time>2021-11-14T17:33:40.502Z</time>
      </trkpt>
      <trkpt lat="47.547568" lon="7.863151">
        <ele>335.544265</ele>
        <time>2021-11-14T17:33:49.515Z</time>
      </trkpt>
      <trkpt lat="47.547930" lon="7.861711">
        <ele>333.899173</ele>
        <time>2021-11-14T17:34:05.889Z</time>
      </trkpt>
      <trkpt lat="47.548049" lon="7.860929">
        <ele>333.162627</ele>
        <time>2021-11-14T17:34:14.588Z</time>
      </trkpt>
      <trkpt lat="47.548334" lon="7.859801">
        <ele>332.177386</ele>
        <time>2021-11-14T17:34:28.070Z</time>
      </trkpt>
      <trkpt lat="47.548611" lon="7.858381">
        <ele>331.319074</ele>
        <time>2021-11-14T17:34:46.026Z</time>
      </trkpt>
      <trkpt lat="47.548686" lon="7.857973">
        <ele>331.270163</ele>
        <time>2021-11-14T17:34:51.415Z</time>
      </trkpt>
      <trkpt lat="47.548701" lon="7.857893">
        <ele>331.260559</ele>
        <time>2021-11-14T17:34:52.536Z</time>
      </trkpt>
      <trkpt lat="47.548743" lon="7.857692">
        <ele>331.236222</ele>
        <time>2021-11-14T17:34:55.310Z</time>
      </trkpt>
      <trkpt lat="47.548887" lon="7.857308">
        <ele>331.185411</ele>
        <time>2021-11-14T17:35:01.344Z</time>
      </trkpt>
      <trkpt lat="47.549362" lon="7.855774">
        <ele>330.894526</ele>
        <time>2021-11-14T17:35:25.388Z</time>
      </trkpt>
      <trkpt lat="47.549566" lon="7.855225">
        <ele>330.733601</ele>
        <time>2021-11-14T17:35:34.006Z</time>
      </trkpt>
      <trkpt lat="47.549883" lon="7.854434">
        <ele>330.497382</ele>
        <time>2021-11-14T17:35:45.460Z</time>
      </trkpt>
      <trkpt lat="47.550221" lon="7.853833">
        <ele>329.967554</ele>
        <time>2021-11-14T17:35:51.853Z</time>
      </trkpt>
      <trkpt lat="47.551516" lon="7.851950">
        <ele>326.726363</ele>
        <time>2021-11-14T17:36:11.737Z</time>
      </trkpt>
      <trkpt lat="47.551660" lon="7.851725">
        <ele>326.377835</ele>
        <time>2021-11-14T17:36:14.132Z</time>
      </trkpt>
      <trkpt lat="47.551830" lon="7.851603">
        <ele>326.063258</ele>
        <time>2021-11-14T17:36:16.117Z</time>
      </trkpt>
      <trkpt lat="47.551788" lon="7.851413">
        <ele>325.838534</ele>
        <time>2021-11-14T17:36:17.781Z</time>
      </trkpt>
      <trkpt lat="47.551789" lon="7.850997">
        <ele>325.370944</ele>
        <time>2021-11-14T17:36:20.851Z</time>
      </trkpt>
      <trkpt lat="47.551890" lon="7.850321">
        <ele>324.592720</ele>
        <time>2021-11-14T17:36:26.291Z</time>
      </trkpt>
      <trkpt lat="47.551976" lon="7.849958">
        <ele>324.160299</ele>
        <time>2021-11-14T17:36:29.161Z</time>
      </trkpt>
      <trkpt lat="47.552086" lon="7.849553">
        <ele>323.988437</ele>
        <time>2021-11-14T17:36:32.654Z</time>
      </trkpt>
      <trkpt lat="47.552336" lon="7.848976">
        <ele>323.738222</ele>
        <time>2021-11-14T17:36:38.824Z</time>
      </trkpt>
      <trkpt lat="47.552748" lon="7.848155">
        <ele>323.364880</ele>
        <time>2021-11-14T17:36:47.881Z</time>
      </trkpt>
      <trkpt lat="47.553032" lon="7.847402">
        <ele>323.287154</ele>
        <time>2021-11-14T17:36:57.003Z</time>
      </trkpt>
      <trkpt lat="47.553297" lon="7.846670">
        <ele>323.587341</ele>
        <time>2021-11-14T17:37:06.371Z</time>
      </trkpt>
      <trkpt lat="47.553369" lon="7.846438">
        <ele>323.679621</ele>
        <time>2021-11-14T17:37:09.544Z</time>
      </trkpt>
      <trkpt lat="47.553415" lon="7.846303">
        <ele>323.734273</ele>
        <time>2021-11-14T17:37:11.343Z</time>
      </trkpt>
      <trkpt lat="47.553492" lon="7.845994">
        <ele>323.853308</ele>
        <time>2021-11-14T17:37:15.501Z</time>
      </trkpt>
      <trkpt lat="47.553573" lon="7.845347">
        <ele>324.091110</ele>
        <time>2021-11-14T17:37:23.514Z</time>
      </trkpt>
      <trkpt lat="47.553591" lon="7.844755">
        <ele>324.035117</ele>
        <time>2021-11-14T17:37:30.446Z</time>
      </trkpt>
      <trkpt lat="47.553572" lon="7.844353">
        <ele>323.953291</ele>
        <time>2021-11-14T17:37:34.796Z</time>
      </trkpt>
      <trkpt lat="47.553526" lon="7.843505">
        <ele>323.780548</ele>
        <time>2021-11-14T17:37:42.722Z</time>
      </trkpt>
      <trkpt lat="47.553461" lon="7.842527">
        <ele>323.538191</ele>
        <time>2021-11-14T17:37:50.831Z</time>
      </trkpt>
      <trkpt lat="47.553449" lon="7.842365">
        <ele>323.365613</ele>
        <time>2021-11-14T17:37:52.089Z</time>
      </trkpt>
      <trkpt lat="47.553273" lon="7.842406">
        <ele>323.086073</ele>
        <time>2021-11-14T17:37:55.065Z</time>
      </trkpt>
      <trkpt lat="47.553253" lon="7.842409">
        <ele>323.054532</ele>
        <time>2021-11-14T17:37:55.416Z</time>
      </trkpt>
      <trkpt lat="47.553133" lon="7.842431">
        <ele>322.864814</ele>
        <time>2021-11-14T17:37:57.455Z</time>
      </trkpt>
      <trkpt lat="47.553123" lon="7.842222">
        <ele>322.642939</ele>
        <time>2021-11-14T17:37:58.995Z</time>
      </trkpt>
      <trkpt lat="47.553216" lon="7.841849">
        <ele>322.221862</ele>
        <time>2021-11-14T17:38:02.088Z</time>
      </trkpt>
      <trkpt lat="47.553231" lon="7.841529">
        <ele>321.882185</ele>
        <time>2021-11-14T17:38:04.573Z</time>
      </trkpt>
      <trkpt lat="47.552939" lon="7.839526">
        <ele>319.684218</ele>
        <time>2021-11-14T17:38:19.974Z</time>
      </trkpt>
      <trkpt lat="47.552802" lon="7.839009">
        <ele>319.080480</ele>
        <time>2021-11-14T17:38:24.296Z</time>
      </trkpt>
      <trkpt lat="47.552736" lon="7.838578">
        <ele>318.600078</ele>
        <time>2021-11-14T17:38:27.735Z</time>
      </trkpt>
      <trkpt lat="47.552697" lon="7.838068">
        <ele>318.042165</ele>
        <time>2021-11-14T17:38:31.751Z</time>
      </trkpt>
      <trkpt lat="47.552719" lon="7.836790">
        <ele>316.660510</ele>
        <time>2021-11-14T17:38:41.778Z</time>
      </trkpt>
      <trkpt lat="47.552714" lon="7.835010">
        <ele>314.570258</ele>
        <time>2021-11-14T17:38:55.528Z</time>
      </trkpt>
      <trkpt lat="47.552700" lon="7.833938">
        <ele>312.652417</ele>
        <time>2021-11-14T17:39:03.095Z</time>
      </trkpt>
      <trkpt lat="47.552696" lon="7.833789">
        <ele>312.385691</ele>
        <time>2021-11-14T17:39:04.092Z</time>
      </trkpt>
      <trkpt lat="47.552452" lon="7.833284">
        <ele>311.274784</ele>
        <time>2021-11-14T17:39:08.418Z</time>
      </trkpt>
      <trkpt lat="47.552467" lon="7.833198">
        <ele>311.115901</ele>
        <time>2021-11-14T17:39:09.029Z</time>
      </trkpt>
      <trkpt lat="47.552511" lon="7.833072">
        <ele>310.862144</ele>
        <time>2021-11-14T17:39:10.035Z</time>
      </trkpt>
      <trkpt lat="47.552556" lon="7.832977">
        <ele>310.654542</ele>
        <time>2021-11-14T17:39:10.852Z</time>
      </trkpt>
      <trkpt lat="47.552616" lon="7.832891">
        <ele>310.433297</ele>
        <time>2021-11-14T17:39:11.658Z</time>
      </trkpt>
      <trkpt lat="47.552690" lon="7.832598">
        <ele>309.838218</ele>
        <time>2021-11-14T17:39:13.858Z</time>
      </trkpt>
      <trkpt lat="47.552645" lon="7.830686">
        <ele>306.072720</ele>
        <time>2021-11-14T17:39:26.981Z</time>
      </trkpt>
      <trkpt lat="47.552554" lon="7.829266">
        <ele>303.935757</ele>
        <time>2021-11-14T17:39:37.268Z</time>
      </trkpt>
      <trkpt lat="47.552416" lon="7.828822">
        <ele>303.349377</ele>
        <time>2021-11-14T17:39:40.931Z</time>
      </trkpt>
      <trkpt lat="47.552404" lon="7.828582">
        <ele>303.060687</ele>
        <time>2021-11-14T17:39:42.846Z</time>
      </trkpt>
      <trkpt lat="47.552421" lon="7.828481">
        <ele>302.935818</ele>
        <time>2021-11-14T17:39:43.602Z</time>
      </trkpt>
      <trkpt lat="47.552477" lon="7.828294">
        <ele>302.690405</ele>
        <time>2021-11-14T17:39:45.177Z</time>
      </trkpt>
      <trkpt lat="47.552515" lon="7.828094">
        <ele>302.441162</ele>
        <time>2021-11-14T17:39:46.895Z</time>
      </trkpt>
      <trkpt lat="47.552491" lon="7.827227">
        <ele>301.622343</ele>
        <time>2021-11-14T17:39:53.802Z</time>
      </trkpt>
      <trkpt lat="47.552567" lon="7.824508">
        <ele>300.245084</ele>
        <time>2021-11-14T17:40:17.651Z</time>
      </trkpt>
      <trkpt lat="47.552896" lon="7.820699">
        <ele>298.346294</ele>
        <time>2021-11-14T17:40:50.390Z</time>
      </trkpt>
      <trkpt lat="47.552948" lon="7.819358">
        <ele>297.753580</ele>
        <time>2021-11-14T17:41:01.929Z</time>
      </trkpt>
      <trkpt lat="47.552844" lon="7.816432">
        <ele>297.406923</ele>
        <time>2021-11-14T17:41:29.563Z</time>
      </trkpt>
      <trkpt lat="47.552711" lon="7.812955">
        <ele>298.597409</ele>
        <time>2021-11-14T17:42:10.217Z</time>
      </trkpt>
      <trkpt lat="47.552566" lon="7.810386">
        <ele>299.737558</ele>
        <time>2021-11-14T17:42:40.249Z</time>
      </trkpt>
      <trkpt lat="47.552398" lon="7.808880">
        <ele>300.416372</ele>
        <time>2021-11-14T17:42:58.730Z</time>
      </trkpt>
      <trkpt lat="47.552068" lon="7.806445">
        <ele>301.012250</ele>
        <time>2021-11-14T17:43:27.070Z</time>
      </trkpt>
      <trkpt lat="47.552015" lon="7.806307">
        <ele>301.003837</ele>
        <time>2021-11-14T17:43:28.793Z</time>
      </trkpt>
      <trkpt lat="47.551895" lon="7.806278">
        <ele>300.918077</ele>
        <time>2021-11-14T17:43:30.102Z</time>
      </trkpt>
      <trkpt lat="47.551651" lon="7.806246">
        <ele>300.745300</ele>
        <time>2021-11-14T17:43:33.865Z</time>
      </trkpt>
      <trkpt lat="47.551671" lon="7.806117">
        <ele>300.682290</ele>
        <time>2021-11-14T17:43:35.179Z</time>
      </trkpt>
      <trkpt lat="47.551681" lon="7.805477">
        <ele>300.377534</ele>
        <time>2021-11-14T17:43:42.877Z</time>
      </trkpt>
      <trkpt lat="47.551709" lon="7.805000">
        <ele>300.149599</ele>
        <time>2021-11-14T17:43:48.516Z</time>
      </trkpt>
      <trkpt lat="47.551731" lon="7.804667">
        <ele>299.990316</ele>
        <time>2021-11-14T17:43:53.102Z</time>
      </trkpt>
      <trkpt lat="47.551744" lon="7.804473">
        <ele>299.897507</ele>
        <time>2021-11-14T17:43:55.097Z</time>
      </trkpt>
      <trkpt lat="47.551741" lon="7.804294">
        <ele>299.812267</ele>
        <time>2021-11-14T17:43:57.432Z</time>
      </trkpt>
      <trkpt lat="47.551692" lon="7.803510">
        <ele>299.422264</ele>
        <time>2021-11-14T17:44:06.562Z</time>
      </trkpt>
      <trkpt lat="47.551751" lon="7.803369">
        <ele>299.339638</ele>
        <time>2021-11-14T17:44:08.497Z</time>
      </trkpt>
      <trkpt lat="47.551744" lon="7.803277">
        <ele>299.293528</ele>
        <time>2021-11-14T17:44:09.292Z</time>
      </trkpt>
      <trkpt lat="47.551732" lon="7.803125">
        <ele>299.217309</ele>
        <time>2021-11-14T17:44:10.689Z</time>
      </trkpt>
      <trkpt lat="47.551700" lon="7.802648">
        <ele>298.978572</ele>
        <time>2021-11-14T17:44:15.036Z</time>
      </trkpt>
      <trkpt lat="47.551688" lon="7.802394">
        <ele>298.851760</ele>
        <time>2021-11-14T17:44:17.430Z</time>
      </trkpt>
      <trkpt lat="47.551679" lon="7.802228">
        <ele>298.768818</ele>
        <time>2021-11-14T17:44:18.950Z</time>
      </trkpt>
      <trkpt lat="47.551671" lon="7.802077">
        <ele>298.693382</ele>
        <time>2021-11-14T17:44:20.551Z</time>
      </trkpt>
      <trkpt lat="47.551669" lon="7.801853">
        <ele>298.581811</ele>
        <time>2021-11-14T17:44:22.488Z</time>
      </trkpt>
      <trkpt lat="47.551666" lon="7.801632">
        <ele>298.471721</ele>
        <time>2021-11-14T17:44:24.499Z</time>
      </trkpt>
      <trkpt lat="47.551669" lon="7.801438">
        <ele>298.233789</ele>
        <time>2021-11-14T17:44:26.003Z</time>
      </trkpt>
      <trkpt lat="47.551672" lon="7.801147">
        <ele>297.767658</ele>
        <time>2021-11-14T17:44:28.457Z</time>
      </trkpt>
      <trkpt lat="47.551704" lon="7.800451">
        <ele>296.650335</ele>
        <time>2021-11-14T17:44:33.896Z</time>
      </trkpt>
      <trkpt lat="47.551712" lon="7.800249">
        <ele>296.326248</ele>
        <time>2021-11-14T17:44:35.321Z</time>
      </trkpt>
      <trkpt lat="47.551744" lon="7.799885">
        <ele>295.738328</ele>
        <time>2021-11-14T17:44:37.834Z</time>
      </trkpt>
      <trkpt lat="47.551754" lon="7.799766">
        <ele>295.546262</ele>
        <time>2021-11-14T17:44:38.667Z</time>
      </trkpt>
      <trkpt lat="47.551793" lon="7.799434">
        <ele>295.006525</ele>
        <time>2021-11-14T17:44:41.032Z</time>
      </trkpt>
      <trkpt lat="47.551805" lon="7.799326">
        <ele>294.831221</ele>
        <time>2021-11-14T17:44:41.734Z</time>
      </trkpt>
      <trkpt lat="47.551948" lon="7.798607">
        <ele>293.239836</ele>
        <time>2021-11-14T17:44:46.815Z</time>
      </trkpt>
      <trkpt lat="47.552084" lon="7.798083">
        <ele>291.689679</ele>
        <time>2021-11-14T17:44:50.434Z</time>
      </trkpt>
      <trkpt lat="47.552152" lon="7.797876">
        <ele>291.054006</ele>
        <time>2021-11-14T17:44:51.899Z</time>
      </trkpt>
      <trkpt lat="47.552414" lon="7.797241">
        <ele>288.998977</ele>
        <time>2021-11-14T17:44:56.669Z</time>
      </trkpt>
      <trkpt lat="47.552493" lon="7.797048">
        <ele>288.375723</ele>
        <time>2021-11-14T17:44:58.117Z</time>
      </trkpt>
      <trkpt lat="47.552762" lon="7.796425">
        <ele>286.575644</ele>
        <time>2021-11-14T17:45:03.082Z</time>
      </trkpt>
      <trkpt lat="47.552817" lon="7.796239">
        <ele>286.298582</ele>
        <time>2021-11-14T17:45:04.485Z</time>
      </trkpt>
      <trkpt lat="47.552886" lon="7.795976">
        <ele>285.913593</ele>
        <time>2021-11-14T17:45:06.483Z</time>
      </trkpt>
      <trkpt lat="47.552930" lon="7.795600">
        <ele>285.392935</ele>
        <time>2021-11-14T17:45:09.365Z</time>
      </trkpt>
      <trkpt lat="47.552917" lon="7.795354">
        <ele>285.056272</ele>
        <time>2021-11-14T17:45:11.280Z</time>
      </trkpt>
      <trkpt lat="47.552909" lon="7.795229">
        <ele>284.884960</ele>
        <time>2021-11-14T17:45:12.250Z</time>
      </trkpt>
      <trkpt lat="47.552892" lon="7.795106">
        <ele>284.713660</ele>
        <time>2021-11-14T17:45:13.157Z</time>
      </trkpt>
      <trkpt lat="47.552861" lon="7.794992">
        <ele>284.545971</ele>
        <time>2021-11-14T17:45:14.040Z</time>
      </trkpt>
      <trkpt lat="47.552861" lon="7.794992">
        <ele>284.545971</ele>
        <time>2021-11-14T17:45:14.041Z</time>
      </trkpt>
      <trkpt lat="47.552837" lon="7.794925">
        <ele>284.442480</ele>
        <time>2021-11-14T17:45:14.618Z</time>
      </trkpt>
      <trkpt lat="47.552826" lon="7.794894">
        <ele>284.394695</ele>
        <time>2021-11-14T17:45:14.883Z</time>
      </trkpt>
      <trkpt lat="47.552786" lon="7.794796">
        <ele>284.238437</ele>
        <time>2021-11-14T17:45:15.724Z</time>
      </trkpt>
      <trkpt lat="47.552763" lon="7.794750">
        <ele>284.160329</ele>
        <time>2021-11-14T17:45:16.245Z</time>
      </trkpt>
      <trkpt lat="47.552644" lon="7.794507">
        <ele>283.750703</ele>
        <time>2021-11-14T17:45:18.515Z</time>
      </trkpt>
      <trkpt lat="47.552532" lon="7.794285">
        <ele>283.372539</ele>
        <time>2021-11-14T17:45:20.688Z</time>
      </trkpt>
      <trkpt lat="47.552494" lon="7.794200">
        <ele>283.233432</ele>
        <time>2021-11-14T17:45:21.500Z</time>
      </trkpt>
      <trkpt lat="47.552384" lon="7.793915">
        <ele>283.066085</ele>
        <time>2021-11-14T17:45:24.240Z</time>
      </trkpt>
      <trkpt lat="47.552369" lon="7.793872">
        <ele>283.047498</ele>
        <time>2021-11-14T17:45:24.878Z</time>
      </trkpt>
      <trkpt lat="47.552292" lon="7.793607">
        <ele>282.936709</ele>
        <time>2021-11-14T17:45:27.277Z</time>
      </trkpt>
      <trkpt lat="47.552233" lon="7.793294">
        <ele>282.811918</ele>
        <time>2021-11-14T17:45:30.692Z</time>
      </trkpt>
      <trkpt lat="47.552216" lon="7.793160">
        <ele>282.759561</ele>
        <time>2021-11-14T17:45:31.852Z</time>
      </trkpt>
      <trkpt lat="47.552198" lon="7.792976">
        <ele>282.688167</ele>
        <time>2021-11-14T17:45:33.585Z</time>
      </trkpt>
      <trkpt lat="47.552184" lon="7.792540">
        <ele>282.520554</ele>
        <time>2021-11-14T17:45:37.993Z</time>
      </trkpt>
      <trkpt lat="47.552180" lon="7.792294">
        <ele>282.426063</ele>
        <time>2021-11-14T17:45:40.512Z</time>
      </trkpt>
      <trkpt lat="47.552182" lon="7.792040">
        <ele>282.328521</ele>
        <time>2021-11-14T17:45:42.678Z</time>
      </trkpt>
      <trkpt lat="47.552201" lon="7.791031">
        <ele>281.852563</ele>
        <time>2021-11-14T17:45:51.176Z</time>
      </trkpt>
      <trkpt lat="47.552135" lon="7.790302">
        <ele>281.452259</ele>
        <time>2021-11-14T17:45:57.604Z</time>
      </trkpt>
      <trkpt lat="47.552036" lon="7.789826">
        <ele>281.181179</ele>
        <time>2021-11-14T17:46:01.934Z</time>
      </trkpt>
      <trkpt lat="47.551858" lon="7.788906">
        <ele>280.642548</ele>
        <time>2021-11-14T17:46:09.913Z</time>
      </trkpt>
      <trkpt lat="47.551712" lon="7.788013">
        <ele>279.930743</ele>
        <time>2021-11-14T17:46:17.375Z</time>
      </trkpt>
      <trkpt lat="47.551694" lon="7.787879">
        <ele>279.824898</ele>
        <time>2021-11-14T17:46:18.484Z</time>
      </trkpt>
      <trkpt lat="47.551690" lon="7.787827">
        <ele>279.784353</ele>
        <time>2021-11-14T17:46:18.908Z</time>
      </trkpt>
      <trkpt lat="47.551672" lon="7.787603">
        <ele>279.609597</ele>
        <time>2021-11-14T17:46:20.663Z</time>
      </trkpt>
      <trkpt lat="47.551609" lon="7.786701">
        <ele>278.907094</ele>
        <time>2021-11-14T17:46:27.965Z</time>
      </trkpt>
      <trkpt lat="47.551498" lon="7.785081">
        <ele>277.903441</ele>
        <time>2021-11-14T17:46:41.101Z</time>
      </trkpt>
      <trkpt lat="47.551479" lon="7.784929">
        <ele>277.814804</ele>
        <time>2021-11-14T17:46:42.361Z</time>
      </trkpt>
      <trkpt lat="47.551510" lon="7.784910">
        <ele>277.786304</ele>
        <time>2021-11-14T17:46:42.835Z</time>
      </trkpt>
      <trkpt lat="47.551531" lon="7.784884">
        <ele>277.763054</ele>
        <time>2021-11-14T17:46:43.189Z</time>
      </trkpt>
      <trkpt lat="47.551548" lon="7.784841">
        <ele>277.734480</ele>
        <time>2021-11-14T17:46:43.655Z</time>
      </trkpt>
      <trkpt lat="47.551554" lon="7.784788">
        <ele>277.703666</ele>
        <time>2021-11-14T17:46:44.127Z</time>
      </trkpt>
      <trkpt lat="47.551547" lon="7.784737">
        <ele>277.673825</ele>
        <time>2021-11-14T17:46:44.576Z</time>
      </trkpt>
      <trkpt lat="47.551525" lon="7.784691">
        <ele>277.641498</ele>
        <time>2021-11-14T17:46:45.086Z</time>
      </trkpt>
      <trkpt lat="47.551500" lon="7.784666">
        <ele>277.615875</ele>
        <time>2021-11-14T17:46:45.467Z</time>
      </trkpt>
      <trkpt lat="47.551472" lon="7.784654">
        <ele>277.591112</ele>
        <time>2021-11-14T17:46:45.838Z</time>
      </trkpt>
      <trkpt lat="47.551437" lon="7.784657">
        <ele>277.561328</ele>
        <time>2021-11-14T17:46:46.270Z</time>
      </trkpt>
      <trkpt lat="47.551439" lon="7.784323">
        <ele>277.369809</ele>
        <time>2021-11-14T17:46:49.231Z</time>
      </trkpt>
      <trkpt lat="47.551364" lon="7.783420">
        <ele>277.050989</ele>
        <time>2021-11-14T17:46:57.389Z</time>
      </trkpt>
      <trkpt lat="47.551302" lon="7.782671">
        <ele>276.953873</ele>
        <time>2021-11-14T17:47:04.967Z</time>
      </trkpt>
      <trkpt lat="47.551230" lon="7.781831">
        <ele>276.844900</ele>
        <time>2021-11-14T17:47:13.151Z</time>
      </trkpt>
      <trkpt lat="47.551198" lon="7.781475">
        <ele>276.798679</ele>
        <time>2021-11-14T17:47:16.652Z</time>
      </trkpt>
      <trkpt lat="47.551270" lon="7.781390">
        <ele>276.781125</ele>
        <time>2021-11-14T17:47:18.424Z</time>
      </trkpt>
      <trkpt lat="47.551208" lon="7.780694">
        <ele>276.613859</ele>
        <time>2021-11-14T17:47:25.142Z</time>
      </trkpt>
      <trkpt lat="47.551085" lon="7.779125">
        <ele>276.204717</ele>
        <time>2021-11-14T17:47:39.620Z</time>
      </trkpt>
      <trkpt lat="47.550982" lon="7.777915">
        <ele>275.980905</ele>
        <time>2021-11-14T17:47:50.182Z</time>
      </trkpt>
      <trkpt lat="47.550963" lon="7.777797">
        <ele>275.964905</ele>
        <time>2021-11-14T17:47:51.195Z</time>
      </trkpt>
      <trkpt lat="47.550782" lon="7.776690">
        <ele>275.814676</ele>
        <time>2021-11-14T17:48:01.969Z</time>
      </trkpt>
      <trkpt lat="47.550607" lon="7.775871">
        <ele>275.785104</ele>
        <time>2021-11-14T17:48:11.302Z</time>
      </trkpt>
      <trkpt lat="47.550598" lon="7.775828">
        <ele>275.800241</ele>
        <time>2021-11-14T17:48:11.788Z</time>
      </trkpt>
      <trkpt lat="47.550505" lon="7.775364">
        <ele>275.962992</ele>
        <time>2021-11-14T17:48:17.301Z</time>
      </trkpt>
      <trkpt lat="47.550320" lon="7.774602">
        <ele>276.235282</ele>
        <time>2021-11-14T17:48:26.791Z</time>
      </trkpt>
      <trkpt lat="47.550090" lon="7.773646">
        <ele>276.576544</ele>
        <time>2021-11-14T17:48:38.665Z</time>
      </trkpt>
      <trkpt lat="47.550061" lon="7.773283">
        <ele>276.679910</ele>
        <time>2021-11-14T17:48:42.802Z</time>
      </trkpt>
      <trkpt lat="47.550203" lon="7.772543">
        <ele>276.874139</ele>
        <time>2021-11-14T17:48:51.012Z</time>
      </trkpt>
      <trkpt lat="47.550199" lon="7.772076">
        <ele>276.992050</ele>
        <time>2021-11-14T17:48:56.000Z</time>
      </trkpt>
      <trkpt lat="47.550069" lon="7.771373">
        <ele>277.176074</ele>
        <time>2021-11-14T17:49:03.814Z</time>
      </trkpt>
      <trkpt lat="47.549845" lon="7.770734">
        <ele>277.454203</ele>
        <time>2021-11-14T17:49:11.970Z</time>
      </trkpt>
      <trkpt lat="47.549714" lon="7.770276">
        <ele>277.768671</ele>
        <time>2021-11-14T17:49:17.742Z</time>
      </trkpt>
      <trkpt lat="47.549678" lon="7.770148">
        <ele>277.856335</ele>
        <time>2021-11-14T17:49:19.534Z</time>
      </trkpt>
      <trkpt lat="47.549363" lon="7.768846">
        <ele>278.730727</ele>
        <time>2021-11-14T17:49:36.716Z</time>
      </trkpt>
      <trkpt lat="47.549184" lon="7.768021">
        <ele>279.231444</ele>
        <time>2021-11-14T17:49:49.158Z</time>
      </trkpt>
      <trkpt lat="47.548990" lon="7.767248">
        <ele>279.670938</ele>
        <time>2021-11-14T17:50:00.831Z</time>
      </trkpt>
      <trkpt lat="47.548565" lon="7.765680">
        <ele>280.158919</ele>
        <time>2021-11-14T17:50:19.642Z</time>
      </trkpt>
      <trkpt lat="47.547909" lon="7.763208">
        <ele>278.091478</ele>
        <time>2021-11-14T17:50:40.469Z</time>
      </trkpt>
      <trkpt lat="47.547848" lon="7.762928">
        <ele>277.776994</ele>
        <time>2021-11-14T17:50:42.624Z</time>
      </trkpt>
      <trkpt lat="47.547778" lon="7.762713">
        <ele>277.521851</ele>
        <time>2021-11-14T17:50:44.425Z</time>
      </trkpt>
      <trkpt lat="47.547577" lon="7.762307">
        <ele>276.983675</ele>
        <time>2021-11-14T17:50:48.218Z</time>
      </trkpt>
      <trkpt lat="47.547572" lon="7.762293">
        <ele>276.966745</ele>
        <time>2021-11-14T17:50:48.328Z</time>
      </trkpt>
      <trkpt lat="47.547194" lon="7.761352">
        <ele>275.796295</ele>
        <time>2021-11-14T17:50:56.711Z</time>
      </trkpt>
      <trkpt lat="47.546989" lon="7.760612">
        <ele>275.677124</ele>
        <time>2021-11-14T17:51:03.201Z</time>
      </trkpt>
      <trkpt lat="47.546948" lon="7.760482">
        <ele>275.700273</ele>
        <time>2021-11-14T17:51:04.463Z</time>
      </trkpt>
      <trkpt lat="47.546870" lon="7.760301">
        <ele>275.734917</ele>
        <time>2021-11-14T17:51:06.332Z</time>
      </trkpt>
      <trkpt lat="47.546804" lon="7.760164">
        <ele>275.762071</ele>
        <time>2021-11-14T17:51:07.800Z</time>
      </trkpt>
      <trkpt lat="47.546552" lon="7.759727">
        <ele>275.854797</ele>
        <time>2021-11-14T17:51:13.857Z</time>
      </trkpt>
      <trkpt lat="47.546312" lon="7.759326">
        <ele>275.941259</ele>
        <time>2021-11-14T17:51:20.241Z</time>
      </trkpt>
      <trkpt lat="47.546264" lon="7.759224">
        <ele>275.961319</ele>
        <time>2021-11-14T17:51:21.875Z</time>
      </trkpt>
      <trkpt lat="47.545911" lon="7.758393">
        <ele>277.419683</ele>
        <time>2021-11-14T17:51:38.275Z</time>
      </trkpt>
      <trkpt lat="47.545677" lon="7.757815">
        <ele>278.822836</ele>
        <time>2021-11-14T17:51:50.727Z</time>
      </trkpt>
      <trkpt lat="47.545429" lon="7.757231">
        <ele>280.259240</ele>
        <time>2021-11-14T17:52:04.033Z</time>
      </trkpt>
      <trkpt lat="47.545360" lon="7.757065">
        <ele>280.665100</ele>
        <time>2021-11-14T17:52:08.692Z</time>
      </trkpt>
      <trkpt lat="47.545326" lon="7.756949">
        <ele>280.928383</ele>
        <time>2021-11-14T17:52:11.444Z</time>
      </trkpt>
      <trkpt lat="47.545304" lon="7.756852">
        <ele>281.141420</ele>
        <time>2021-11-14T17:52:13.645Z</time>
      </trkpt>
      <trkpt lat="47.545260" lon="7.756637">
        <ele>281.603984</ele>
        <time>2021-11-14T17:52:18.703Z</time>
      </trkpt>
      <trkpt lat="47.545021" lon="7.756243">
        <ele>282.595596</ele>
        <time>2021-11-14T17:52:29.792Z</time>
      </trkpt>
      <trkpt lat="47.544022" lon="7.753705">
        <ele>287.383716</ele>
        <time>2021-11-14T17:53:18.262Z</time>
      </trkpt>
      <trkpt lat="47.543798" lon="7.753068">
        <ele>288.110650</ele>
        <time>2021-11-14T17:53:28.002Z</time>
      </trkpt>
      <trkpt lat="47.543319" lon="7.751355">
        <ele>289.488820</ele>
        <time>2021-11-14T17:53:51.133Z</time>
      </trkpt>
      <trkpt lat="47.543222" lon="7.751091">
        <ele>289.589357</ele>
        <time>2021-11-14T17:53:54.405Z</time>
      </trkpt>
      <trkpt lat="47.543115" lon="7.750826">
        <ele>289.692641</ele>
        <time>2021-11-14T17:53:59.156Z</time>
      </trkpt>
      <trkpt lat="47.543033" lon="7.750614">
        <ele>289.774367</ele>
        <time>2021-11-14T17:54:01.739Z</time>
      </trkpt>
      <trkpt lat="47.542824" lon="7.750186">
        <ele>289.951056</ele>
        <time>2021-11-14T17:54:07.574Z</time>
      </trkpt>
      <trkpt lat="47.542614" lon="7.749755">
        <ele>290.128849</ele>
        <time>2021-11-14T17:54:13.280Z</time>
      </trkpt>
      <trkpt lat="47.542390" lon="7.749307">
        <ele>290.144345</ele>
        <time>2021-11-14T17:54:19.091Z</time>
      </trkpt>
      <trkpt lat="47.542347" lon="7.749227">
        <ele>290.146291</ele>
        <time>2021-11-14T17:54:20.632Z</time>
      </trkpt>
      <trkpt lat="47.542132" lon="7.748742">
        <ele>290.157333</ele>
        <time>2021-11-14T17:54:28.196Z</time>
      </trkpt>
      <trkpt lat="47.541758" lon="7.747784">
        <ele>290.178392</ele>
        <time>2021-11-14T17:54:42.931Z</time>
      </trkpt>
      <trkpt lat="47.541583" lon="7.747186">
        <ele>290.189983</ele>
        <time>2021-11-14T17:54:52.110Z</time>
      </trkpt>
      <trkpt lat="47.541511" lon="7.746885">
        <ele>290.195245</ele>
        <time>2021-11-14T17:54:56.580Z</time>
      </trkpt>
      <trkpt lat="47.541432" lon="7.746552">
        <ele>290.201062</ele>
        <time>2021-11-14T17:55:01.692Z</time>
      </trkpt>
      <trkpt lat="47.541167" lon="7.745463">
        <ele>290.220138</ele>
        <time>2021-11-14T17:55:17.367Z</time>
      </trkpt>
      <trkpt lat="47.541160" lon="7.745250">
        <ele>290.223652</ele>
        <time>2021-11-14T17:55:20.266Z</time>
      </trkpt>
      <trkpt lat="47.541148" lon="7.745144">
        <ele>290.225423</ele>
        <time>2021-11-14T17:55:21.819Z</time>
      </trkpt>
      <trkpt lat="47.541130" lon="7.745083">
        <ele>290.226520</ele>
        <time>2021-11-14T17:55:22.718Z</time>
      </trkpt>
      <trkpt lat="47.541038" lon="7.744940">
        <ele>290.229592</ele>
        <time>2021-11-14T17:55:25.076Z</time>
      </trkpt>
      <trkpt lat="47.541019" lon="7.744859">
        <ele>290.230776</ele>
        <time>2021-11-14T17:55:26.338Z</time>
      </trkpt>
      <trkpt lat="47.540913" lon="7.744421">
        <ele>290.237202</ele>
        <time>2021-11-14T17:55:32.871Z</time>
      </trkpt>
      <trkpt lat="47.540738" lon="7.743641">
        <ele>290.248553</ele>
        <time>2021-11-14T17:55:44.738Z</time>
      </trkpt>
      <trkpt lat="47.540720" lon="7.743528">
        <ele>290.250157</ele>
        <time>2021-11-14T17:55:46.210Z</time>
      </trkpt>
      <trkpt lat="47.540617" lon="7.742875">
        <ele>290.259418</ele>
        <time>2021-11-14T17:55:55.647Z</time>
      </trkpt>
      <trkpt lat="47.540589" lon="7.742558">
        <ele>290.263833</ele>
        <time>2021-11-14T17:56:00.033Z</time>
      </trkpt>
      <trkpt lat="47.540552" lon="7.742240">
        <ele>290.158494</ele>
        <time>2021-11-14T17:56:04.305Z</time>
      </trkpt>
      <trkpt lat="47.540438" lon="7.740453">
        <ele>289.228804</ele>
        <time>2021-11-14T17:56:26.198Z</time>
      </trkpt>
      <trkpt lat="47.540374" lon="7.739620">
        <ele>288.759649</ele>
        <time>2021-11-14T17:56:35.656Z</time>
      </trkpt>
      <trkpt lat="47.540372" lon="7.739490">
        <ele>288.666415</ele>
        <time>2021-11-14T17:56:37.206Z</time>
      </trkpt>
      <trkpt lat="47.540387" lon="7.739372">
        <ele>288.580322</ele>
        <time>2021-11-14T17:56:38.693Z</time>
      </trkpt>
      <trkpt lat="47.540394" lon="7.739259">
        <ele>288.498960</ele>
        <time>2021-11-14T17:56:40.024Z</time>
      </trkpt>
      <trkpt lat="47.540388" lon="7.739213">
        <ele>288.465368</ele>
        <time>2021-11-14T17:56:40.416Z</time>
      </trkpt>
      <trkpt lat="47.540032" lon="7.737141">
        <ele>286.983744</ele>
        <time>2021-11-14T17:57:04.945Z</time>
      </trkpt>
      <trkpt lat="47.539305" lon="7.734151">
        <ele>287.660249</ele>
        <time>2021-11-14T17:57:51.738Z</time>
      </trkpt>
      <trkpt lat="47.539263" lon="7.733885">
        <ele>287.801918</ele>
        <time>2021-11-14T17:57:56.139Z</time>
      </trkpt>
      <trkpt lat="47.539178" lon="7.733656">
        <ele>287.937443</ele>
        <time>2021-11-14T17:58:00.289Z</time>
      </trkpt>
      <trkpt lat="47.538887" lon="7.732454">
        <ele>288.599669</ele>
        <time>2021-11-14T17:58:20.977Z</time>
      </trkpt>
      <trkpt lat="47.538512" lon="7.730958">
        <ele>289.178425</ele>
        <time>2021-11-14T17:58:46.480Z</time>
      </trkpt>
      <trkpt lat="47.538339" lon="7.730082">
        <ele>289.479209</ele>
        <time>2021-11-14T17:58:59.888Z</time>
      </trkpt>
      <trkpt lat="47.538275" lon="7.729744">
        <ele>289.594895</ele>
        <time>2021-11-14T17:59:04.755Z</time>
      </trkpt>
      <trkpt lat="47.538248" lon="7.729713">
        <ele>289.611571</ele>
        <time>2021-11-14T17:59:05.370Z</time>
      </trkpt>
      <trkpt lat="47.538168" lon="7.729263">
        <ele>289.281539</ele>
        <time>2021-11-14T17:59:11.454Z</time>
      </trkpt>
      <trkpt lat="47.538148" lon="7.729131">
        <ele>289.174604</ele>
        <time>2021-11-14T17:59:13.122Z</time>
      </trkpt>
      <trkpt lat="47.538123" lon="7.729100">
        <ele>289.136429</ele>
        <time>2021-11-14T17:59:13.715Z</time>
      </trkpt>
      <trkpt lat="47.538083" lon="7.728919">
        <ele>288.985886</ele>
        <time>2021-11-14T17:59:16.041Z</time>
      </trkpt>
      <trkpt lat="47.537981" lon="7.728255">
        <ele>288.447606</ele>
        <time>2021-11-14T17:59:24.167Z</time>
      </trkpt>
      <trkpt lat="47.537932" lon="7.727936">
        <ele>288.189005</ele>
        <time>2021-11-14T17:59:27.857Z</time>
      </trkpt>
      <trkpt lat="47.537861" lon="7.727909">
        <ele>288.103177</ele>
        <time>2021-11-14T17:59:29.045Z</time>
      </trkpt>
      <trkpt lat="47.537824" lon="7.727674">
        <ele>287.912434</ele>
        <time>2021-11-14T17:59:30.901Z</time>
      </trkpt>
      <trkpt lat="47.537675" lon="7.726458">
        <ele>285.779181</ele>
        <time>2021-11-14T17:59:39.840Z</time>
      </trkpt>
      <trkpt lat="47.537323" lon="7.724748">
        <ele>281.554406</ele>
        <time>2021-11-14T17:59:51.580Z</time>
      </trkpt>
      <trkpt lat="47.537127" lon="7.723974">
        <ele>279.820414</ele>
        <time>2021-11-14T17:59:57.017Z</time>
      </trkpt>
      <trkpt lat="47.537106" lon="7.723875">
        <ele>279.608424</ele>
        <time>2021-11-14T17:59:57.700Z</time>
      </trkpt>
      <trkpt lat="47.537075" lon="7.723694">
        <ele>279.226955</ele>
        <time>2021-11-14T17:59:58.929Z</time>
      </trkpt>
      <trkpt lat="47.536854" lon="7.722329">
        <ele>276.359394</ele>
        <time>2021-11-14T18:00:08.843Z</time>
      </trkpt>
      <trkpt lat="47.536667" lon="7.721718">
        <ele>275.114158</ele>
        <time>2021-11-14T18:00:13.966Z</time>
      </trkpt>
      <trkpt lat="47.536590" lon="7.721558">
        <ele>274.776459</ele>
        <time>2021-11-14T18:00:15.482Z</time>
      </trkpt>
      <trkpt lat="47.536471" lon="7.721389">
        <ele>274.356773</ele>
        <time>2021-11-14T18:00:17.411Z</time>
      </trkpt>
      <trkpt lat="47.536092" lon="7.720862">
        <ele>273.033426</ele>
        <time>2021-11-14T18:00:22.798Z</time>
      </trkpt>
      <trkpt lat="47.535988" lon="7.720671">
        <ele>272.611698</ele>
        <time>2021-11-14T18:00:24.441Z</time>
      </trkpt>
      <trkpt lat="47.535897" lon="7.720461">
        <ele>272.182826</ele>
        <time>2021-11-14T18:00:26.164Z</time>
      </trkpt>
      <trkpt lat="47.535876" lon="7.720409">
        <ele>272.078685</ele>
        <time>2021-11-14T18:00:26.581Z</time>
      </trkpt>
      <trkpt lat="47.535806" lon="7.720212">
        <ele>271.696073</ele>
        <time>2021-11-14T18:00:28.091Z</time>
      </trkpt>
      <trkpt lat="47.535746" lon="7.719899">
        <ele>271.152332</ele>
        <time>2021-11-14T18:00:30.418Z</time>
      </trkpt>
      <trkpt lat="47.535713" lon="7.719682">
        <ele>270.864991</ele>
        <time>2021-11-14T18:00:31.941Z</time>
      </trkpt>
      <trkpt lat="47.535661" lon="7.719317">
        <ele>270.383105</ele>
        <time>2021-11-14T18:00:34.691Z</time>
      </trkpt>
      <trkpt lat="47.535640" lon="7.719169">
        <ele>270.187744</ele>
        <time>2021-11-14T18:00:35.726Z</time>
      </trkpt>
      <trkpt lat="47.535608" lon="7.718948">
        <ele>269.895766</ele>
        <time>2021-11-14T18:00:37.497Z</time>
      </trkpt>
      <trkpt lat="47.535572" lon="7.718705">
        <ele>269.574392</ele>
        <time>2021-11-14T18:00:39.190Z</time>
      </trkpt>
      <trkpt lat="47.535558" lon="7.718578">
        <ele>269.408163</ele>
        <time>2021-11-14T18:00:40.272Z</time>
      </trkpt>
      <trkpt lat="47.535516" lon="7.718273">
        <ele>269.006054</ele>
        <time>2021-11-14T18:00:42.525Z</time>
      </trkpt>
      <trkpt lat="47.535494" lon="7.718111">
        <ele>268.792592</ele>
        <time>2021-11-14T18:00:43.662Z</time>
      </trkpt>
      <trkpt lat="47.535490" lon="7.718086">
        <ele>268.759403</ele>
        <time>2021-11-14T18:00:44.205Z</time>
      </trkpt>
      <trkpt lat="47.535419" lon="7.717562">
        <ele>268.069005</ele>
        <time>2021-11-14T18:00:48.227Z</time>
      </trkpt>
      <trkpt lat="47.535384" lon="7.717243">
        <ele>267.819846</ele>
        <time>2021-11-14T18:00:50.901Z</time>
      </trkpt>
      <trkpt lat="47.535370" lon="7.716931">
        <ele>268.056574</ele>
        <time>2021-11-14T18:00:54.123Z</time>
      </trkpt>
      <trkpt lat="47.535347" lon="7.716584">
        <ele>268.320541</ele>
        <time>2021-11-14T18:00:57.796Z</time>
      </trkpt>
      <trkpt lat="47.535313" lon="7.716133">
        <ele>268.664104</ele>
        <time>2021-11-14T18:01:04.946Z</time>
      </trkpt>
      <trkpt lat="47.535254" lon="7.715336">
        <ele>269.271108</ele>
        <time>2021-11-14T18:01:17.498Z</time>
      </trkpt>
      <trkpt lat="47.535269" lon="7.714924">
        <ele>269.583477</ele>
        <time>2021-11-14T18:01:23.628Z</time>
      </trkpt>
      <trkpt lat="47.535269" lon="7.714705">
        <ele>269.749276</ele>
        <time>2021-11-14T18:01:26.896Z</time>
      </trkpt>
      <trkpt lat="47.535269" lon="7.714432">
        <ele>269.951054</ele>
        <time>2021-11-14T18:01:30.538Z</time>
      </trkpt>
      <trkpt lat="47.535222" lon="7.713738">
        <ele>270.464824</ele>
        <time>2021-11-14T18:01:40.048Z</time>
      </trkpt>
      <trkpt lat="47.535202" lon="7.713540">
        <ele>270.612296</ele>
        <time>2021-11-14T18:01:42.740Z</time>
      </trkpt>
      <trkpt lat="47.535174" lon="7.713262">
        <ele>270.819339</ele>
        <time>2021-11-14T18:01:46.194Z</time>
      </trkpt>
      <trkpt lat="47.535155" lon="7.713109">
        <ele>270.933930</ele>
        <time>2021-11-14T18:01:48.231Z</time>
      </trkpt>
      <trkpt lat="47.535128" lon="7.712889">
        <ele>271.098640</ele>
        <time>2021-11-14T18:01:50.988Z</time>
      </trkpt>
      <trkpt lat="47.535110" lon="7.712748">
        <ele>271.204342</ele>
        <time>2021-11-14T18:01:52.729Z</time>
      </trkpt>
      <trkpt lat="47.535067" lon="7.712436">
        <ele>271.438903</ele>
        <time>2021-11-14T18:01:56.766Z</time>
      </trkpt>
      <trkpt lat="47.535045" lon="7.712277">
        <ele>271.558459</ele>
        <time>2021-11-14T18:01:58.631Z</time>
      </trkpt>
      <trkpt lat="47.534965" lon="7.711682">
        <ele>271.836656</ele>
        <time>2021-11-14T18:02:05.833Z</time>
      </trkpt>
      <trkpt lat="47.534909" lon="7.711265">
        <ele>271.952970</ele>
        <time>2021-11-14T18:02:10.861Z</time>
      </trkpt>
      <trkpt lat="47.534768" lon="7.710504">
        <ele>272.168854</ele>
        <time>2021-11-14T18:02:19.960Z</time>
      </trkpt>
      <trkpt lat="47.534734" lon="7.710344">
        <ele>272.214742</ele>
        <time>2021-11-14T18:02:21.839Z</time>
      </trkpt>
      <trkpt lat="47.534641" lon="7.709912">
        <ele>272.338788</ele>
        <time>2021-11-14T18:02:26.678Z</time>
      </trkpt>
      <trkpt lat="47.534615" lon="7.709805">
        <ele>272.369898</ele>
        <time>2021-11-14T18:02:27.870Z</time>
      </trkpt>
      <trkpt lat="47.534577" lon="7.709613">
        <ele>272.424634</ele>
        <time>2021-11-14T18:02:29.947Z</time>
      </trkpt>
      <trkpt lat="47.534509" lon="7.709297">
        <ele>272.423628</ele>
        <time>2021-11-14T18:02:33.111Z</time>
      </trkpt>
      <trkpt lat="47.534390" lon="7.708741">
        <ele>272.287819</ele>
        <time>2021-11-14T18:02:38.508Z</time>
      </trkpt>
      <trkpt lat="47.534357" lon="7.708594">
        <ele>272.251748</ele>
        <time>2021-11-14T18:02:39.898Z</time>
      </trkpt>
      <trkpt lat="47.534132" lon="7.707553">
        <ele>271.997241</ele>
        <time>2021-11-14T18:02:49.707Z</time>
      </trkpt>
      <trkpt lat="47.534017" lon="7.707047">
        <ele>271.872926</ele>
        <time>2021-11-14T18:02:54.731Z</time>
      </trkpt>
      <trkpt lat="47.533747" lon="7.705801">
        <ele>271.465430</ele>
        <time>2021-11-14T18:03:06.465Z</time>
      </trkpt>
      <trkpt lat="47.533715" lon="7.705652">
        <ele>271.415526</ele>
        <time>2021-11-14T18:03:07.868Z</time>
      </trkpt>
      <trkpt lat="47.533704" lon="7.705593">
        <ele>271.395990</ele>
        <time>2021-11-14T18:03:08.415Z</time>
      </trkpt>
      <trkpt lat="47.533527" lon="7.704796">
        <ele>271.128204</ele>
        <time>2021-11-14T18:03:15.818Z</time>
      </trkpt>
      <trkpt lat="47.533301" lon="7.703780">
        <ele>270.815527</ele>
        <time>2021-11-14T18:03:25.605Z</time>
      </trkpt>
      <trkpt lat="47.532835" lon="7.701725">
        <ele>270.209299</ele>
        <time>2021-11-14T18:03:45.398Z</time>
      </trkpt>
      <trkpt lat="47.532793" lon="7.701522">
        <ele>270.137688</ele>
        <time>2021-11-14T18:03:47.276Z</time>
      </trkpt>
      <trkpt lat="47.532428" lon="7.699970">
        <ele>269.583371</ele>
        <time>2021-11-14T18:04:02.245Z</time>
      </trkpt>
      <trkpt lat="47.532407" lon="7.699875">
        <ele>269.549655</ele>
        <time>2021-11-14T18:04:03.138Z</time>
      </trkpt>
      <trkpt lat="47.532378" lon="7.699751">
        <ele>269.505394</ele>
        <time>2021-11-14T18:04:04.299Z</time>
      </trkpt>
      <trkpt lat="47.532326" lon="7.699504">
        <ele>269.418128</ele>
        <time>2021-11-14T18:04:06.660Z</time>
      </trkpt>
      <trkpt lat="47.532317" lon="7.699464">
        <ele>269.403907</ele>
        <time>2021-11-14T18:04:07.014Z</time>
      </trkpt>
      <trkpt lat="47.532234" lon="7.699115">
        <ele>269.146494</ele>
        <time>2021-11-14T18:04:10.208Z</time>
      </trkpt>
      <trkpt lat="47.532082" lon="7.698472">
        <ele>268.556437</ele>
        <time>2021-11-14T18:04:15.832Z</time>
      </trkpt>
      <trkpt lat="47.531987" lon="7.698056">
        <ele>268.176082</ele>
        <time>2021-11-14T18:04:19.341Z</time>
      </trkpt>
      <trkpt lat="47.531820" lon="7.697324">
        <ele>267.506870</ele>
        <time>2021-11-14T18:04:25.316Z</time>
      </trkpt>
      <trkpt lat="47.531503" lon="7.695640">
        <ele>266.178129</ele>
        <time>2021-11-14T18:04:38.561Z</time>
      </trkpt>
      <trkpt lat="47.531279" lon="7.693388">
        <ele>265.505508</ele>
        <time>2021-11-14T18:04:58.795Z</time>
      </trkpt>
      <trkpt lat="47.531252" lon="7.693049">
        <ele>265.649350</ele>
        <time>2021-11-14T18:05:03.367Z</time>
      </trkpt>
      <trkpt lat="47.531247" lon="7.692506">
        <ele>265.878188</ele>
        <time>2021-11-14T18:05:10.887Z</time>
      </trkpt>
      <trkpt lat="47.531250" lon="7.692032">
        <ele>266.077936</ele>
        <time>2021-11-14T18:05:17.364Z</time>
      </trkpt>
      <trkpt lat="47.531253" lon="7.691880">
        <ele>266.142015</ele>
        <time>2021-11-14T18:05:19.399Z</time>
      </trkpt>
      <trkpt lat="47.531254" lon="7.691721">
        <ele>266.209019</ele>
        <time>2021-11-14T18:05:21.400Z</time>
      </trkpt>
      <trkpt lat="47.531257" lon="7.691497">
        <ele>266.280738</ele>
        <time>2021-11-14T18:05:24.209Z</time>
      </trkpt>
      <trkpt lat="47.531218" lon="7.691259">
        <ele>266.304681</ele>
        <time>2021-11-14T18:05:26.980Z</time>
      </trkpt>
      <trkpt lat="47.531228" lon="7.690572">
        <ele>266.371860</ele>
        <time>2021-11-14T18:05:35.440Z</time>
      </trkpt>
      <trkpt lat="47.531244" lon="7.689927">
        <ele>266.434960</ele>
        <time>2021-11-14T18:05:42.020Z</time>
      </trkpt>
      <trkpt lat="47.531254" lon="7.689619">
        <ele>266.465106</ele>
        <time>2021-11-14T18:05:45.033Z</time>
      </trkpt>
      <trkpt lat="47.531264" lon="7.689333">
        <ele>266.493103</ele>
        <time>2021-11-14T18:05:47.707Z</time>
      </trkpt>
      <trkpt lat="47.531265" lon="7.689138">
        <ele>266.512168</ele>
        <time>2021-11-14T18:05:49.359Z</time>
      </trkpt>
      <trkpt lat="47.531267" lon="7.688842">
        <ele>266.508996</ele>
        <time>2021-11-14T18:05:52.058Z</time>
      </trkpt>
      <trkpt lat="47.531309" lon="7.687734">
        <ele>266.104513</ele>
        <time>2021-11-14T18:06:01.065Z</time>
      </trkpt>
      <trkpt lat="47.531311" lon="7.686964">
        <ele>265.823859</ele>
        <time>2021-11-14T18:06:07.647Z</time>
      </trkpt>
      <trkpt lat="47.531302" lon="7.686543">
        <ele>265.670335</ele>
        <time>2021-11-14T18:06:11.900Z</time>
      </trkpt>
      <trkpt lat="47.531297" lon="7.685934">
        <ele>265.660961</ele>
        <time>2021-11-14T18:06:18.427Z</time>
      </trkpt>
      <trkpt lat="47.531296" lon="7.684922">
        <ele>265.973960</ele>
        <time>2021-11-14T18:06:29.870Z</time>
      </trkpt>
      <trkpt lat="47.531277" lon="7.683432">
        <ele>266.475327</ele>
        <time>2021-11-14T18:06:47.032Z</time>
      </trkpt>
      <trkpt lat="47.531276" lon="7.682944">
        <ele>266.754512</ele>
        <time>2021-11-14T18:06:52.783Z</time>
      </trkpt>
      <trkpt lat="47.531275" lon="7.682615">
        <ele>266.942734</ele>
        <time>2021-11-14T18:06:56.763Z</time>
      </trkpt>
      <trkpt lat="47.531257" lon="7.681446">
        <ele>267.611689</ele>
        <time>2021-11-14T18:07:11.556Z</time>
      </trkpt>
      <trkpt lat="47.531222" lon="7.679157">
        <ele>268.625994</ele>
        <time>2021-11-14T18:07:40.104Z</time>
      </trkpt>
      <trkpt lat="47.531218" lon="7.678940">
        <ele>268.713852</ele>
        <time>2021-11-14T18:07:42.414Z</time>
      </trkpt>
      <trkpt lat="47.531215" lon="7.678292">
        <ele>268.976119</ele>
        <time>2021-11-14T18:07:48.929Z</time>
      </trkpt>
      <trkpt lat="47.531238" lon="7.677761">
        <ele>268.970901</ele>
        <time>2021-11-14T18:07:54.086Z</time>
      </trkpt>
      <trkpt lat="47.531253" lon="7.677527">
        <ele>268.962168</ele>
        <time>2021-11-14T18:07:56.462Z</time>
      </trkpt>
      <trkpt lat="47.531275" lon="7.677355">
        <ele>268.955664</ele>
        <time>2021-11-14T18:07:58.141Z</time>
      </trkpt>
      <trkpt lat="47.531314" lon="7.677106">
        <ele>268.946167</ele>
        <time>2021-11-14T18:08:01.005Z</time>
      </trkpt>
      <trkpt lat="47.531325" lon="7.677036">
        <ele>268.943497</ele>
        <time>2021-11-14T18:08:01.716Z</time>
      </trkpt>
      <trkpt lat="47.531397" lon="7.676665">
        <ele>268.929155</ele>
        <time>2021-11-14T18:08:05.672Z</time>
      </trkpt>
      <trkpt lat="47.531455" lon="7.676389">
        <ele>268.918416</ele>
        <time>2021-11-14T18:08:08.570Z</time>
      </trkpt>
      <trkpt lat="47.531545" lon="7.675929">
        <ele>268.900622</ele>
        <time>2021-11-14T18:08:13.770Z</time>
      </trkpt>
      <trkpt lat="47.531606" lon="7.675606">
        <ele>268.865138</ele>
        <time>2021-11-14T18:08:17.021Z</time>
      </trkpt>
      <trkpt lat="47.531635" lon="7.675449">
        <ele>268.798879</ele>
        <time>2021-11-14T18:08:18.356Z</time>
      </trkpt>
      <trkpt lat="47.531719" lon="7.675071">
        <ele>268.636883</ele>
        <time>2021-11-14T18:08:21.563Z</time>
      </trkpt>
      <trkpt lat="47.531825" lon="7.674498">
        <ele>268.395031</ele>
        <time>2021-11-14T18:08:26.351Z</time>
      </trkpt>
      <trkpt lat="47.531884" lon="7.674105">
        <ele>268.231143</ele>
        <time>2021-11-14T18:08:29.989Z</time>
      </trkpt>
      <trkpt lat="47.531942" lon="7.673731">
        <ele>268.074932</ele>
        <time>2021-11-14T18:08:33.599Z</time>
      </trkpt>
      <trkpt lat="47.531990" lon="7.673394">
        <ele>267.934728</ele>
        <time>2021-11-14T18:08:36.566Z</time>
      </trkpt>
      <trkpt lat="47.532036" lon="7.673089">
        <ele>267.807510</ele>
        <time>2021-11-14T18:08:39.478Z</time>
      </trkpt>
      <trkpt lat="47.532065" lon="7.672871">
        <ele>267.844759</ele>
        <time>2021-11-14T18:08:41.355Z</time>
      </trkpt>
      <trkpt lat="47.532344" lon="7.670949">
        <ele>268.192962</ele>
        <time>2021-11-14T18:08:59.494Z</time>
      </trkpt>
      <trkpt lat="47.532378" lon="7.670762">
        <ele>268.227264</ele>
        <time>2021-11-14T18:09:02.460Z</time>
      </trkpt>
      <trkpt lat="47.532450" lon="7.670414">
        <ele>268.363954</ele>
        <time>2021-11-14T18:09:08.370Z</time>
      </trkpt>
      <trkpt lat="47.532528" lon="7.670085">
        <ele>268.747855</ele>
        <time>2021-11-14T18:09:14.467Z</time>
      </trkpt>
      <trkpt lat="47.532604" lon="7.669823">
        <ele>269.061804</ele>
        <time>2021-11-14T18:09:19.602Z</time>
      </trkpt>
      <trkpt lat="47.532727" lon="7.669421">
        <ele>269.547719</ele>
        <time>2021-11-14T18:09:26.756Z</time>
      </trkpt>
      <trkpt lat="47.532897" lon="7.668969">
        <ele>270.117356</ele>
        <time>2021-11-14T18:09:34.549Z</time>
      </trkpt>
      <trkpt lat="47.533053" lon="7.668607">
        <ele>270.590167</ele>
        <time>2021-11-14T18:09:39.845Z</time>
      </trkpt>
      <trkpt lat="47.533159" lon="7.668361">
        <ele>270.911459</ele>
        <time>2021-11-14T18:09:44.141Z</time>
      </trkpt>
      <trkpt lat="47.533253" lon="7.668149">
        <ele>271.190693</ele>
        <time>2021-11-14T18:09:46.827Z</time>
      </trkpt>
      <trkpt lat="47.533486" lon="7.667627">
        <ele>271.178303</ele>
        <time>2021-11-14T18:09:54.450Z</time>
      </trkpt>
      <trkpt lat="47.533740" lon="7.667075">
        <ele>271.142519</ele>
        <time>2021-11-14T18:10:01.973Z</time>
      </trkpt>
      <trkpt lat="47.533835" lon="7.666868">
        <ele>271.129112</ele>
        <time>2021-11-14T18:10:04.042Z</time>
      </trkpt>
      <trkpt lat="47.533775" lon="7.666807">
        <ele>271.123338</ele>
        <time>2021-11-14T18:10:05.364Z</time>
      </trkpt>
      <trkpt lat="47.533696" lon="7.666647">
        <ele>271.112720</ele>
        <time>2021-11-14T18:10:07.325Z</time>
      </trkpt>
      <trkpt lat="47.533398" lon="7.666305">
        <ele>271.082810</ele>
        <time>2021-11-14T18:10:11.832Z</time>
      </trkpt>
      <trkpt lat="47.533116" lon="7.665988">
        <ele>271.128888</ele>
        <time>2021-11-14T18:10:16.056Z</time>
      </trkpt>
      <trkpt lat="47.532925" lon="7.665760">
        <ele>271.217013</ele>
        <time>2021-11-14T18:10:19.144Z</time>
      </trkpt>
      <trkpt lat="47.532786" lon="7.665641">
        <ele>271.274688</ele>
        <time>2021-11-14T18:10:21.290Z</time>
      </trkpt>
      <trkpt lat="47.532672" lon="7.665583">
        <ele>271.317990</ele>
        <time>2021-11-14T18:10:22.923Z</time>
      </trkpt>
      <trkpt lat="47.532292" lon="7.665148">
        <ele>271.490522</ele>
        <time>2021-11-14T18:10:31.419Z</time>
      </trkpt>
      <trkpt lat="47.532140" lon="7.664972">
        <ele>271.559832</ele>
        <time>2021-11-14T18:10:34.859Z</time>
      </trkpt>
      <trkpt lat="47.531991" lon="7.664806">
        <ele>271.626811</ele>
        <time>2021-11-14T18:10:38.741Z</time>
      </trkpt>
      <trkpt lat="47.531765" lon="7.664540">
        <ele>271.806654</ele>
        <time>2021-11-14T18:10:44.477Z</time>
      </trkpt>
      <trkpt lat="47.530899" lon="7.663616">
        <ele>273.988403</ele>
        <time>2021-11-14T18:11:07.952Z</time>
      </trkpt>
      <trkpt lat="47.530793" lon="7.663521">
        <ele>274.241665</ele>
        <time>2021-11-14T18:11:11.479Z</time>
      </trkpt>
      <trkpt lat="47.530719" lon="7.663465">
        <ele>274.411533</ele>
        <time>2021-11-14T18:11:13.854Z</time>
      </trkpt>
      <trkpt lat="47.529792" lon="7.663087">
        <ele>276.572962</ele>
        <time>2021-11-14T18:11:42.976Z</time>
      </trkpt>
      <trkpt lat="47.529676" lon="7.663021">
        <ele>276.877473</ele>
        <time>2021-11-14T18:11:46.697Z</time>
      </trkpt>
      <trkpt lat="47.529624" lon="7.662986">
        <ele>277.017440</ele>
        <time>2021-11-14T18:11:48.097Z</time>
      </trkpt>
      <trkpt lat="47.529576" lon="7.662954">
        <ele>277.146431</ele>
        <time>2021-11-14T18:11:49.468Z</time>
      </trkpt>
      <trkpt lat="47.529502" lon="7.662906">
        <ele>277.344396</ele>
        <time>2021-11-14T18:11:51.626Z</time>
      </trkpt>
      <trkpt lat="47.528985" lon="7.662541">
        <ele>278.747880</ele>
        <time>2021-11-14T18:12:08.906Z</time>
      </trkpt>
      <trkpt lat="47.528693" lon="7.662320">
        <ele>279.551443</ele>
        <time>2021-11-14T18:12:18.645Z</time>
      </trkpt>
      <trkpt lat="47.528592" lon="7.662229">
        <ele>279.830942</ele>
        <time>2021-11-14T18:12:21.759Z</time>
      </trkpt>
      <trkpt lat="47.528425" lon="7.662035">
        <ele>280.226608</ele>
        <time>2021-11-14T18:12:26.566Z</time>
      </trkpt>
      <trkpt lat="47.528226" lon="7.661637">
        <ele>280.849989</ele>
        <time>2021-11-14T18:12:34.342Z</time>
      </trkpt>
      <trkpt lat="47.527912" lon="7.660639">
        <ele>282.235907</ele>
        <time>2021-11-14T18:12:51.513Z</time>
      </trkpt>
      <trkpt lat="47.527673" lon="7.659801">
        <ele>283.150250</ele>
        <time>2021-11-14T18:13:04.798Z</time>
      </trkpt>
      <trkpt lat="47.527666" lon="7.659776">
        <ele>283.150063</ele>
        <time>2021-11-14T18:13:05.234Z</time>
      </trkpt>
      <trkpt lat="47.527370" lon="7.658528">
        <ele>283.140937</ele>
        <time>2021-11-14T18:13:18.753Z</time>
      </trkpt>
      <trkpt lat="47.527241" lon="7.658123">
        <ele>283.137848</ele>
        <time>2021-11-14T18:13:22.595Z</time>
      </trkpt>
      <trkpt lat="47.527139" lon="7.657807">
        <ele>283.135431</ele>
        <time>2021-11-14T18:13:25.591Z</time>
      </trkpt>
      <trkpt lat="47.527042" lon="7.657604">
        <ele>283.133715</ele>
        <time>2021-11-14T18:13:27.726Z</time>
      </trkpt>
      <trkpt lat="47.526917" lon="7.657402">
        <ele>283.079260</ele>
        <time>2021-11-14T18:13:30.074Z</time>
      </trkpt>
      <trkpt lat="47.526859" lon="7.657325">
        <ele>283.046401</ele>
        <time>2021-11-14T18:13:31.011Z</time>
      </trkpt>
      <trkpt lat="47.526880" lon="7.657295">
        <ele>283.034093</ele>
        <time>2021-11-14T18:13:31.364Z</time>
      </trkpt>
      <trkpt lat="47.526883" lon="7.657129">
        <ele>282.986792</ele>
        <time>2021-11-14T18:13:33.001Z</time>
      </trkpt>
      <trkpt lat="47.526863" lon="7.657097">
        <ele>282.974372</ele>
        <time>2021-11-14T18:13:33.336Z</time>
      </trkpt>
      <trkpt lat="47.526840" lon="7.657078">
        <ele>282.963262</ele>
        <time>2021-11-14T18:13:33.658Z</time>
      </trkpt>
      <trkpt lat="47.526789" lon="7.657068">
        <ele>282.941561</ele>
        <time>2021-11-14T18:13:34.280Z</time>
      </trkpt>
      <trkpt lat="47.526764" lon="7.657078">
        <ele>282.930637</ele>
        <time>2021-11-14T18:13:34.592Z</time>
      </trkpt>
      <trkpt lat="47.526741" lon="7.657100">
        <ele>282.919087</ele>
        <time>2021-11-14T18:13:34.936Z</time>
      </trkpt>
      <trkpt lat="47.526722" lon="7.657130">
        <ele>282.907371</ele>
        <time>2021-11-14T18:13:35.256Z</time>
      </trkpt>
      <trkpt lat="47.526710" lon="7.657166">
        <ele>282.895936</ele>
        <time>2021-11-14T18:13:35.582Z</time>
      </trkpt>
      <trkpt lat="47.526706" lon="7.657209">
        <ele>282.883572</ele>
        <time>2021-11-14T18:13:35.934Z</time>
      </trkpt>
      <trkpt lat="47.526723" lon="7.657291">
        <ele>282.859138</ele>
        <time>2021-11-14T18:13:36.704Z</time>
      </trkpt>
      <trkpt lat="47.526743" lon="7.657323">
        <ele>282.846718</ele>
        <time>2021-11-14T18:13:37.223Z</time>
      </trkpt>
      <trkpt lat="47.526694" lon="7.657412">
        <ele>282.814009</ele>
        <time>2021-11-14T18:13:38.612Z</time>
      </trkpt>
      <trkpt lat="47.526672" lon="7.657453">
        <ele>282.799092</ele>
        <time>2021-11-14T18:13:39.178Z</time>
      </trkpt>
      <trkpt lat="47.526339" lon="7.657736">
        <ele>282.637134</ele>
        <time>2021-11-14T18:13:45.976Z</time>
      </trkpt>
      <trkpt lat="47.526194" lon="7.657732">
        <ele>282.575957</ele>
        <time>2021-11-14T18:13:48.427Z</time>
      </trkpt>
      <trkpt lat="47.526129" lon="7.657714">
        <ele>282.548062</ele>
        <time>2021-11-14T18:13:49.730Z</time>
      </trkpt>
      <trkpt lat="47.526058" lon="7.657663">
        <ele>282.514775</ele>
        <time>2021-11-14T18:13:51.176Z</time>
      </trkpt>
      <trkpt lat="47.525992" lon="7.657583">
        <ele>282.478797</ele>
        <time>2021-11-14T18:13:52.747Z</time>
      </trkpt>
      <trkpt lat="47.525949" lon="7.657484">
        <ele>282.445267</ele>
        <time>2021-11-14T18:13:54.406Z</time>
      </trkpt>
      <trkpt lat="47.525879" lon="7.657237">
        <ele>282.408148</ele>
        <time>2021-11-14T18:13:58.412Z</time>
      </trkpt>
      <trkpt lat="47.525864" lon="7.656858">
        <ele>283.079959</ele>
        <time>2021-11-14T18:14:04.532Z</time>
      </trkpt>
      <trkpt lat="47.525910" lon="7.656589">
        <ele>283.570995</ele>
        <time>2021-11-14T18:14:09.278Z</time>
      </trkpt>
      <trkpt lat="47.525936" lon="7.656458">
        <ele>283.812612</ele>
        <time>2021-11-14T18:14:11.804Z</time>
      </trkpt>
      <trkpt lat="47.525829" lon="7.656401">
        <ele>284.110601</ele>
        <time>2021-11-14T18:14:15.699Z</time>
      </trkpt>
      <trkpt lat="47.525670" lon="7.656313">
        <ele>284.555418</ele>
        <time>2021-11-14T18:14:19.370Z</time>
      </trkpt>
      <trkpt lat="47.525472" lon="7.656212">
        <ele>285.104208</ele>
        <time>2021-11-14T18:14:26.691Z</time>
      </trkpt>
      <trkpt lat="47.525397" lon="7.656172">
        <ele>285.313107</ele>
        <time>2021-11-14T18:14:28.333Z</time>
      </trkpt>
      <trkpt lat="47.525220" lon="7.656078">
        <ele>285.805870</ele>
        <time>2021-11-14T18:14:34.913Z</time>
      </trkpt>
      <trkpt lat="47.524818" lon="7.655865">
        <ele>286.924734</ele>
        <time>2021-11-14T18:14:46.899Z</time>
      </trkpt>
      <trkpt lat="47.524761" lon="7.655834">
        <ele>287.083861</ele>
        <time>2021-11-14T18:14:48.019Z</time>
      </trkpt>
      <trkpt lat="47.524698" lon="7.655801">
        <ele>287.257636</ele>
        <time>2021-11-14T18:14:49.350Z</time>
      </trkpt>
      <trkpt lat="47.524663" lon="7.655783">
        <ele>287.353966</ele>
        <time>2021-11-14T18:14:50.104Z</time>
      </trkpt>
      <trkpt lat="47.524616" lon="7.655757">
        <ele>287.484413</ele>
        <time>2021-11-14T18:14:52.906Z</time>
      </trkpt>
      <trkpt lat="47.524572" lon="7.655735">
        <ele>287.605157</ele>
        <time>2021-11-14T18:14:53.858Z</time>
      </trkpt>
      <trkpt lat="47.524519" lon="7.655706">
        <ele>287.752061</ele>
        <time>2021-11-14T18:14:56.392Z</time>
      </trkpt>
      <trkpt lat="47.524441" lon="7.655671">
        <ele>287.963965</ele>
        <time>2021-11-14T18:14:57.648Z</time>
      </trkpt>
      <trkpt lat="47.524305" lon="7.655610">
        <ele>288.333425</ele>
        <time>2021-11-14T18:15:00.244Z</time>
      </trkpt>
      <trkpt lat="47.524277" lon="7.655598">
        <ele>288.409212</ele>
        <time>2021-11-14T18:15:02.523Z</time>
      </trkpt>
      <trkpt lat="47.524277" lon="7.655598">
        <ele>288.409212</ele>
        <time>2021-11-14T18:15:02.601Z</time>
      </trkpt>
      <trkpt lat="47.524277" lon="7.655598">
        <ele>288.409212</ele>
        <time>2021-11-14T18:15:02.607Z</time>
      </trkpt>
      <trkpt lat="47.524304" lon="7.655410">
        <ele>288.746668</ele>
        <time>2021-11-14T18:15:06.382Z</time>
      </trkpt>
      <trkpt lat="47.524475" lon="7.654210">
        <ele>290.899912</ele>
        <time>2021-11-14T18:15:26.349Z</time>
      </trkpt>
      <trkpt lat="47.524506" lon="7.653987">
        <ele>291.299643</ele>
        <time>2021-11-14T18:15:30.803Z</time>
      </trkpt>
      <trkpt lat="47.524516" lon="7.653915">
        <ele>291.428700</ele>
        <time>2021-11-14T18:15:32.406Z</time>
      </trkpt>
      <trkpt lat="47.524555" lon="7.653632">
        <ele>291.819196</ele>
        <time>2021-11-14T18:15:36.444Z</time>
      </trkpt>
      <trkpt lat="47.524557" lon="7.652450">
        <ele>292.483597</ele>
        <time>2021-11-14T18:15:50.788Z</time>
      </trkpt>
      <trkpt lat="47.524523" lon="7.652322">
        <ele>292.560911</ele>
        <time>2021-11-14T18:15:52.136Z</time>
      </trkpt>
      <trkpt lat="47.524484" lon="7.652177">
        <ele>292.648643</ele>
        <time>2021-11-14T18:15:53.569Z</time>
      </trkpt>
      <trkpt lat="47.524402" lon="7.651879">
        <ele>292.829521</ele>
        <time>2021-11-14T18:15:56.804Z</time>
      </trkpt>
      <trkpt lat="47.524245" lon="7.651314">
        <ele>293.172944</ele>
        <time>2021-11-14T18:16:03.377Z</time>
      </trkpt>
      <trkpt lat="47.524034" lon="7.650528">
        <ele>293.902812</ele>
        <time>2021-11-14T18:16:14.957Z</time>
      </trkpt>
      <trkpt lat="47.523968" lon="7.650324">
        <ele>294.113573</ele>
        <time>2021-11-14T18:16:17.652Z</time>
      </trkpt>
      <trkpt lat="47.523851" lon="7.649952">
        <ele>294.495925</ele>
        <time>2021-11-14T18:16:24.096Z</time>
      </trkpt>
      <trkpt lat="47.523799" lon="7.649826">
        <ele>294.633511</ele>
        <time>2021-11-14T18:16:25.884Z</time>
      </trkpt>
      <trkpt lat="47.523763" lon="7.649750">
        <ele>294.720007</ele>
        <time>2021-11-14T18:16:27.691Z</time>
      </trkpt>
      <trkpt lat="47.523318" lon="7.648996">
        <ele>295.653029</ele>
        <time>2021-11-14T18:16:40.785Z</time>
      </trkpt>
      <trkpt lat="47.523157" lon="7.648702">
        <ele>296.014002</ele>
        <time>2021-11-14T18:16:46.453Z</time>
      </trkpt>
      <trkpt lat="47.523005" lon="7.648426">
        <ele>296.356316</ele>
        <time>2021-11-14T18:16:52.056Z</time>
      </trkpt>
      <trkpt lat="47.522716" lon="7.647943">
        <ele>296.976577</ele>
        <time>2021-11-14T18:17:01.431Z</time>
      </trkpt>
      <trkpt lat="47.522552" lon="7.647695">
        <ele>297.310205</ele>
        <time>2021-11-14T18:17:05.642Z</time>
      </trkpt>
      <trkpt lat="47.522504" lon="7.647599">
        <ele>297.425017</ele>
        <time>2021-11-14T18:17:07.545Z</time>
      </trkpt>
      <trkpt lat="47.522477" lon="7.647501">
        <ele>297.526749</ele>
        <time>2021-11-14T18:17:08.793Z</time>
      </trkpt>
      <trkpt lat="47.522444" lon="7.647497">
        <ele>297.573876</ele>
        <time>2021-11-14T18:17:09.524Z</time>
      </trkpt>
      <trkpt lat="47.522408" lon="7.647467">
        <ele>297.632672</ele>
        <time>2021-11-14T18:17:10.192Z</time>
      </trkpt>
      <trkpt lat="47.521923" lon="7.646845">
        <ele>298.680046</ele>
        <time>2021-11-14T18:17:22.820Z</time>
      </trkpt>
      <trkpt lat="47.521902" lon="7.646594">
        <ele>299.057546</ele>
        <time>2021-11-14T18:17:26.100Z</time>
      </trkpt>
      <trkpt lat="47.521890" lon="7.646489">
        <ele>299.216494</ele>
        <time>2021-11-14T18:17:27.588Z</time>
      </trkpt>
      <trkpt lat="47.521879" lon="7.646397">
        <ele>299.355946</ele>
        <time>2021-11-14T18:17:29.495Z</time>
      </trkpt>
      <trkpt lat="47.521863" lon="7.646282">
        <ele>299.531197</ele>
        <time>2021-11-14T18:17:31.352Z</time>
      </trkpt>
      <trkpt lat="47.521817" lon="7.645962">
        <ele>300.019522</ele>
        <time>2021-11-14T18:17:35.856Z</time>
      </trkpt>
      <trkpt lat="47.521589" lon="7.646090">
        <ele>300.558450</ele>
        <time>2021-11-14T18:17:41.763Z</time>
      </trkpt>
      <trkpt lat="47.521483" lon="7.646147">
        <ele>300.807701</ele>
        <time>2021-11-14T18:17:44.257Z</time>
      </trkpt>
      <trkpt lat="47.521344" lon="7.646223">
        <ele>301.135193</ele>
        <time>2021-11-14T18:17:48.254Z</time>
      </trkpt>
      <trkpt lat="47.521133" lon="7.646325">
        <ele>301.625769</ele>
        <time>2021-11-14T18:17:53.360Z</time>
      </trkpt>
      <trkpt lat="47.521082" lon="7.646351">
        <ele>301.744983</ele>
        <time>2021-11-14T18:17:55.111Z</time>
      </trkpt>
      <trkpt lat="47.520870" lon="7.646459">
        <ele>302.240500</ele>
        <time>2021-11-14T18:18:00.910Z</time>
      </trkpt>
      <trkpt lat="47.520716" lon="7.646501">
        <ele>302.987045</ele>
        <time>2021-11-14T18:18:05.392Z</time>
      </trkpt>
      <trkpt lat="47.520544" lon="7.646549">
        <ele>303.876847</ele>
        <time>2021-11-14T18:18:10.356Z</time>
      </trkpt>
      <trkpt lat="47.520453" lon="7.646560">
        <ele>304.341009</ele>
        <time>2021-11-14T18:18:12.924Z</time>
      </trkpt>
      <trkpt lat="47.520182" lon="7.646592">
        <ele>305.723084</ele>
        <time>2021-11-14T18:18:21.521Z</time>
      </trkpt>
      <trkpt lat="47.519670" lon="7.646767">
        <ele>308.394417</ele>
        <time>2021-11-14T18:18:44.472Z</time>
      </trkpt>
      <trkpt lat="47.519621" lon="7.646784">
        <ele>308.650268</ele>
        <time>2021-11-14T18:18:47.491Z</time>
      </trkpt>
      <trkpt lat="47.518736" lon="7.647340">
        <ele>313.350160</ele>
        <time>2021-11-14T18:19:30.091Z</time>
      </trkpt>
      <trkpt lat="47.518689" lon="7.647385">
        <ele>313.609479</ele>
        <time>2021-11-14T18:19:32.234Z</time>
      </trkpt>
      <trkpt lat="47.518582" lon="7.647538">
        <ele>314.298658</ele>
        <time>2021-11-14T18:19:41.210Z</time>
      </trkpt>
      <trkpt lat="47.518122" lon="7.648240">
        <ele>317.359280</ele>
        <time>2021-11-14T18:20:04.664Z</time>
      </trkpt>
      <trkpt lat="47.518072" lon="7.648268">
        <ele>317.606955</ele>
        <time>2021-11-14T18:20:08.807Z</time>
      </trkpt>
      <trkpt lat="47.517916" lon="7.648293">
        <ele>318.333958</ele>
        <time>2021-11-14T18:20:12.308Z</time>
      </trkpt>
      <trkpt lat="47.517896" lon="7.648297">
        <ele>318.427464</ele>
        <time>2021-11-14T18:20:12.735Z</time>
      </trkpt>
      <trkpt lat="47.516935" lon="7.648449">
        <ele>320.473951</ele>
        <time>2021-11-14T18:20:43.148Z</time>
      </trkpt>
      <trkpt lat="47.516513" lon="7.648597">
        <ele>320.932023</ele>
        <time>2021-11-14T18:20:52.353Z</time>
      </trkpt>
      <trkpt lat="47.516097" lon="7.648754">
        <ele>321.385474</ele>
        <time>2021-11-14T18:21:00.285Z</time>
      </trkpt>
      <trkpt lat="47.515854" lon="7.648881">
        <ele>321.657110</ele>
        <time>2021-11-14T18:21:05.072Z</time>
      </trkpt>
      <trkpt lat="47.515597" lon="7.649049">
        <ele>321.865220</ele>
        <time>2021-11-14T18:21:10.990Z</time>
      </trkpt>
      <trkpt lat="47.515511" lon="7.649123">
        <ele>321.938903</ele>
        <time>2021-11-14T18:21:12.762Z</time>
      </trkpt>
      <trkpt lat="47.515459" lon="7.649168">
        <ele>321.983521</ele>
        <time>2021-11-14T18:21:14.279Z</time>
      </trkpt>
      <trkpt lat="47.515328" lon="7.649326">
        <ele>322.108685</ele>
        <time>2021-11-14T18:21:17.770Z</time>
      </trkpt>
      <trkpt lat="47.515061" lon="7.649652">
        <ele>322.365051</ele>
        <time>2021-11-14T18:21:25.218Z</time>
      </trkpt>
      <trkpt lat="47.514922" lon="7.650009">
        <ele>322.571220</ele>
        <time>2021-11-14T18:21:31.597Z</time>
      </trkpt>
      <trkpt lat="47.514864" lon="7.650158">
        <ele>322.657263</ele>
        <time>2021-11-14T18:21:34.488Z</time>
      </trkpt>
      <trkpt lat="47.514691" lon="7.650573">
        <ele>322.901262</ele>
        <time>2021-11-14T18:21:42.770Z</time>
      </trkpt>
      <trkpt lat="47.514657" lon="7.650652">
        <ele>322.948130</ele>
        <time>2021-11-14T18:21:44.542Z</time>
      </trkpt>
      <trkpt lat="47.514509" lon="7.650991">
        <ele>323.642001</ele>
        <time>2021-11-14T18:21:52.492Z</time>
      </trkpt>
      <trkpt lat="47.514207" lon="7.651374">
        <ele>324.831666</ele>
        <time>2021-11-14T18:22:05.345Z</time>
      </trkpt>
      <trkpt lat="47.513848" lon="7.651830">
        <ele>326.246810</ele>
        <time>2021-11-14T18:22:20.727Z</time>
      </trkpt>
      <trkpt lat="47.513576" lon="7.652174">
        <ele>327.317049</ele>
        <time>2021-11-14T18:22:32.643Z</time>
      </trkpt>
      <trkpt lat="47.513405" lon="7.652446">
        <ele>328.067934</ele>
        <time>2021-11-14T18:22:39.955Z</time>
      </trkpt>
      <trkpt lat="47.513349" lon="7.653017">
        <ele>329.590197</ele>
        <time>2021-11-14T18:22:51.462Z</time>
      </trkpt>
      <trkpt lat="47.512895" lon="7.654488">
        <ele>334.205416</ele>
        <time>2021-11-14T18:23:26.823Z</time>
      </trkpt>
      <trkpt lat="47.512836" lon="7.654893">
        <ele>335.387730</ele>
        <time>2021-11-14T18:23:35.778Z</time>
      </trkpt>
      <trkpt lat="47.512752" lon="7.657349">
        <ele>343.816725</ele>
        <time>2021-11-14T18:24:30.978Z</time>
      </trkpt>
      <trkpt lat="47.512497" lon="7.658661">
        <ele>352.125189</ele>
        <time>2021-11-14T18:25:11.386Z</time>
      </trkpt>
      <trkpt lat="47.512501" lon="7.658820">
        <ele>353.269872</ele>
        <time>2021-11-14T18:25:17.059Z</time>
      </trkpt>
      <trkpt lat="47.512353" lon="7.658944">
        <ele>355.081197</ele>
        <time>2021-11-14T18:25:26.548Z</time>
      </trkpt>
      <trkpt lat="47.511959" lon="7.659188">
        <ele>359.630199</ele>
        <time>2021-11-14T18:25:53.611Z</time>
      </trkpt>
      <trkpt lat="47.511733" lon="7.659346">
        <ele>362.292307</ele>
        <time>2021-11-14T18:26:10.681Z</time>
      </trkpt>
      <trkpt lat="47.511727" lon="7.659486">
        <ele>363.301546</ele>
        <time>2021-11-14T18:26:18.309Z</time>
      </trkpt>
      <trkpt lat="47.511770" lon="7.659882">
        <ele>367.155092</ele>
        <time>2021-11-14T18:26:38.186Z</time>
      </trkpt>
      <trkpt lat="47.511762" lon="7.660042">
        <ele>368.931877</ele>
        <time>2021-11-14T18:26:47.221Z</time>
      </trkpt>
      <trkpt lat="47.511659" lon="7.660351">
        <ele>372.747966</ele>
        <time>2021-11-14T18:27:05.689Z</time>
      </trkpt>
      <trkpt lat="47.511534" lon="7.660808">
        <ele>378.208312</ele>
        <time>2021-11-14T18:27:32.233Z</time>
      </trkpt>
      <trkpt lat="47.511383" lon="7.661372">
        <ele>384.927212</ele>
        <time>2021-11-14T18:28:07.746Z</time>
      </trkpt>
      <trkpt lat="47.511171" lon="7.662330">
        <ele>395.713596</ele>
        <time>2021-11-14T18:29:06.125Z</time>
      </trkpt>
      <trkpt lat="47.511036" lon="7.663302">
        <ele>404.822030</ele>
        <time>2021-11-14T18:29:55.125Z</time>
      </trkpt>
      <trkpt lat="47.511026" lon="7.663371">
        <ele>405.469781</ele>
        <time>2021-11-14T18:30:00.188Z</time>
      </trkpt>
      <trkpt lat="47.510856" lon="7.664867">
        <ele>419.166539</ele>
        <time>2021-11-14T18:31:03.160Z</time>
      </trkpt>
      <trkpt lat="47.510474" lon="7.666465">
        <ele>431.411415</ele>
        <time>2021-11-14T18:32:06.787Z</time>
      </trkpt>
      <trkpt lat="47.510298" lon="7.667520">
        <ele>439.151183</ele>
        <time>2021-11-14T18:32:51.520Z</time>
      </trkpt>
      <trkpt lat="47.509793" lon="7.668697">
        <ele>448.571294</ele>
        <time>2021-11-14T18:33:42.340Z</time>
      </trkpt>
      <trkpt lat="47.509771" lon="7.668816">
        <ele>449.404804</ele>
        <time>2021-11-14T18:33:48.660Z</time>
      </trkpt>
      <trkpt lat="47.509723" lon="7.669074">
        <ele>451.212712</ele>
        <time>2021-11-14T18:33:56.771Z</time>
      </trkpt>
      <trkpt lat="47.509624" lon="7.670171">
        <ele>458.716891</ele>
        <time>2021-11-14T18:34:35.674Z</time>
      </trkpt>
      <trkpt lat="47.509726" lon="7.671680">
        <ele>469.051065</ele>
        <time>2021-11-14T18:35:31.639Z</time>
      </trkpt>
      <trkpt lat="47.509697" lon="7.671879">
        <ele>470.438316</ele>
        <time>2021-11-14T18:35:41.657Z</time>
      </trkpt>
      <trkpt lat="47.509547" lon="7.672123">
        <ele>472.686534</ele>
        <time>2021-11-14T18:35:53.444Z</time>
      </trkpt>
      <trkpt lat="47.509315" lon="7.672132">
        <ele>474.814993</ele>
        <time>2021-11-14T18:36:07.151Z</time>
      </trkpt>
      <trkpt lat="47.508783" lon="7.671376">
        <ele>481.065851</ele>
        <time>2021-11-14T18:36:47.636Z</time>
      </trkpt>
      <trkpt lat="47.508439" lon="7.670868">
        <ele>485.184498</ele>
        <time>2021-11-14T18:37:11.619Z</time>
      </trkpt>
      <trkpt lat="47.508400" lon="7.670630">
        <ele>486.586762</ele>
        <time>2021-11-14T18:37:17.593Z</time>
      </trkpt>
      <trkpt lat="47.508334" lon="7.668961">
        <ele>492.464421</ele>
        <time>2021-11-14T18:37:58.110Z</time>
      </trkpt>
      <trkpt lat="47.508311" lon="7.668787">
        <ele>492.959873</ele>
        <time>2021-11-14T18:38:01.246Z</time>
      </trkpt>
      <trkpt lat="47.508285" lon="7.668641">
        <ele>493.381800</ele>
        <time>2021-11-14T18:38:02.643Z</time>
      </trkpt>
      <trkpt lat="47.508251" lon="7.668646">
        <ele>493.523148</ele>
        <time>2021-11-14T18:38:03.560Z</time>
      </trkpt>
      <trkpt lat="47.508215" lon="7.668664">
        <ele>493.680342</ele>
        <time>2021-11-14T18:38:04.566Z</time>
      </trkpt>
      <trkpt lat="47.508195" lon="7.668698">
        <ele>493.806329</ele>
        <time>2021-11-14T18:38:05.722Z</time>
      </trkpt>
      <trkpt lat="47.508096" lon="7.668696">
        <ele>494.215924</ele>
        <time>2021-11-14T18:38:07.840Z</time>
      </trkpt>
      <trkpt lat="47.507055" lon="7.668067">
        <ele>500.138649</ele>
        <time>2021-11-14T18:38:39.781Z</time>
      </trkpt>
      <trkpt lat="47.506716" lon="7.667934">
        <ele>502.331850</ele>
        <time>2021-11-14T18:38:53.185Z</time>
      </trkpt>
      <trkpt lat="47.506336" lon="7.667946">
        <ele>504.708808</ele>
        <time>2021-11-14T18:39:11.874Z</time>
      </trkpt>
      <trkpt lat="47.505893" lon="7.667768">
        <ele>507.579447</ele>
        <time>2021-11-14T18:39:36.405Z</time>
      </trkpt>
      <trkpt lat="47.505709" lon="7.667844">
        <ele>509.334778</ele>
        <time>2021-11-14T18:39:43.315Z</time>
      </trkpt>
      <trkpt lat="47.505364" lon="7.668163">
        <ele>513.126459</ele>
        <time>2021-11-14T18:40:02.061Z</time>
      </trkpt>
      <trkpt lat="47.505295" lon="7.668259">
        <ele>514.009124</ele>
        <time>2021-11-14T18:40:07.704Z</time>
      </trkpt>
      <trkpt lat="47.505273" lon="7.668282">
        <ele>514.260181</ele>
        <time>2021-11-14T18:40:10.533Z</time>
      </trkpt>
      <trkpt lat="47.505003" lon="7.668423">
        <ele>516.928990</ele>
        <time>2021-11-14T18:40:23.655Z</time>
      </trkpt>
      <trkpt lat="47.504784" lon="7.668451">
        <ele>518.977989</ele>
        <time>2021-11-14T18:40:36.111Z</time>
      </trkpt>
      <trkpt lat="47.503852" lon="7.668457">
        <ele>527.902746</ele>
        <time>2021-11-14T18:41:29.219Z</time>
      </trkpt>
      <trkpt lat="47.503644" lon="7.668446">
        <ele>529.983564</ele>
        <time>2021-11-14T18:41:38.919Z</time>
      </trkpt>
      <trkpt lat="47.503078" lon="7.668512">
        <ele>535.659710</ele>
        <time>2021-11-14T18:42:11.098Z</time>
      </trkpt>
      <trkpt lat="47.502894" lon="7.668475">
        <ele>537.516156</ele>
        <time>2021-11-14T18:42:19.956Z</time>
      </trkpt>
      <trkpt lat="47.502567" lon="7.667896">
        <ele>542.579578</ele>
        <time>2021-11-14T18:42:50.124Z</time>
      </trkpt>
      <trkpt lat="47.502382" lon="7.667723">
        <ele>544.453180</ele>
        <time>2021-11-14T18:43:00.364Z</time>
      </trkpt>
      <trkpt lat="47.502331" lon="7.667705">
        <ele>544.902090</ele>
        <time>2021-11-14T18:43:04.467Z</time>
      </trkpt>
      <trkpt lat="47.502292" lon="7.667688">
        <ele>545.250191</ele>
        <time>2021-11-14T18:43:07.547Z</time>
      </trkpt>
      <trkpt lat="47.502151" lon="7.667642">
        <ele>546.486426</ele>
        <time>2021-11-14T18:43:13.300Z</time>
      </trkpt>
      <trkpt lat="47.502006" lon="7.667624">
        <ele>547.732294</ele>
        <time>2021-11-14T18:43:20.332Z</time>
      </trkpt>
      <trkpt lat="47.501882" lon="7.667549">
        <ele>548.879212</ele>
        <time>2021-11-14T18:43:28.277Z</time>
      </trkpt>
      <trkpt lat="47.501738" lon="7.667367">
        <ele>550.500454</ele>
        <time>2021-11-14T18:43:35.240Z</time>
      </trkpt>
      <trkpt lat="47.501725" lon="7.667123">
        <ele>551.916208</ele>
        <time>2021-11-14T18:43:44.808Z</time>
      </trkpt>
      <trkpt lat="47.502047" lon="7.666538">
        <ele>556.280984</ele>
        <time>2021-11-14T18:44:06.995Z</time>
      </trkpt>
      <trkpt lat="47.502211" lon="7.666089">
        <ele>559.200854</ele>
        <time>2021-11-14T18:44:23.337Z</time>
      </trkpt>
      <trkpt lat="47.502398" lon="7.665168">
        <ele>564.638983</ele>
        <time>2021-11-14T18:44:54.691Z</time>
      </trkpt>
      <trkpt lat="47.502680" lon="7.664603">
        <ele>568.611277</ele>
        <time>2021-11-14T18:45:16.040Z</time>
      </trkpt>
      <trkpt lat="47.502656" lon="7.664371">
        <ele>569.938454</ele>
        <time>2021-11-14T18:45:23.523Z</time>
      </trkpt>
      <trkpt lat="47.502470" lon="7.664143">
        <ele>571.959874</ele>
        <time>2021-11-14T18:45:35.902Z</time>
      </trkpt>
      <trkpt lat="47.502341" lon="7.664057">
        <ele>573.123799</ele>
        <time>2021-11-14T18:45:43.989Z</time>
      </trkpt>
      <trkpt lat="47.502215" lon="7.663950">
        <ele>574.259877</ele>
        <time>2021-11-14T18:45:52.513Z</time>
      </trkpt>
      <trkpt lat="47.502113" lon="7.663831">
        <ele>575.275594</ele>
        <time>2021-11-14T18:45:58.970Z</time>
      </trkpt>
      <trkpt lat="47.501982" lon="7.663470">
        <ele>577.440688</ele>
        <time>2021-11-14T18:46:14.109Z</time>
      </trkpt>
      <trkpt lat="47.501929" lon="7.662724">
        <ele>581.403923</ele>
        <time>2021-11-14T18:46:40.041Z</time>
      </trkpt>
      <trkpt lat="47.501880" lon="7.662547">
        <ele>582.414579</ele>
        <time>2021-11-14T18:46:46.474Z</time>
      </trkpt>
      <trkpt lat="47.501814" lon="7.662406">
        <ele>583.320906</ele>
        <time>2021-11-14T18:46:50.754Z</time>
      </trkpt>
      <trkpt lat="47.501739" lon="7.662303">
        <ele>584.121042</ele>
        <time>2021-11-14T18:46:55.584Z</time>
      </trkpt>
      <trkpt lat="47.501540" lon="7.662165">
        <ele>585.839724</ele>
        <time>2021-11-14T18:47:04.809Z</time>
      </trkpt>
      <trkpt lat="47.501427" lon="7.662094">
        <ele>586.799805</ele>
        <time>2021-11-14T18:47:08.338Z</time>
      </trkpt>
      <trkpt lat="47.501357" lon="7.661880">
        <ele>587.448180</ele>
        <time>2021-11-14T18:47:12.438Z</time>
      </trkpt>
      <trkpt lat="47.501296" lon="7.661615">
        <ele>588.148468</ele>
        <time>2021-11-14T18:47:17.283Z</time>
      </trkpt>
      <trkpt lat="47.501272" lon="7.661516">
        <ele>588.411566</ele>
        <time>2021-11-14T18:47:19.098Z</time>
      </trkpt>
      <trkpt lat="47.501255" lon="7.661462">
        <ele>588.560587</ele>
        <time>2021-11-14T18:47:20.241Z</time>
      </trkpt>
      <trkpt lat="47.501224" lon="7.661406">
        <ele>588.741684</ele>
        <time>2021-11-14T18:47:21.490Z</time>
      </trkpt>
      <trkpt lat="47.501172" lon="7.661341">
        <ele>588.993687</ele>
        <time>2021-11-14T18:47:23.082Z</time>
      </trkpt>
      <trkpt lat="47.501134" lon="7.661306">
        <ele>589.159400</ele>
        <time>2021-11-14T18:47:24.238Z</time>
      </trkpt>
      <trkpt lat="47.500892" lon="7.661159">
        <ele>590.127944</ele>
        <time>2021-11-14T18:47:32.742Z</time>
      </trkpt>
      <trkpt lat="47.500378" lon="7.660739">
        <ele>592.301806</ele>
        <time>2021-11-14T18:47:50.178Z</time>
      </trkpt>
      <trkpt lat="47.500168" lon="7.660591">
        <ele>593.162989</ele>
        <time>2021-11-14T18:47:55.362Z</time>
      </trkpt>
      <trkpt lat="47.499828" lon="7.660558">
        <ele>594.773981</ele>
        <time>2021-11-14T18:48:04.631Z</time>
      </trkpt>
      <trkpt lat="47.499384" lon="7.660566">
        <ele>597.083503</ele>
        <time>2021-11-14T18:48:18.525Z</time>
      </trkpt>
      <trkpt lat="47.498649" lon="7.660737">
        <ele>600.953352</ele>
        <time>2021-11-14T18:48:47.045Z</time>
      </trkpt>
      <trkpt lat="47.498450" lon="7.660673">
        <ele>602.012550</ele>
        <time>2021-11-14T18:48:56.277Z</time>
      </trkpt>
      <trkpt lat="47.498030" lon="7.660538">
        <ele>604.147844</ele>
        <time>2021-11-14T18:49:15.212Z</time>
      </trkpt>
      <trkpt lat="47.497005" lon="7.659684">
        <ele>609.805596</ele>
        <time>2021-11-14T18:49:55.768Z</time>
      </trkpt>
      <trkpt lat="47.496700" lon="7.659355">
        <ele>611.582946</ele>
        <time>2021-11-14T18:50:06.160Z</time>
      </trkpt>
      <trkpt lat="47.496419" lon="7.658896">
        <ele>612.149746</ele>
        <time>2021-11-14T18:50:16.806Z</time>
      </trkpt>
      <trkpt lat="47.495370" lon="7.658146">
        <ele>613.727589</ele>
        <time>2021-11-14T18:50:40.117Z</time>
      </trkpt>
      <trkpt lat="47.495295" lon="7.658106">
        <ele>613.835563</ele>
        <time>2021-11-14T18:50:41.524Z</time>
      </trkpt>
      <trkpt lat="47.495132" lon="7.658047">
        <ele>613.906229</ele>
        <time>2021-11-14T18:50:44.269Z</time>
      </trkpt>
      <trkpt lat="47.494878" lon="7.657874">
        <ele>613.274653</ele>
        <time>2021-11-14T18:50:47.424Z</time>
      </trkpt>
      <trkpt lat="47.493869" lon="7.656901">
        <ele>610.554415</ele>
        <time>2021-11-14T18:50:59.781Z</time>
      </trkpt>
      <trkpt lat="47.493727" lon="7.656848">
        <ele>610.223620</ele>
        <time>2021-11-14T18:51:01.215Z</time>
      </trkpt>
      <trkpt lat="47.493625" lon="7.656806">
        <ele>609.984470</ele>
        <time>2021-11-14T18:51:02.233Z</time>
      </trkpt>
      <trkpt lat="47.493454" lon="7.656654">
        <ele>609.800681</ele>
        <time>2021-11-14T18:51:04.465Z</time>
      </trkpt>
      <trkpt lat="47.493323" lon="7.656425">
        <ele>609.642594</ele>
        <time>2021-11-14T18:51:06.694Z</time>
      </trkpt>
      <trkpt lat="47.492960" lon="7.655784">
        <ele>609.201940</ele>
        <time>2021-11-14T18:51:13.389Z</time>
      </trkpt>
      <trkpt lat="47.492898" lon="7.656011">
        <ele>609.072938</ele>
        <time>2021-11-14T18:51:15.457Z</time>
      </trkpt>
      <trkpt lat="47.492834" lon="7.656127">
        <ele>608.994034</ele>
        <time>2021-11-14T18:51:16.754Z</time>
      </trkpt>
      <trkpt lat="47.492655" lon="7.656259">
        <ele>608.838090</ele>
        <time>2021-11-14T18:51:19.012Z</time>
      </trkpt>
      <trkpt lat="47.492368" lon="7.656441">
        <ele>608.594619</ele>
        <time>2021-11-14T18:51:25.001Z</time>
      </trkpt>
      <trkpt lat="47.492098" lon="7.656633">
        <ele>609.313560</ele>
        <time>2021-11-14T18:51:31.522Z</time>
      </trkpt>
      <trkpt lat="47.491848" lon="7.656926">
        <ele>610.397261</ele>
        <time>2021-11-14T18:51:40.102Z</time>
      </trkpt>
      <trkpt lat="47.491315" lon="7.657218">
        <ele>612.328661</ele>
        <time>2021-11-14T18:51:58.042Z</time>
      </trkpt>
      <trkpt lat="47.490868" lon="7.657356">
        <ele>613.880391</ele>
        <time>2021-11-14T18:52:13.109Z</time>
      </trkpt>
      <trkpt lat="47.490491" lon="7.657402">
        <ele>615.484557</ele>
        <time>2021-11-14T18:52:24.475Z</time>
      </trkpt>
      <trkpt lat="47.490095" lon="7.657387">
        <ele>617.664029</ele>
        <time>2021-11-14T18:52:36.582Z</time>
      </trkpt>
      <trkpt lat="47.489998" lon="7.657426">
        <ele>618.217059</ele>
        <time>2021-11-14T18:52:39.517Z</time>
      </trkpt>
      <trkpt lat="47.489839" lon="7.657570">
        <ele>619.242676</ele>
        <time>2021-11-14T18:52:46.182Z</time>
      </trkpt>
      <trkpt lat="47.489641" lon="7.657751">
        <ele>620.523130</ele>
        <time>2021-11-14T18:52:53.563Z</time>
      </trkpt>
      <trkpt lat="47.488222" lon="7.658466">
        <ele>630.850402</ele>
        <time>2021-11-14T18:53:59.415Z</time>
      </trkpt>
      <trkpt lat="47.488006" lon="7.658683">
        <ele>632.994179</ele>
        <time>2021-11-14T18:54:12.103Z</time>
      </trkpt>
      <trkpt lat="47.487823" lon="7.658963">
        <ele>635.155666</ele>
        <time>2021-11-14T18:54:25.628Z</time>
      </trkpt>
      <trkpt lat="47.487746" lon="7.659067">
        <ele>636.011707</ele>
        <time>2021-11-14T18:54:30.794Z</time>
      </trkpt>
      <trkpt lat="47.487696" lon="7.659164">
        <ele>636.688666</ele>
        <time>2021-11-14T18:54:35.631Z</time>
      </trkpt>
      <trkpt lat="47.487466" lon="7.659584">
        <ele>639.687506</ele>
        <time>2021-11-14T18:54:54.231Z</time>
      </trkpt>
      <trkpt lat="47.487708" lon="7.660023">
        <ele>642.823717</ele>
        <time>2021-11-14T18:55:13.612Z</time>
      </trkpt>
      <trkpt lat="47.487727" lon="7.660149">
        <ele>643.538368</ele>
        <time>2021-11-14T18:55:17.739Z</time>
      </trkpt>
      <trkpt lat="47.487727" lon="7.660396">
        <ele>644.905681</ele>
        <time>2021-11-14T18:55:26.360Z</time>
      </trkpt>
      <trkpt lat="47.487791" lon="7.660726">
        <ele>646.806200</ele>
        <time>2021-11-14T18:55:38.388Z</time>
      </trkpt>
      <trkpt lat="47.488398" lon="7.662127">
        <ele>655.803265</ele>
        <time>2021-11-14T18:56:27.595Z</time>
      </trkpt>
      <trkpt lat="47.488562" lon="7.662648">
        <ele>658.636365</ele>
        <time>2021-11-14T18:56:45.740Z</time>
      </trkpt>
      <trkpt lat="47.488788" lon="7.663703">
        <ele>664.091743</ele>
        <time>2021-11-14T18:57:18.844Z</time>
      </trkpt>
      <trkpt lat="47.488770" lon="7.663949">
        <ele>665.311415</ele>
        <time>2021-11-14T18:57:25.933Z</time>
      </trkpt>
      <trkpt lat="47.488654" lon="7.664239">
        <ele>666.972558</ele>
        <time>2021-11-14T18:57:35.521Z</time>
      </trkpt>
      <trkpt lat="47.488619" lon="7.664308">
        <ele>667.361344</ele>
        <time>2021-11-14T18:57:38.734Z</time>
      </trkpt>
      <trkpt lat="47.488583" lon="7.664379">
        <ele>667.728404</ele>
        <time>2021-11-14T18:57:40.820Z</time>
      </trkpt>
      <trkpt lat="47.488568" lon="7.664426">
        <ele>667.943344</ele>
        <time>2021-11-14T18:57:41.942Z</time>
      </trkpt>
      <trkpt lat="47.488554" lon="7.664485">
        <ele>668.201925</ele>
        <time>2021-11-14T18:57:43.474Z</time>
      </trkpt>
      <trkpt lat="47.488545" lon="7.664580">
        <ele>668.598610</ele>
        <time>2021-11-14T18:57:47.364Z</time>
      </trkpt>
      <trkpt lat="47.488490" lon="7.665159">
        <ele>671.016426</ele>
        <time>2021-11-14T18:58:03.169Z</time>
      </trkpt>
      <trkpt lat="47.488064" lon="7.665788">
        <ele>674.699013</ele>
        <time>2021-11-14T18:58:27.080Z</time>
      </trkpt>
      <trkpt lat="47.487374" lon="7.666070">
        <ele>678.979090</ele>
        <time>2021-11-14T18:58:53.833Z</time>
      </trkpt>
      <trkpt lat="47.487095" lon="7.666096">
        <ele>680.499161</ele>
        <time>2021-11-14T18:59:01.925Z</time>
      </trkpt>
      <trkpt lat="47.487040" lon="7.666069">
        <ele>680.814250</ele>
        <time>2021-11-14T18:59:04.050Z</time>
      </trkpt>
      <trkpt lat="47.486993" lon="7.666016">
        <ele>681.135557</ele>
        <time>2021-11-14T18:59:06.280Z</time>
      </trkpt>
      <trkpt lat="47.486777" lon="7.665741">
        <ele>682.684916</ele>
        <time>2021-11-14T18:59:17.160Z</time>
      </trkpt>
      <trkpt lat="47.486496" lon="7.665749">
        <ele>684.213139</ele>
        <time>2021-11-14T18:59:27.090Z</time>
      </trkpt>
      <trkpt lat="47.486336" lon="7.665642">
        <ele>685.167857</ele>
        <time>2021-11-14T18:59:34.169Z</time>
      </trkpt>
      <trkpt lat="47.485979" lon="7.664993">
        <ele>688.239269</ele>
        <time>2021-11-14T18:59:55.499Z</time>
      </trkpt>
      <trkpt lat="47.485810" lon="7.664592">
        <ele>689.954285</ele>
        <time>2021-11-14T19:00:06.613Z</time>
      </trkpt>
      <trkpt lat="47.485784" lon="7.664530">
        <ele>690.219082</ele>
        <time>2021-11-14T19:00:09.785Z</time>
      </trkpt>
      <trkpt lat="47.485656" lon="7.664426">
        <ele>691.003251</ele>
        <time>2021-11-14T19:00:14.529Z</time>
      </trkpt>
      <trkpt lat="47.485138" lon="7.664477">
        <ele>693.791110</ele>
        <time>2021-11-14T19:00:33.074Z</time>
      </trkpt>
      <trkpt lat="47.484870" lon="7.664431">
        <ele>695.239944</ele>
        <time>2021-11-14T19:00:43.565Z</time>
      </trkpt>
      <trkpt lat="47.484767" lon="7.664543">
        <ele>695.926343</ele>
        <time>2021-11-14T19:00:48.764Z</time>
      </trkpt>
      <trkpt lat="47.484557" lon="7.664979">
        <ele>697.802516</ele>
        <time>2021-11-14T19:01:02.179Z</time>
      </trkpt>
      <trkpt lat="47.484447" lon="7.664992">
        <ele>698.238057</ele>
        <time>2021-11-14T19:01:05.831Z</time>
      </trkpt>
      <trkpt lat="47.484129" lon="7.663998">
        <ele>701.171415</ele>
        <time>2021-11-14T19:01:26.685Z</time>
      </trkpt>
      <trkpt lat="47.483410" lon="7.662800">
        <ele>705.761927</ele>
        <time>2021-11-14T19:01:58.413Z</time>
      </trkpt>
      <trkpt lat="47.483387" lon="7.662711">
        <ele>706.126579</ele>
        <time>2021-11-14T19:02:00.986Z</time>
      </trkpt>
      <trkpt lat="47.483385" lon="7.662632">
        <ele>706.429121</ele>
        <time>2021-11-14T19:02:02.364Z</time>
      </trkpt>
      <trkpt lat="47.483510" lon="7.661814">
        <ele>709.638597</ele>
        <time>2021-11-14T19:02:21.737Z</time>
      </trkpt>
      <trkpt lat="47.483499" lon="7.661747">
        <ele>709.902460</ele>
        <time>2021-11-14T19:02:23.274Z</time>
      </trkpt>
      <trkpt lat="47.483475" lon="7.661696">
        <ele>710.140292</ele>
        <time>2021-11-14T19:02:25.190Z</time>
      </trkpt>
      <trkpt lat="47.483446" lon="7.661648">
        <ele>710.386690</ele>
        <time>2021-11-14T19:02:26.603Z</time>
      </trkpt>
      <trkpt lat="47.483407" lon="7.661609">
        <ele>710.653243</ele>
        <time>2021-11-14T19:02:28.153Z</time>
      </trkpt>
      <trkpt lat="47.483337" lon="7.661573">
        <ele>711.072899</ele>
        <time>2021-11-14T19:02:31.625Z</time>
      </trkpt>
      <trkpt lat="47.482820" lon="7.661376">
        <ele>714.096088</ele>
        <time>2021-11-14T19:02:52.850Z</time>
      </trkpt>
      <trkpt lat="47.481650" lon="7.660270">
        <ele>723.756080</ele>
        <time>2021-11-14T19:04:00.220Z</time>
      </trkpt>
      <trkpt lat="47.481441" lon="7.660134">
        <ele>725.378408</ele>
        <time>2021-11-14T19:04:10.434Z</time>
      </trkpt>
      <trkpt lat="47.480947" lon="7.659840">
        <ele>727.076049</ele>
        <time>2021-11-14T19:04:28.051Z</time>
      </trkpt>
      <trkpt lat="47.480453" lon="7.659599">
        <ele>725.562700</ele>
        <time>2021-11-14T19:04:42.076Z</time>
      </trkpt>
      <trkpt lat="47.479804" lon="7.659052">
        <ele>723.389649</ele>
        <time>2021-11-14T19:04:49.199Z</time>
      </trkpt>
      <trkpt lat="47.479124" lon="7.658616">
        <ele>716.849963</ele>
        <time>2021-11-14T19:04:55.480Z</time>
      </trkpt>
      <trkpt lat="47.479069" lon="7.658557">
        <ele>715.939541</ele>
        <time>2021-11-14T19:04:56.039Z</time>
      </trkpt>
      <trkpt lat="47.479037" lon="7.658508">
        <ele>715.322381</ele>
        <time>2021-11-14T19:04:56.412Z</time>
      </trkpt>
      <trkpt lat="47.478885" lon="7.658127">
        <ele>711.315091</ele>
        <time>2021-11-14T19:04:58.957Z</time>
      </trkpt>
      <trkpt lat="47.478869" lon="7.658105">
        <ele>711.022371</ele>
        <time>2021-11-14T19:04:59.140Z</time>
      </trkpt>
      <trkpt lat="47.478855" lon="7.658094">
        <ele>710.809937</ele>
        <time>2021-11-14T19:04:59.270Z</time>
      </trkpt>
      <trkpt lat="47.478819" lon="7.658086">
        <ele>710.322072</ele>
        <time>2021-11-14T19:04:59.573Z</time>
      </trkpt>
      <trkpt lat="47.478630" lon="7.658136">
        <ele>707.749019</ele>
        <time>2021-11-14T19:05:01.283Z</time>
      </trkpt>
      <trkpt lat="47.478528" lon="7.658207">
        <ele>706.238348</ele>
        <time>2021-11-14T19:05:02.203Z</time>
      </trkpt>
      <trkpt lat="47.478399" lon="7.658328">
        <ele>704.191427</ele>
        <time>2021-11-14T19:05:03.477Z</time>
      </trkpt>
      <trkpt lat="47.478311" lon="7.658423">
        <ele>702.731549</ele>
        <time>2021-11-14T19:05:04.430Z</time>
      </trkpt>
      <trkpt lat="47.478222" lon="7.658520">
        <ele>701.250150</ele>
        <time>2021-11-14T19:05:05.326Z</time>
      </trkpt>
      <trkpt lat="47.477975" lon="7.658805">
        <ele>697.431153</ele>
        <time>2021-11-14T19:05:07.965Z</time>
      </trkpt>
      <trkpt lat="47.477714" lon="7.659073">
        <ele>694.421575</ele>
        <time>2021-11-14T19:05:10.617Z</time>
      </trkpt>
      <trkpt lat="47.477346" lon="7.659332">
        <ele>690.561141</ele>
        <time>2021-11-14T19:05:14.080Z</time>
      </trkpt>
      <trkpt lat="47.477220" lon="7.659353">
        <ele>689.359976</ele>
        <time>2021-11-14T19:05:15.196Z</time>
      </trkpt>
      <trkpt lat="47.477160" lon="7.659316">
        <ele>688.744195</ele>
        <time>2021-11-14T19:05:15.744Z</time>
      </trkpt>
      <trkpt lat="47.477138" lon="7.659290">
        <ele>688.477461</ele>
        <time>2021-11-14T19:05:16.093Z</time>
      </trkpt>
      <trkpt lat="47.477102" lon="7.659181">
        <ele>687.700693</ele>
        <time>2021-11-14T19:05:17.135Z</time>
      </trkpt>
      <trkpt lat="47.477066" lon="7.659026">
        <ele>686.651306</ele>
        <time>2021-11-14T19:05:18.522Z</time>
      </trkpt>
      <trkpt lat="47.477025" lon="7.658869">
        <ele>685.573648</ele>
        <time>2021-11-14T19:05:19.959Z</time>
      </trkpt>
      <trkpt lat="47.476937" lon="7.658689">
        <ele>684.151256</ele>
        <time>2021-11-14T19:05:21.908Z</time>
      </trkpt>
      <trkpt lat="47.476789" lon="7.658596">
        <ele>682.628021</ele>
        <time>2021-11-14T19:05:24.159Z</time>
      </trkpt>
      <trkpt lat="47.476684" lon="7.658598">
        <ele>681.633260</ele>
        <time>2021-11-14T19:05:25.485Z</time>
      </trkpt>
      <trkpt lat="47.476609" lon="7.658624">
        <ele>681.298062</ele>
        <time>2021-11-14T19:05:26.568Z</time>
      </trkpt>
      <trkpt lat="47.476280" lon="7.658852">
        <ele>681.232684</ele>
        <time>2021-11-14T19:05:31.876Z</time>
      </trkpt>
      <trkpt lat="47.476193" lon="7.658883">
        <ele>681.216580</ele>
        <time>2021-11-14T19:05:33.304Z</time>
      </trkpt>
      <trkpt lat="47.476158" lon="7.658895">
        <ele>681.210115</ele>
        <time>2021-11-14T19:05:33.869Z</time>
      </trkpt>
      <trkpt lat="47.476012" lon="7.658932">
        <ele>681.183459</ele>
        <time>2021-11-14T19:05:36.013Z</time>
      </trkpt>
      <trkpt lat="47.475631" lon="7.658882">
        <ele>681.114627</ele>
        <time>2021-11-14T19:05:43.890Z</time>
      </trkpt>
      <trkpt lat="47.475506" lon="7.658879">
        <ele>681.092129</ele>
        <time>2021-11-14T19:05:46.771Z</time>
      </trkpt>
      <trkpt lat="47.475518" lon="7.658963">
        <ele>681.081686</ele>
        <time>2021-11-14T19:05:49.506Z</time>
      </trkpt>
      <trkpt lat="47.475526" lon="7.659520">
        <ele>681.013922</ele>
        <time>2021-11-14T19:05:59.072Z</time>
      </trkpt>
      <trkpt lat="47.475550" lon="7.659903">
        <ele>681.461594</ele>
        <time>2021-11-14T19:06:05.646Z</time>
      </trkpt>
      <trkpt lat="47.475587" lon="7.660335">
        <ele>683.167462</ele>
        <time>2021-11-14T19:06:15.658Z</time>
      </trkpt>
      <trkpt lat="47.475584" lon="7.660431">
        <ele>683.543938</ele>
        <time>2021-11-14T19:06:17.281Z</time>
      </trkpt>
      <trkpt lat="47.475563" lon="7.660517">
        <ele>683.902150</ele>
        <time>2021-11-14T19:06:20.768Z</time>
      </trkpt>
      <trkpt lat="47.475453" lon="7.660952">
        <ele>685.721596</ele>
        <time>2021-11-14T19:06:31.596Z</time>
      </trkpt>
      <trkpt lat="47.475431" lon="7.661038">
        <ele>686.081819</ele>
        <time>2021-11-14T19:06:35.806Z</time>
      </trkpt>
      <trkpt lat="47.475081" lon="7.662263">
        <ele>691.291848</ele>
        <time>2021-11-14T19:07:13.322Z</time>
      </trkpt>
      <trkpt lat="47.475047" lon="7.662513">
        <ele>692.059535</ele>
        <time>2021-11-14T19:07:21.115Z</time>
      </trkpt>
      <trkpt lat="47.474989" lon="7.663216">
        <ele>694.108121</ele>
        <time>2021-11-14T19:07:39.498Z</time>
      </trkpt>
      <trkpt lat="47.474967" lon="7.663452">
        <ele>694.797236</ele>
        <time>2021-11-14T19:07:44.384Z</time>
      </trkpt>
      <trkpt lat="47.474918" lon="7.664070">
        <ele>696.597119</ele>
        <time>2021-11-14T19:07:56.728Z</time>
      </trkpt>
      <trkpt lat="47.474914" lon="7.664128">
        <ele>696.765761</ele>
        <time>2021-11-14T19:07:57.870Z</time>
      </trkpt>
      <trkpt lat="47.474908" lon="7.664389">
        <ele>697.521166</ele>
        <time>2021-11-14T19:08:03.001Z</time>
      </trkpt>
      <trkpt lat="47.474938" lon="7.664777">
        <ele>698.650813</ele>
        <time>2021-11-14T19:08:10.075Z</time>
      </trkpt>
      <trkpt lat="47.474976" lon="7.665188">
        <ele>699.274299</ele>
        <time>2021-11-14T19:08:16.956Z</time>
      </trkpt>
      <trkpt lat="47.475004" lon="7.665440">
        <ele>699.442716</ele>
        <time>2021-11-14T19:08:20.794Z</time>
      </trkpt>
      <trkpt lat="47.475154" lon="7.667130">
        <ele>700.566783</ele>
        <time>2021-11-14T19:08:39.762Z</time>
      </trkpt>
      <trkpt lat="47.475210" lon="7.667403">
        <ele>700.754925</ele>
        <time>2021-11-14T19:08:43.056Z</time>
      </trkpt>
      <trkpt lat="47.475439" lon="7.668006">
        <ele>701.183150</ele>
        <time>2021-11-14T19:08:50.952Z</time>
      </trkpt>
      <trkpt lat="47.475468" lon="7.668205">
        <ele>701.306761</ele>
        <time>2021-11-14T19:08:53.017Z</time>
      </trkpt>
      <trkpt lat="47.475458" lon="7.668347">
        <ele>701.393450</ele>
        <time>2021-11-14T19:08:55.041Z</time>
      </trkpt>
      <trkpt lat="47.475322" lon="7.668778">
        <ele>701.682270</ele>
        <time>2021-11-14T19:09:00.846Z</time>
      </trkpt>
      <trkpt lat="47.475203" lon="7.669120">
        <ele>701.915837</ele>
        <time>2021-11-14T19:09:05.713Z</time>
      </trkpt>
      <trkpt lat="47.475076" lon="7.669403">
        <ele>702.122103</ele>
        <time>2021-11-14T19:09:10.443Z</time>
      </trkpt>
      <trkpt lat="47.475034" lon="7.670257">
        <ele>702.463003</ele>
        <time>2021-11-14T19:09:21.700Z</time>
      </trkpt>
      <trkpt lat="47.474747" lon="7.671110">
        <ele>702.422271</ele>
        <time>2021-11-14T19:09:34.536Z</time>
      </trkpt>
      <trkpt lat="47.474722" lon="7.671735">
        <ele>702.395507</ele>
        <time>2021-11-14T19:09:41.461Z</time>
      </trkpt>
      <trkpt lat="47.474799" lon="7.672866">
        <ele>701.005176</ele>
        <time>2021-11-14T19:09:50.264Z</time>
      </trkpt>
      <trkpt lat="47.475051" lon="7.674031">
        <ele>695.980241</ele>
        <time>2021-11-14T19:09:58.099Z</time>
      </trkpt>
      <trkpt lat="47.475114" lon="7.675260">
        <ele>690.487662</ele>
        <time>2021-11-14T19:10:05.389Z</time>
      </trkpt>
      <trkpt lat="47.475491" lon="7.676931">
        <ele>677.186567</ele>
        <time>2021-11-14T19:10:15.482Z</time>
      </trkpt>
      <trkpt lat="47.475542" lon="7.678222">
        <ele>668.135716</ele>
        <time>2021-11-14T19:10:22.891Z</time>
      </trkpt>
      <trkpt lat="47.475398" lon="7.678674">
        <ele>665.050345</ele>
        <time>2021-11-14T19:10:25.813Z</time>
      </trkpt>
      <trkpt lat="47.475390" lon="7.678824">
        <ele>664.121285</ele>
        <time>2021-11-14T19:10:26.706Z</time>
      </trkpt>
      <trkpt lat="47.475518" lon="7.678981">
        <ele>662.602400</ele>
        <time>2021-11-14T19:10:28.209Z</time>
      </trkpt>
      <trkpt lat="47.475600" lon="7.678953">
        <ele>661.833622</ele>
        <time>2021-11-14T19:10:28.983Z</time>
      </trkpt>
      <trkpt lat="47.475664" lon="7.678843">
        <ele>660.937449</ele>
        <time>2021-11-14T19:10:29.834Z</time>
      </trkpt>
      <trkpt lat="47.475701" lon="7.678183">
        <ele>656.848282</ele>
        <time>2021-11-14T19:10:33.845Z</time>
      </trkpt>
      <trkpt lat="47.475901" lon="7.677182">
        <ele>649.837120</ele>
        <time>2021-11-14T19:10:39.928Z</time>
      </trkpt>
      <trkpt lat="47.475943" lon="7.676911">
        <ele>647.904585</ele>
        <time>2021-11-14T19:10:41.741Z</time>
      </trkpt>
      <trkpt lat="47.475963" lon="7.676500">
        <ele>645.040438</ele>
        <time>2021-11-14T19:10:44.107Z</time>
      </trkpt>
      <trkpt lat="47.475984" lon="7.676078">
        <ele>642.099288</ele>
        <time>2021-11-14T19:10:46.549Z</time>
      </trkpt>
      <trkpt lat="47.476031" lon="7.675961">
        <ele>641.153263</ele>
        <time>2021-11-14T19:10:47.420Z</time>
      </trkpt>
      <trkpt lat="47.476118" lon="7.675908">
        <ele>640.185708</ele>
        <time>2021-11-14T19:10:48.305Z</time>
      </trkpt>
      <trkpt lat="47.476161" lon="7.675909">
        <ele>639.743455</ele>
        <time>2021-11-14T19:10:48.655Z</time>
      </trkpt>
      <trkpt lat="47.476199" lon="7.675929">
        <ele>639.328685</ele>
        <time>2021-11-14T19:10:48.984Z</time>
      </trkpt>
      <trkpt lat="47.476310" lon="7.676111">
        <ele>637.624781</ele>
        <time>2021-11-14T19:10:50.474Z</time>
      </trkpt>
      <trkpt lat="47.476555" lon="7.677002">
        <ele>629.066951</ele>
        <time>2021-11-14T19:10:55.879Z</time>
      </trkpt>
      <trkpt lat="47.476951" lon="7.677630">
        <ele>621.054593</ele>
        <time>2021-11-14T19:11:00.724Z</time>
      </trkpt>
      <trkpt lat="47.477084" lon="7.677944">
        <ele>617.597632</ele>
        <time>2021-11-14T19:11:02.803Z</time>
      </trkpt>
      <trkpt lat="47.477108" lon="7.678056">
        <ele>616.501541</ele>
        <time>2021-11-14T19:11:03.463Z</time>
      </trkpt>
      <trkpt lat="47.477122" lon="7.678158">
        <ele>615.530571</ele>
        <time>2021-11-14T19:11:04.061Z</time>
      </trkpt>
      <trkpt lat="47.477049" lon="7.679499">
        <ele>603.552836</ele>
        <time>2021-11-14T19:11:11.697Z</time>
      </trkpt>
      <trkpt lat="47.477163" lon="7.679826">
        <ele>600.348919</ele>
        <time>2021-11-14T19:11:13.801Z</time>
      </trkpt>
      <trkpt lat="47.477194" lon="7.679864">
        <ele>599.830264</ele>
        <time>2021-11-14T19:11:14.136Z</time>
      </trkpt>
      <trkpt lat="47.477253" lon="7.679912">
        <ele>598.962799</ele>
        <time>2021-11-14T19:11:14.694Z</time>
      </trkpt>
      <trkpt lat="47.477796" lon="7.680182">
        <ele>591.582543</ele>
        <time>2021-11-14T19:11:19.543Z</time>
      </trkpt>
      <trkpt lat="47.478096" lon="7.680541">
        <ele>586.472291</ele>
        <time>2021-11-14T19:11:22.810Z</time>
      </trkpt>
      <trkpt lat="47.479291" lon="7.682309">
        <ele>563.089690</ele>
        <time>2021-11-14T19:11:36.909Z</time>
      </trkpt>
      <trkpt lat="47.479404" lon="7.682470">
        <ele>561.291397</ele>
        <time>2021-11-14T19:11:38.197Z</time>
      </trkpt>
      <trkpt lat="47.479478" lon="7.682637">
        <ele>559.744265</ele>
        <time>2021-11-14T19:11:39.355Z</time>
      </trkpt>
      <trkpt lat="47.479501" lon="7.682927">
        <ele>557.482059</ele>
        <time>2021-11-14T19:11:40.987Z</time>
      </trkpt>
      <trkpt lat="47.479494" lon="7.682996">
        <ele>556.941489</ele>
        <time>2021-11-14T19:11:41.372Z</time>
      </trkpt>
      <trkpt lat="47.479471" lon="7.683068">
        <ele>556.324494</ele>
        <time>2021-11-14T19:11:41.858Z</time>
      </trkpt>
      <trkpt lat="47.479444" lon="7.683140">
        <ele>555.686557</ele>
        <time>2021-11-14T19:11:42.356Z</time>
      </trkpt>
      <trkpt lat="47.479383" lon="7.683246">
        <ele>554.607943</ele>
        <time>2021-11-14T19:11:43.144Z</time>
      </trkpt>
      <trkpt lat="47.479195" lon="7.683404">
        <ele>552.129444</ele>
        <time>2021-11-14T19:11:44.960Z</time>
      </trkpt>
      <trkpt lat="47.478683" lon="7.683516">
        <ele>546.196412</ele>
        <time>2021-11-14T19:11:49.400Z</time>
      </trkpt>
      <trkpt lat="47.478605" lon="7.683497">
        <ele>545.290235</ele>
        <time>2021-11-14T19:11:50.058Z</time>
      </trkpt>
      <trkpt lat="47.478551" lon="7.683474">
        <ele>544.646076</ele>
        <time>2021-11-14T19:11:50.539Z</time>
      </trkpt>
      <trkpt lat="47.477524" lon="7.682199">
        <ele>538.495370</ele>
        <time>2021-11-14T19:12:03.240Z</time>
      </trkpt>
      <trkpt lat="47.477381" lon="7.682137">
        <ele>537.949355</ele>
        <time>2021-11-14T19:12:04.810Z</time>
      </trkpt>
      <trkpt lat="47.477198" lon="7.682184">
        <ele>537.268778</ele>
        <time>2021-11-14T19:12:08.087Z</time>
      </trkpt>
      <trkpt lat="47.476365" lon="7.682915">
        <ele>536.196637</ele>
        <time>2021-11-14T19:12:24.920Z</time>
      </trkpt>
      <trkpt lat="47.476216" lon="7.683116">
        <ele>536.185260</ele>
        <time>2021-11-14T19:12:28.669Z</time>
      </trkpt>
      <trkpt lat="47.475984" lon="7.683839">
        <ele>536.154737</ele>
        <time>2021-11-14T19:12:37.455Z</time>
      </trkpt>
      <trkpt lat="47.475297" lon="7.685191">
        <ele>533.412045</ele>
        <time>2021-11-14T19:12:50.688Z</time>
      </trkpt>
      <trkpt lat="47.475226" lon="7.685478">
        <ele>532.685317</ele>
        <time>2021-11-14T19:12:52.740Z</time>
      </trkpt>
      <trkpt lat="47.475193" lon="7.685958">
        <ele>531.538043</ele>
        <time>2021-11-14T19:12:55.916Z</time>
      </trkpt>
      <trkpt lat="47.475248" lon="7.686688">
        <ele>529.773177</ele>
        <time>2021-11-14T19:13:00.527Z</time>
      </trkpt>
      <trkpt lat="47.475166" lon="7.687435">
        <ele>525.741740</ele>
        <time>2021-11-14T19:13:05.083Z</time>
      </trkpt>
      <trkpt lat="47.475073" lon="7.687905">
        <ele>523.132944</ele>
        <time>2021-11-14T19:13:07.979Z</time>
      </trkpt>
      <trkpt lat="47.474770" lon="7.688571">
        <ele>518.856287</ele>
        <time>2021-11-14T19:13:12.707Z</time>
      </trkpt>
      <trkpt lat="47.474112" lon="7.689422">
        <ele>512.665453</ele>
        <time>2021-11-14T19:13:20.428Z</time>
      </trkpt>
      <trkpt lat="47.474400" lon="7.689301">
        <ele>510.755090</ele>
        <time>2021-11-14T19:13:23.099Z</time>
      </trkpt>
      <trkpt lat="47.474820" lon="7.689301">
        <ele>508.075112</ele>
        <time>2021-11-14T19:13:26.932Z</time>
      </trkpt>
      <trkpt lat="47.475293" lon="7.688963">
        <ele>504.723334</ele>
        <time>2021-11-14T19:13:31.862Z</time>
      </trkpt>
      <trkpt lat="47.475661" lon="7.688555">
        <ele>502.635951</ele>
        <time>2021-11-14T19:13:36.322Z</time>
      </trkpt>
      <trkpt lat="47.476914" lon="7.686587">
        <ele>495.115395</ele>
        <time>2021-11-14T19:13:54.237Z</time>
      </trkpt>
      <trkpt lat="47.477018" lon="7.686423">
        <ele>494.478921</ele>
        <time>2021-11-14T19:13:55.711Z</time>
      </trkpt>
      <trkpt lat="47.477143" lon="7.686279">
        <ele>493.815537</ele>
        <time>2021-11-14T19:13:57.311Z</time>
      </trkpt>
      <trkpt lat="47.477296" lon="7.686073">
        <ele>492.949287</ele>
        <time>2021-11-14T19:14:03.192Z</time>
      </trkpt>
      <trkpt lat="47.477445" lon="7.685812">
        <ele>491.982361</ele>
        <time>2021-11-14T19:14:09.885Z</time>
      </trkpt>
      <trkpt lat="47.477626" lon="7.685726">
        <ele>491.186311</ele>
        <time>2021-11-14T19:14:15.065Z</time>
      </trkpt>
      <trkpt lat="47.478088" lon="7.685692">
        <ele>489.250306</ele>
        <time>2021-11-14T19:14:27.838Z</time>
      </trkpt>
      <trkpt lat="47.478224" lon="7.685948">
        <ele>488.469859</ele>
        <time>2021-11-14T19:14:33.854Z</time>
      </trkpt>
      <trkpt lat="47.478338" lon="7.686649">
        <ele>486.741734</ele>
        <time>2021-11-14T19:14:47.803Z</time>
      </trkpt>
      <trkpt lat="47.478541" lon="7.687725">
        <ele>484.064170</ele>
        <time>2021-11-14T19:15:10.307Z</time>
      </trkpt>
      <trkpt lat="47.478720" lon="7.688411">
        <ele>482.559171</ele>
        <time>2021-11-14T19:15:25.010Z</time>
      </trkpt>
      <trkpt lat="47.478920" lon="7.688897">
        <ele>481.805479</ele>
        <time>2021-11-14T19:15:36.620Z</time>
      </trkpt>
      <trkpt lat="47.479001" lon="7.689305">
        <ele>481.242216</ele>
        <time>2021-11-14T19:15:45.574Z</time>
      </trkpt>
      <trkpt lat="47.479081" lon="7.691268">
        <ele>478.770904</ele>
        <time>2021-11-14T19:16:29.480Z</time>
      </trkpt>
      <trkpt lat="47.479306" lon="7.692752">
        <ele>477.132765</ele>
        <time>2021-11-14T19:17:02.997Z</time>
      </trkpt>
      <trkpt lat="47.479556" lon="7.694296">
        <ele>475.238792</ele>
        <time>2021-11-14T19:17:19.713Z</time>
      </trkpt>
      <trkpt lat="47.479646" lon="7.695551">
        <ele>473.644332</ele>
        <time>2021-11-14T19:17:33.179Z</time>
      </trkpt>
      <trkpt lat="47.479908" lon="7.696383">
        <ele>473.215428</ele>
        <time>2021-11-14T19:17:43.470Z</time>
      </trkpt>
      <trkpt lat="47.479981" lon="7.697020">
        <ele>473.332903</ele>
        <time>2021-11-14T19:17:51.289Z</time>
      </trkpt>
      <trkpt lat="47.479995" lon="7.697729">
        <ele>473.461871</ele>
        <time>2021-11-14T19:18:01.477Z</time>
      </trkpt>
      <trkpt lat="47.479898" lon="7.698584">
        <ele>473.765201</ele>
        <time>2021-11-14T19:18:16.261Z</time>
      </trkpt>
      <trkpt lat="47.479727" lon="7.700545">
        <ele>478.445577</ele>
        <time>2021-11-14T19:19:04.557Z</time>
      </trkpt>
      <trkpt lat="47.479676" lon="7.700684">
        <ele>478.819965</ele>
        <time>2021-11-14T19:19:08.509Z</time>
      </trkpt>
      <trkpt lat="47.479579" lon="7.700879">
        <ele>479.393099</ele>
        <time>2021-11-14T19:19:14.739Z</time>
      </trkpt>
      <trkpt lat="47.479503" lon="7.701108">
        <ele>479.928092</ele>
        <time>2021-11-14T19:19:20.780Z</time>
      </trkpt>
      <trkpt lat="47.479480" lon="7.701177">
        <ele>479.970803</ele>
        <time>2021-11-14T19:19:22.472Z</time>
      </trkpt>
      <trkpt lat="47.479451" lon="7.701400">
        <ele>480.096874</ele>
        <time>2021-11-14T19:19:28.011Z</time>
      </trkpt>
      <trkpt lat="47.479487" lon="7.701698">
        <ele>480.264932</ele>
        <time>2021-11-14T19:19:34.407Z</time>
      </trkpt>
      <trkpt lat="47.479574" lon="7.702157">
        <ele>480.529579</ele>
        <time>2021-11-14T19:19:44.465Z</time>
      </trkpt>
      <trkpt lat="47.479697" lon="7.702857">
        <ele>480.931106</ele>
        <time>2021-11-14T19:19:57.313Z</time>
      </trkpt>
      <trkpt lat="47.479911" lon="7.704548">
        <ele>477.917106</ele>
        <time>2021-11-14T19:20:14.612Z</time>
      </trkpt>
      <trkpt lat="47.480044" lon="7.705631">
        <ele>473.694548</ele>
        <time>2021-11-14T19:20:24.135Z</time>
      </trkpt>
      <trkpt lat="47.480164" lon="7.706339">
        <ele>470.832737</ele>
        <time>2021-11-14T19:20:30.391Z</time>
      </trkpt>
      <trkpt lat="47.480277" lon="7.707004">
        <ele>467.624035</ele>
        <time>2021-11-14T19:20:36.216Z</time>
      </trkpt>
      <trkpt lat="47.480364" lon="7.707317">
        <ele>466.040328</ele>
        <time>2021-11-14T19:20:39.127Z</time>
      </trkpt>
      <trkpt lat="47.480491" lon="7.707714">
        <ele>463.984983</ele>
        <time>2021-11-14T19:20:42.915Z</time>
      </trkpt>
      <trkpt lat="47.480739" lon="7.708397">
        <ele>460.356855</ele>
        <time>2021-11-14T19:20:49.660Z</time>
      </trkpt>
      <trkpt lat="47.481029" lon="7.709271">
        <ele>456.638693</ele>
        <time>2021-11-14T19:20:58.416Z</time>
      </trkpt>
      <trkpt lat="47.481200" lon="7.709734">
        <ele>454.878033</ele>
        <time>2021-11-14T19:21:03.329Z</time>
      </trkpt>
      <trkpt lat="47.481460" lon="7.710447">
        <ele>452.174553</ele>
        <time>2021-11-14T19:21:10.867Z</time>
      </trkpt>
      <trkpt lat="47.481641" lon="7.710972">
        <ele>450.207884</ele>
        <time>2021-11-14T19:21:16.404Z</time>
      </trkpt>
      <trkpt lat="47.481788" lon="7.711431">
        <ele>448.406101</ele>
        <time>2021-11-14T19:21:21.020Z</time>
      </trkpt>
      <trkpt lat="47.482039" lon="7.712241">
        <ele>445.193319</ele>
        <time>2021-11-14T19:21:29.026Z</time>
      </trkpt>
      <trkpt lat="47.482242" lon="7.713106">
        <ele>441.891921</ele>
        <time>2021-11-14T19:21:37.217Z</time>
      </trkpt>
      <trkpt lat="47.482308" lon="7.713372">
        <ele>440.870282</ele>
        <time>2021-11-14T19:21:39.754Z</time>
      </trkpt>
      <trkpt lat="47.482416" lon="7.713774">
        <ele>439.830043</ele>
        <time>2021-11-14T19:21:43.669Z</time>
      </trkpt>
      <trkpt lat="47.482433" lon="7.713904">
        <ele>439.617994</ele>
        <time>2021-11-14T19:21:44.846Z</time>
      </trkpt>
      <trkpt lat="47.482433" lon="7.714052">
        <ele>439.380980</ele>
        <time>2021-11-14T19:21:46.168Z</time>
      </trkpt>
      <trkpt lat="47.482328" lon="7.714408">
        <ele>438.758937</ele>
        <time>2021-11-14T19:21:49.827Z</time>
      </trkpt>
      <trkpt lat="47.482103" lon="7.714746">
        <ele>437.999157</ele>
        <time>2021-11-14T19:21:54.706Z</time>
      </trkpt>
      <trkpt lat="47.482040" lon="7.714879">
        <ele>437.739055</ele>
        <time>2021-11-14T19:21:56.323Z</time>
      </trkpt>
      <trkpt lat="47.482008" lon="7.715033">
        <ele>437.481037</ele>
        <time>2021-11-14T19:21:58.228Z</time>
      </trkpt>
      <trkpt lat="47.481996" lon="7.715154">
        <ele>437.285185</ele>
        <time>2021-11-14T19:21:59.573Z</time>
      </trkpt>
      <trkpt lat="47.482000" lon="7.715252">
        <ele>437.127956</ele>
        <time>2021-11-14T19:22:00.604Z</time>
      </trkpt>
      <trkpt lat="47.482073" lon="7.715569">
        <ele>436.591632</ele>
        <time>2021-11-14T19:22:05.212Z</time>
      </trkpt>
      <trkpt lat="47.482141" lon="7.715923">
        <ele>436.002262</ele>
        <time>2021-11-14T19:22:10.386Z</time>
      </trkpt>
      <trkpt lat="47.482124" lon="7.716109">
        <ele>435.967725</ele>
        <time>2021-11-14T19:22:13.130Z</time>
      </trkpt>
      <trkpt lat="47.482140" lon="7.716270">
        <ele>435.953554</ele>
        <time>2021-11-14T19:22:15.365Z</time>
      </trkpt>
      <trkpt lat="47.482173" lon="7.716518">
        <ele>435.931544</ele>
        <time>2021-11-14T19:22:19.449Z</time>
      </trkpt>
      <trkpt lat="47.482225" lon="7.716865">
        <ele>435.900593</ele>
        <time>2021-11-14T19:22:24.698Z</time>
      </trkpt>
      <trkpt lat="47.482254" lon="7.717300">
        <ele>435.862529</ele>
        <time>2021-11-14T19:22:30.341Z</time>
      </trkpt>
      <trkpt lat="47.482205" lon="7.717569">
        <ele>435.838269</ele>
        <time>2021-11-14T19:22:34.925Z</time>
      </trkpt>
      <trkpt lat="47.482055" lon="7.718107">
        <ele>435.787589</ele>
        <time>2021-11-14T19:22:41.075Z</time>
      </trkpt>
      <trkpt lat="47.481837" lon="7.718933">
        <ele>432.574786</ele>
        <time>2021-11-14T19:22:47.121Z</time>
      </trkpt>
      <trkpt lat="47.481809" lon="7.719044">
        <ele>431.773400</ele>
        <time>2021-11-14T19:22:47.916Z</time>
      </trkpt>
      <trkpt lat="47.481725" lon="7.719370">
        <ele>429.413542</ele>
        <time>2021-11-14T19:22:49.969Z</time>
      </trkpt>
      <trkpt lat="47.481540" lon="7.720057">
        <ele>424.411440</ele>
        <time>2021-11-14T19:22:54.250Z</time>
      </trkpt>
      <trkpt lat="47.481523" lon="7.720121">
        <ele>423.946313</ele>
        <time>2021-11-14T19:22:54.631Z</time>
      </trkpt>
      <trkpt lat="47.481478" lon="7.720286">
        <ele>422.742817</ele>
        <time>2021-11-14T19:22:55.636Z</time>
      </trkpt>
      <trkpt lat="47.481432" lon="7.720460">
        <ele>421.479051</ele>
        <time>2021-11-14T19:22:56.688Z</time>
      </trkpt>
      <trkpt lat="47.481293" lon="7.720976">
        <ele>417.710235</ele>
        <time>2021-11-14T19:22:59.805Z</time>
      </trkpt>
      <trkpt lat="47.481111" lon="7.721585">
        <ele>411.342208</ele>
        <time>2021-11-14T19:23:03.538Z</time>
      </trkpt>
      <trkpt lat="47.480883" lon="7.722375">
        <ele>403.127163</ele>
        <time>2021-11-14T19:23:08.358Z</time>
      </trkpt>
      <trkpt lat="47.480850" lon="7.722487">
        <ele>401.958706</ele>
        <time>2021-11-14T19:23:09.042Z</time>
      </trkpt>
      <trkpt lat="47.480560" lon="7.723517">
        <ele>391.668820</ele>
        <time>2021-11-14T19:23:15.360Z</time>
      </trkpt>
      <trkpt lat="47.480416" lon="7.724106">
        <ele>387.936977</ele>
        <time>2021-11-14T19:23:18.981Z</time>
      </trkpt>
      <trkpt lat="47.480346" lon="7.724333">
        <ele>386.450365</ele>
        <time>2021-11-14T19:23:20.435Z</time>
      </trkpt>
      <trkpt lat="47.480339" lon="7.724466">
        <ele>385.655544</ele>
        <time>2021-11-14T19:23:21.232Z</time>
      </trkpt>
      <trkpt lat="47.480353" lon="7.724593">
        <ele>384.888871</ele>
        <time>2021-11-14T19:23:22.016Z</time>
      </trkpt>
      <trkpt lat="47.480404" lon="7.724751">
        <ele>383.845642</ele>
        <time>2021-11-14T19:23:23.056Z</time>
      </trkpt>
      <trkpt lat="47.480590" lon="7.725049">
        <ele>381.428805</ele>
        <time>2021-11-14T19:23:25.583Z</time>
      </trkpt>
      <trkpt lat="47.480643" lon="7.725067">
        <ele>380.949420</ele>
        <time>2021-11-14T19:23:26.066Z</time>
      </trkpt>
      <trkpt lat="47.480696" lon="7.725064">
        <ele>380.481844</ele>
        <time>2021-11-14T19:23:26.515Z</time>
      </trkpt>
      <trkpt lat="47.481154" lon="7.724561">
        <ele>375.763161</ele>
        <time>2021-11-14T19:23:31.638Z</time>
      </trkpt>
      <trkpt lat="47.481657" lon="7.724192">
        <ele>372.363994</ele>
        <time>2021-11-14T19:23:36.684Z</time>
      </trkpt>
      <trkpt lat="47.481929" lon="7.724111">
        <ele>370.684145</ele>
        <time>2021-11-14T19:23:39.274Z</time>
      </trkpt>
      <trkpt lat="47.482160" lon="7.724091">
        <ele>369.283159</ele>
        <time>2021-11-14T19:23:41.385Z</time>
      </trkpt>
      <trkpt lat="47.482242" lon="7.724080">
        <ele>368.784653</ele>
        <time>2021-11-14T19:23:42.206Z</time>
      </trkpt>
      <trkpt lat="47.482297" lon="7.724055">
        <ele>368.436297</ele>
        <time>2021-11-14T19:23:42.769Z</time>
      </trkpt>
      <trkpt lat="47.482353" lon="7.724034">
        <ele>368.086525</ele>
        <time>2021-11-14T19:23:43.288Z</time>
      </trkpt>
      <trkpt lat="47.483052" lon="7.723757">
        <ele>363.542734</ele>
        <time>2021-11-14T19:23:50.088Z</time>
      </trkpt>
      <trkpt lat="47.483186" lon="7.723794">
        <ele>362.644786</ele>
        <time>2021-11-14T19:23:51.318Z</time>
      </trkpt>
      <trkpt lat="47.483249" lon="7.724080">
        <ele>361.305642</ele>
        <time>2021-11-14T19:23:53.209Z</time>
      </trkpt>
      <trkpt lat="47.483366" lon="7.724301">
        <ele>360.055854</ele>
        <time>2021-11-14T19:23:54.883Z</time>
      </trkpt>
      <trkpt lat="47.483601" lon="7.724694">
        <ele>357.719759</ele>
        <time>2021-11-14T19:23:58.053Z</time>
      </trkpt>
      <trkpt lat="47.483854" lon="7.725119">
        <ele>355.198402</ele>
        <time>2021-11-14T19:24:01.500Z</time>
      </trkpt>
      <trkpt lat="47.483912" lon="7.725241">
        <ele>354.534363</ele>
        <time>2021-11-14T19:24:02.421Z</time>
      </trkpt>
      <trkpt lat="47.483964" lon="7.725363">
        <ele>353.892251</ele>
        <time>2021-11-14T19:24:03.307Z</time>
      </trkpt>
      <trkpt lat="47.484019" lon="7.725450">
        <ele>353.330309</ele>
        <time>2021-11-14T19:24:04.008Z</time>
      </trkpt>
      <trkpt lat="47.484078" lon="7.725546">
        <ele>352.699248</ele>
        <time>2021-11-14T19:24:04.772Z</time>
      </trkpt>
      <trkpt lat="47.484184" lon="7.725825">
        <ele>351.142685</ele>
        <time>2021-11-14T19:24:06.733Z</time>
      </trkpt>
      <trkpt lat="47.484215" lon="7.725949">
        <ele>350.499706</ele>
        <time>2021-11-14T19:24:07.514Z</time>
      </trkpt>
      <trkpt lat="47.484253" lon="7.726100">
        <ele>349.716097</ele>
        <time>2021-11-14T19:24:08.496Z</time>
      </trkpt>
      <trkpt lat="47.484307" lon="7.726332">
        <ele>348.522786</ele>
        <time>2021-11-14T19:24:10.001Z</time>
      </trkpt>
      <trkpt lat="47.484437" lon="7.726980">
        <ele>345.235504</ele>
        <time>2021-11-14T19:24:14.112Z</time>
      </trkpt>
      <trkpt lat="47.484546" lon="7.727519">
        <ele>342.499399</ele>
        <time>2021-11-14T19:24:17.462Z</time>
      </trkpt>
      <trkpt lat="47.484579" lon="7.727663">
        <ele>341.759931</ele>
        <time>2021-11-14T19:24:18.378Z</time>
      </trkpt>
      <trkpt lat="47.484711" lon="7.728237">
        <ele>339.180596</ele>
        <time>2021-11-14T19:24:22.027Z</time>
      </trkpt>
      <trkpt lat="47.484868" lon="7.729017">
        <ele>335.972709</ele>
        <time>2021-11-14T19:24:27.124Z</time>
      </trkpt>
      <trkpt lat="47.484909" lon="7.729250">
        <ele>335.023705</ele>
        <time>2021-11-14T19:24:28.606Z</time>
      </trkpt>
      <trkpt lat="47.484975" lon="7.729224">
        <ele>334.625349</ele>
        <time>2021-11-14T19:24:29.254Z</time>
      </trkpt>
      <trkpt lat="47.485059" lon="7.729137">
        <ele>334.027332</ele>
        <time>2021-11-14T19:24:30.242Z</time>
      </trkpt>
      <trkpt lat="47.485113" lon="7.729094">
        <ele>333.669667</ele>
        <time>2021-11-14T19:24:30.779Z</time>
      </trkpt>
      <trkpt lat="47.486046" lon="7.728429">
        <ele>328.449995</ele>
        <time>2021-11-14T19:24:40.582Z</time>
      </trkpt>
      <trkpt lat="47.486872" lon="7.727207">
        <ele>323.754818</ele>
        <time>2021-11-14T19:24:52.031Z</time>
      </trkpt>
      <trkpt lat="47.488326" lon="7.725302">
        <ele>318.029954</ele>
        <time>2021-11-14T19:25:12.077Z</time>
      </trkpt>
      <trkpt lat="47.488897" lon="7.724752">
        <ele>316.386374</ele>
        <time>2021-11-14T19:25:19.576Z</time>
      </trkpt>
      <trkpt lat="47.489116" lon="7.724510">
        <ele>315.733289</ele>
        <time>2021-11-14T19:25:22.574Z</time>
      </trkpt>
      <trkpt lat="47.489169" lon="7.724454">
        <ele>315.577680</ele>
        <time>2021-11-14T19:25:23.270Z</time>
      </trkpt>
      <trkpt lat="47.489346" lon="7.724892">
        <ele>314.753649</ele>
        <time>2021-11-14T19:25:26.917Z</time>
      </trkpt>
      <trkpt lat="47.489346" lon="7.724892">
        <ele>314.753649</ele>
        <time>2021-11-14T19:25:27.016Z</time>
      </trkpt>
      <trkpt lat="47.489346" lon="7.724892">
        <ele>314.753649</ele>
        <time>2021-11-14T19:25:27.024Z</time>
      </trkpt>
      <trkpt lat="47.489379" lon="7.724942">
        <ele>314.640798</ele>
        <time>2021-11-14T19:25:27.489Z</time>
      </trkpt>
      <trkpt lat="47.489941" lon="7.725807">
        <ele>312.711825</ele>
        <time>2021-11-14T19:25:35.959Z</time>
      </trkpt>
      <trkpt lat="47.489995" lon="7.725895">
        <ele>312.521657</ele>
        <time>2021-11-14T19:25:36.831Z</time>
      </trkpt>
      <trkpt lat="47.490311" lon="7.726430">
        <ele>311.384890</ele>
        <time>2021-11-14T19:25:41.908Z</time>
      </trkpt>
      <trkpt lat="47.490422" lon="7.726726">
        <ele>310.843324</ele>
        <time>2021-11-14T19:25:44.538Z</time>
      </trkpt>
      <trkpt lat="47.490472" lon="7.726859">
        <ele>310.599842</ele>
        <time>2021-11-14T19:25:45.545Z</time>
      </trkpt>
      <trkpt lat="47.490558" lon="7.726775">
        <ele>310.355887</ele>
        <time>2021-11-14T19:25:46.773Z</time>
      </trkpt>
      <trkpt lat="47.490621" lon="7.726684">
        <ele>310.147465</ele>
        <time>2021-11-14T19:25:47.790Z</time>
      </trkpt>
      <trkpt lat="47.490801" lon="7.726367">
        <ele>309.485059</ele>
        <time>2021-11-14T19:25:50.678Z</time>
      </trkpt>
      <trkpt lat="47.490981" lon="7.726050">
        <ele>309.039556</ele>
        <time>2021-11-14T19:25:53.614Z</time>
      </trkpt>
      <trkpt lat="47.491072" lon="7.725890">
        <ele>308.836318</ele>
        <time>2021-11-14T19:25:55.255Z</time>
      </trkpt>
      <trkpt lat="47.491137" lon="7.725804">
        <ele>308.710922</ele>
        <time>2021-11-14T19:25:56.321Z</time>
      </trkpt>
      <trkpt lat="47.491202" lon="7.725718">
        <ele>308.585526</ele>
        <time>2021-11-14T19:25:57.180Z</time>
      </trkpt>
      <trkpt lat="47.491334" lon="7.725544">
        <ele>308.331295</ele>
        <time>2021-11-14T19:25:59.309Z</time>
      </trkpt>
      <trkpt lat="47.491533" lon="7.725332">
        <ele>307.978650</ele>
        <time>2021-11-14T19:26:02.144Z</time>
      </trkpt>
      <trkpt lat="47.491598" lon="7.725275">
        <ele>307.869987</ele>
        <time>2021-11-14T19:26:03.095Z</time>
      </trkpt>
      <trkpt lat="47.491668" lon="7.725287">
        <ele>307.768639</ele>
        <time>2021-11-14T19:26:03.983Z</time>
      </trkpt>
      <trkpt lat="47.491803" lon="7.725283">
        <ele>307.574441</ele>
        <time>2021-11-14T19:26:05.815Z</time>
      </trkpt>
      <trkpt lat="47.491822" lon="7.725306">
        <ele>307.539138</ele>
        <time>2021-11-14T19:26:06.089Z</time>
      </trkpt>
      <trkpt lat="47.491891" lon="7.725334">
        <ele>307.436239</ele>
        <time>2021-11-14T19:26:07.070Z</time>
      </trkpt>
      <trkpt lat="47.491915" lon="7.725328">
        <ele>307.401232</ele>
        <time>2021-11-14T19:26:07.330Z</time>
      </trkpt>
      <trkpt lat="47.491939" lon="7.725313">
        <ele>307.363764</ele>
        <time>2021-11-14T19:26:07.663Z</time>
      </trkpt>
      <trkpt lat="47.491961" lon="7.725291">
        <ele>307.325577</ele>
        <time>2021-11-14T19:26:07.972Z</time>
      </trkpt>
      <trkpt lat="47.491978" lon="7.725262">
        <ele>307.288267</ele>
        <time>2021-11-14T19:26:08.281Z</time>
      </trkpt>
      <trkpt lat="47.491989" lon="7.725231">
        <ele>307.254240</ele>
        <time>2021-11-14T19:26:08.602Z</time>
      </trkpt>
      <trkpt lat="47.491996" lon="7.725198">
        <ele>307.220628</ele>
        <time>2021-11-14T19:26:08.893Z</time>
      </trkpt>
      <trkpt lat="47.491998" lon="7.725163">
        <ele>307.186494</ele>
        <time>2021-11-14T19:26:09.246Z</time>
      </trkpt>
      <trkpt lat="47.492086" lon="7.725087">
        <ele>307.039958</ele>
        <time>2021-11-14T19:26:10.536Z</time>
      </trkpt>
      <trkpt lat="47.492200" lon="7.725003">
        <ele>306.856804</ele>
        <time>2021-11-14T19:26:12.029Z</time>
      </trkpt>
      <trkpt lat="47.492361" lon="7.724938">
        <ele>306.742327</ele>
        <time>2021-11-14T19:26:14.061Z</time>
      </trkpt>
      <trkpt lat="47.492533" lon="7.724869">
        <ele>306.673513</ele>
        <time>2021-11-14T19:26:16.232Z</time>
      </trkpt>
      <trkpt lat="47.492679" lon="7.724813">
        <ele>306.615273</ele>
        <time>2021-11-14T19:26:18.086Z</time>
      </trkpt>
      <trkpt lat="47.492858" lon="7.724732">
        <ele>306.542995</ele>
        <time>2021-11-14T19:26:20.540Z</time>
      </trkpt>
      <trkpt lat="47.492952" lon="7.724675">
        <ele>306.503768</ele>
        <time>2021-11-14T19:26:21.742Z</time>
      </trkpt>
      <trkpt lat="47.493160" lon="7.724550">
        <ele>306.417081</ele>
        <time>2021-11-14T19:26:24.929Z</time>
      </trkpt>
      <trkpt lat="47.493271" lon="7.724493">
        <ele>306.371712</ele>
        <time>2021-11-14T19:26:26.417Z</time>
      </trkpt>
      <trkpt lat="47.493492" lon="7.724383">
        <ele>306.281677</ele>
        <time>2021-11-14T19:26:30.270Z</time>
      </trkpt>
      <trkpt lat="47.493620" lon="7.724323">
        <ele>306.229831</ele>
        <time>2021-11-14T19:26:32.098Z</time>
      </trkpt>
      <trkpt lat="47.493698" lon="7.724293">
        <ele>306.198711</ele>
        <time>2021-11-14T19:26:33.261Z</time>
      </trkpt>
      <trkpt lat="47.493945" lon="7.724198">
        <ele>306.100165</ele>
        <time>2021-11-14T19:26:37.149Z</time>
      </trkpt>
      <trkpt lat="47.494130" lon="7.724127">
        <ele>306.200791</ele>
        <time>2021-11-14T19:26:40.158Z</time>
      </trkpt>
      <trkpt lat="47.494301" lon="7.724060">
        <ele>306.308993</ele>
        <time>2021-11-14T19:26:42.885Z</time>
      </trkpt>
      <trkpt lat="47.494609" lon="7.723957">
        <ele>306.502143</ele>
        <time>2021-11-14T19:26:48.075Z</time>
      </trkpt>
      <trkpt lat="47.494771" lon="7.723908">
        <ele>306.603285</ele>
        <time>2021-11-14T19:26:50.842Z</time>
      </trkpt>
      <trkpt lat="47.495480" lon="7.723772">
        <ele>307.040600</ele>
        <time>2021-11-14T19:27:04.376Z</time>
      </trkpt>
      <trkpt lat="47.495660" lon="7.723744">
        <ele>307.151311</ele>
        <time>2021-11-14T19:27:07.746Z</time>
      </trkpt>
      <trkpt lat="47.496031" lon="7.723719">
        <ele>307.259294</ele>
        <time>2021-11-14T19:27:14.212Z</time>
      </trkpt>
      <trkpt lat="47.496324" lon="7.723678">
        <ele>307.322962</ele>
        <time>2021-11-14T19:27:18.980Z</time>
      </trkpt>
      <trkpt lat="47.496562" lon="7.723634">
        <ele>307.374849</ele>
        <time>2021-11-14T19:27:22.872Z</time>
      </trkpt>
      <trkpt lat="47.496884" lon="7.723548">
        <ele>307.445633</ele>
        <time>2021-11-14T19:27:27.931Z</time>
      </trkpt>
      <trkpt lat="47.497065" lon="7.723507">
        <ele>307.485245</ele>
        <time>2021-11-14T19:27:30.620Z</time>
      </trkpt>
      <trkpt lat="47.497226" lon="7.723457">
        <ele>307.520833</ele>
        <time>2021-11-14T19:27:33.033Z</time>
      </trkpt>
      <trkpt lat="47.497460" lon="7.723366">
        <ele>307.573173</ele>
        <time>2021-11-14T19:27:36.476Z</time>
      </trkpt>
      <trkpt lat="47.497687" lon="7.723252">
        <ele>307.482755</ele>
        <time>2021-11-14T19:27:39.836Z</time>
      </trkpt>
      <trkpt lat="47.497920" lon="7.723132">
        <ele>307.354683</ele>
        <time>2021-11-14T19:27:43.212Z</time>
      </trkpt>
      <trkpt lat="47.498175" lon="7.722994">
        <ele>307.213732</ele>
        <time>2021-11-14T19:27:46.807Z</time>
      </trkpt>
      <trkpt lat="47.498192" lon="7.722984">
        <ele>307.204236</ele>
        <time>2021-11-14T19:27:47.034Z</time>
      </trkpt>
      <trkpt lat="47.498291" lon="7.722938">
        <ele>307.150368</ele>
        <time>2021-11-14T19:27:48.422Z</time>
      </trkpt>
      <trkpt lat="47.498478" lon="7.722850">
        <ele>307.048502</ele>
        <time>2021-11-14T19:27:50.956Z</time>
      </trkpt>
      <trkpt lat="47.498511" lon="7.722833">
        <ele>307.030362</ele>
        <time>2021-11-14T19:27:51.382Z</time>
      </trkpt>
      <trkpt lat="47.498767" lon="7.722700">
        <ele>306.889515</ele>
        <time>2021-11-14T19:27:54.699Z</time>
      </trkpt>
      <trkpt lat="47.498830" lon="7.722672">
        <ele>306.855367</ele>
        <time>2021-11-14T19:27:55.480Z</time>
      </trkpt>
      <trkpt lat="47.499364" lon="7.722391">
        <ele>306.727855</ele>
        <time>2021-11-14T19:28:02.628Z</time>
      </trkpt>
      <trkpt lat="47.499469" lon="7.722343">
        <ele>306.778522</ele>
        <time>2021-11-14T19:28:04.374Z</time>
      </trkpt>
      <trkpt lat="47.499723" lon="7.722283">
        <ele>306.897111</ele>
        <time>2021-11-14T19:28:08.224Z</time>
      </trkpt>
      <trkpt lat="47.499864" lon="7.722269">
        <ele>306.962266</ele>
        <time>2021-11-14T19:28:10.620Z</time>
      </trkpt>
      <trkpt lat="47.500054" lon="7.722259">
        <ele>307.049922</ele>
        <time>2021-11-14T19:28:14.182Z</time>
      </trkpt>
      <trkpt lat="47.500109" lon="7.722306">
        <ele>307.079203</ele>
        <time>2021-11-14T19:28:15.125Z</time>
      </trkpt>
      <trkpt lat="47.500276" lon="7.722350">
        <ele>307.157409</ele>
        <time>2021-11-14T19:28:18.621Z</time>
      </trkpt>
      <trkpt lat="47.500286" lon="7.722369">
        <ele>307.164911</ele>
        <time>2021-11-14T19:28:18.855Z</time>
      </trkpt>
      <trkpt lat="47.500299" lon="7.722385">
        <ele>307.172706</ele>
        <time>2021-11-14T19:28:19.166Z</time>
      </trkpt>
      <trkpt lat="47.500313" lon="7.722398">
        <ele>307.180326</ele>
        <time>2021-11-14T19:28:19.404Z</time>
      </trkpt>
      <trkpt lat="47.500335" lon="7.722411">
        <ele>307.191247</ele>
        <time>2021-11-14T19:28:19.828Z</time>
      </trkpt>
      <trkpt lat="47.500382" lon="7.722416">
        <ele>307.212973</ele>
        <time>2021-11-14T19:28:20.809Z</time>
      </trkpt>
      <trkpt lat="47.500404" lon="7.722407">
        <ele>307.223496</ele>
        <time>2021-11-14T19:28:21.133Z</time>
      </trkpt>
      <trkpt lat="47.500420" lon="7.722396">
        <ele>307.231630</ele>
        <time>2021-11-14T19:28:21.447Z</time>
      </trkpt>
      <trkpt lat="47.500446" lon="7.722366">
        <ele>307.246829</ele>
        <time>2021-11-14T19:28:21.930Z</time>
      </trkpt>
      <trkpt lat="47.500456" lon="7.722347">
        <ele>307.254331</ele>
        <time>2021-11-14T19:28:22.291Z</time>
      </trkpt>
      <trkpt lat="47.500463" lon="7.722331">
        <ele>307.260269</ele>
        <time>2021-11-14T19:28:22.758Z</time>
      </trkpt>
      <trkpt lat="47.500461" lon="7.722172">
        <ele>307.309803</ele>
        <time>2021-11-14T19:28:24.651Z</time>
      </trkpt>
      <trkpt lat="47.500454" lon="7.722156">
        <ele>307.315740</ele>
        <time>2021-11-14T19:28:25.104Z</time>
      </trkpt>
      <trkpt lat="47.500445" lon="7.722140">
        <ele>307.322225</ele>
        <time>2021-11-14T19:28:25.462Z</time>
      </trkpt>
      <trkpt lat="47.500381" lon="7.722091">
        <ele>307.355446</ele>
        <time>2021-11-14T19:28:26.638Z</time>
      </trkpt>
      <trkpt lat="47.500366" lon="7.722090">
        <ele>307.362369</ele>
        <time>2021-11-14T19:28:27.004Z</time>
      </trkpt>
      <trkpt lat="47.500361" lon="7.721777">
        <ele>307.459890</ele>
        <time>2021-11-14T19:28:30.939Z</time>
      </trkpt>
      <trkpt lat="47.500349" lon="7.721524">
        <ele>307.409778</ele>
        <time>2021-11-14T19:28:34.271Z</time>
      </trkpt>
      <trkpt lat="47.500358" lon="7.721195">
        <ele>307.292284</ele>
        <time>2021-11-14T19:28:38.162Z</time>
      </trkpt>
      <trkpt lat="47.500362" lon="7.721031">
        <ele>307.233725</ele>
        <time>2021-11-14T19:28:39.716Z</time>
      </trkpt>
      <trkpt lat="47.500389" lon="7.721033">
        <ele>307.219446</ele>
        <time>2021-11-14T19:28:40.220Z</time>
      </trkpt>
      <trkpt lat="47.500461" lon="7.720933">
        <ele>307.167297</ele>
        <time>2021-11-14T19:28:41.604Z</time>
      </trkpt>
      <trkpt lat="47.500460" lon="7.720893">
        <ele>307.153014</ele>
        <time>2021-11-14T19:28:42.345Z</time>
      </trkpt>
      <trkpt lat="47.500553" lon="7.720873">
        <ele>307.103377</ele>
        <time>2021-11-14T19:28:43.812Z</time>
      </trkpt>
      <trkpt lat="47.500741" lon="7.720840">
        <ele>307.003382</ele>
        <time>2021-11-14T19:28:46.504Z</time>
      </trkpt>
      <trkpt lat="47.500806" lon="7.720829">
        <ele>306.968827</ele>
        <time>2021-11-14T19:28:47.757Z</time>
      </trkpt>
      <trkpt lat="47.500848" lon="7.720821">
        <ele>306.946460</ele>
        <time>2021-11-14T19:28:48.518Z</time>
      </trkpt>
      <trkpt lat="47.500960" lon="7.720802">
        <ele>306.886916</ele>
        <time>2021-11-14T19:28:50.020Z</time>
      </trkpt>
      <trkpt lat="47.501183" lon="7.720763">
        <ele>306.768312</ele>
        <time>2021-11-14T19:28:52.851Z</time>
      </trkpt>
      <trkpt lat="47.501369" lon="7.720733">
        <ele>306.669488</ele>
        <time>2021-11-14T19:28:54.943Z</time>
      </trkpt>
      <trkpt lat="47.501475" lon="7.720701">
        <ele>306.612348</ele>
        <time>2021-11-14T19:28:56.136Z</time>
      </trkpt>
      <trkpt lat="47.501487" lon="7.720740">
        <ele>306.597056</ele>
        <time>2021-11-14T19:28:56.443Z</time>
      </trkpt>
      <trkpt lat="47.501590" lon="7.720794">
        <ele>306.539342</ele>
        <time>2021-11-14T19:28:57.668Z</time>
      </trkpt>
      <trkpt lat="47.501616" lon="7.720776">
        <ele>306.494991</ele>
        <time>2021-11-14T19:28:57.975Z</time>
      </trkpt>
      <trkpt lat="47.501635" lon="7.720835">
        <ele>306.320978</ele>
        <time>2021-11-14T19:28:58.382Z</time>
      </trkpt>
      <trkpt lat="47.501658" lon="7.720911">
        <ele>306.099265</ele>
        <time>2021-11-14T19:28:58.999Z</time>
      </trkpt>
      <trkpt lat="47.501816" lon="7.721777">
        <ele>303.711069</ele>
        <time>2021-11-14T19:29:05.078Z</time>
      </trkpt>
      <trkpt lat="47.501908" lon="7.722222">
        <ele>302.472091</ele>
        <time>2021-11-14T19:29:08.076Z</time>
      </trkpt>
      <trkpt lat="47.501978" lon="7.722527">
        <ele>301.614497</ele>
        <time>2021-11-14T19:29:10.104Z</time>
      </trkpt>
      <trkpt lat="47.502028" lon="7.722740">
        <ele>301.014161</ele>
        <time>2021-11-14T19:29:11.565Z</time>
      </trkpt>
      <trkpt lat="47.502046" lon="7.722829">
        <ele>300.766822</ele>
        <time>2021-11-14T19:29:12.147Z</time>
      </trkpt>
      <trkpt lat="47.502072" lon="7.722973">
        <ele>300.369990</ele>
        <time>2021-11-14T19:29:13.082Z</time>
      </trkpt>
      <trkpt lat="47.502112" lon="7.723201">
        <ele>299.742844</ele>
        <time>2021-11-14T19:29:14.603Z</time>
      </trkpt>
      <trkpt lat="47.502133" lon="7.723553">
        <ele>299.211324</ele>
        <time>2021-11-14T19:29:16.900Z</time>
      </trkpt>
      <trkpt lat="47.502126" lon="7.723727">
        <ele>299.044782</ele>
        <time>2021-11-14T19:29:18.040Z</time>
      </trkpt>
      <trkpt lat="47.502105" lon="7.724063">
        <ele>298.722383</ele>
        <time>2021-11-14T19:29:20.264Z</time>
      </trkpt>
      <trkpt lat="47.502074" lon="7.724375">
        <ele>298.421078</ele>
        <time>2021-11-14T19:29:22.479Z</time>
      </trkpt>
      <trkpt lat="47.502069" lon="7.724437">
        <ele>298.361420</ele>
        <time>2021-11-14T19:29:22.943Z</time>
      </trkpt>
      <trkpt lat="47.502067" lon="7.724454">
        <ele>298.344933</ele>
        <time>2021-11-14T19:29:23.051Z</time>
      </trkpt>
      <trkpt lat="47.502055" lon="7.724669">
        <ele>298.138813</ele>
        <time>2021-11-14T19:29:24.746Z</time>
      </trkpt>
      <trkpt lat="47.502040" lon="7.724902">
        <ele>297.915186</ele>
        <time>2021-11-14T19:29:26.894Z</time>
      </trkpt>
      <trkpt lat="47.502029" lon="7.725074">
        <ele>297.750115</ele>
        <time>2021-11-14T19:29:28.384Z</time>
      </trkpt>
      <trkpt lat="47.502031" lon="7.725298">
        <ele>297.536077</ele>
        <time>2021-11-14T19:29:30.554Z</time>
      </trkpt>
      <trkpt lat="47.502031" lon="7.725427">
        <ele>297.412825</ele>
        <time>2021-11-14T19:29:31.954Z</time>
      </trkpt>
      <trkpt lat="47.502048" lon="7.725782">
        <ele>297.072791</ele>
        <time>2021-11-14T19:29:36.008Z</time>
      </trkpt>
      <trkpt lat="47.502115" lon="7.726246">
        <ele>297.929964</ele>
        <time>2021-11-14T19:29:42.917Z</time>
      </trkpt>
      <trkpt lat="47.502122" lon="7.726303">
        <ele>298.136341</ele>
        <time>2021-11-14T19:29:44.005Z</time>
      </trkpt>
      <trkpt lat="47.502177" lon="7.726706">
        <ele>299.600931</ele>
        <time>2021-11-14T19:29:51.990Z</time>
      </trkpt>
      <trkpt lat="47.502189" lon="7.726824">
        <ele>300.026012</ele>
        <time>2021-11-14T19:29:54.585Z</time>
      </trkpt>
      <trkpt lat="47.502204" lon="7.726964">
        <ele>300.530961</ele>
        <time>2021-11-14T19:29:58.038Z</time>
      </trkpt>
      <trkpt lat="47.502370" lon="7.726942">
        <ele>301.409784</ele>
        <time>2021-11-14T19:30:04.039Z</time>
      </trkpt>
      <trkpt lat="47.502422" lon="7.726942">
        <ele>301.683981</ele>
        <time>2021-11-14T19:30:05.832Z</time>
      </trkpt>
      <trkpt lat="47.502557" lon="7.726941">
        <ele>302.395847</ele>
        <time>2021-11-14T19:30:11.236Z</time>
      </trkpt>
      <trkpt lat="47.502785" lon="7.727007">
        <ele>303.620868</ele>
        <time>2021-11-14T19:30:20.615Z</time>
      </trkpt>
      <trkpt lat="47.502897" lon="7.727052">
        <ele>304.232815</ele>
        <time>2021-11-14T19:30:25.854Z</time>
      </trkpt>
      <trkpt lat="47.503012" lon="7.727124">
        <ele>304.891221</ele>
        <time>2021-11-14T19:30:31.471Z</time>
      </trkpt>
      <trkpt lat="47.503612" lon="7.727532">
        <ele>309.681040</ele>
        <time>2021-11-14T19:31:02.960Z</time>
      </trkpt>
      <trkpt lat="47.504330" lon="7.727938">
        <ele>316.395420</ele>
        <time>2021-11-14T19:31:41.449Z</time>
      </trkpt>
      <trkpt lat="47.504693" lon="7.728164">
        <ele>319.835583</ele>
        <time>2021-11-14T19:32:03.995Z</time>
      </trkpt>
      <trkpt lat="47.504979" lon="7.728357">
        <ele>322.516884</ele>
        <time>2021-11-14T19:32:18.706Z</time>
      </trkpt>
      <trkpt lat="47.505256" lon="7.728654">
        <ele>325.109654</ele>
        <time>2021-11-14T19:32:35.032Z</time>
      </trkpt>
      <trkpt lat="47.505279" lon="7.728682">
        <ele>325.335394</ele>
        <time>2021-11-14T19:32:36.462Z</time>
      </trkpt>
      <trkpt lat="47.505304" lon="7.728712">
        <ele>325.579356</ele>
        <time>2021-11-14T19:32:39.352Z</time>
      </trkpt>
      <trkpt lat="47.505472" lon="7.729028">
        <ele>327.638597</ele>
        <time>2021-11-14T19:32:49.813Z</time>
      </trkpt>
      <trkpt lat="47.505554" lon="7.729431">
        <ele>329.793890</ele>
        <time>2021-11-14T19:33:01.585Z</time>
      </trkpt>
      <trkpt lat="47.505566" lon="7.729659">
        <ele>330.964983</ele>
        <time>2021-11-14T19:33:08.971Z</time>
      </trkpt>
      <trkpt lat="47.505576" lon="7.729777">
        <ele>331.573980</ele>
        <time>2021-11-14T19:33:11.790Z</time>
      </trkpt>
      <trkpt lat="47.505600" lon="7.729862">
        <ele>332.045746</ele>
        <time>2021-11-14T19:33:13.658Z</time>
      </trkpt>
      <trkpt lat="47.505610" lon="7.729883">
        <ele>332.177317</ele>
        <time>2021-11-14T19:33:14.533Z</time>
      </trkpt>
      <trkpt lat="47.505698" lon="7.729940">
        <ele>332.905475</ele>
        <time>2021-11-14T19:33:18.115Z</time>
      </trkpt>
      <trkpt lat="47.505786" lon="7.729995">
        <ele>333.629589</ele>
        <time>2021-11-14T19:33:23.030Z</time>
      </trkpt>
      <trkpt lat="47.505964" lon="7.730090">
        <ele>335.063957</ele>
        <time>2021-11-14T19:33:30.986Z</time>
      </trkpt>
      <trkpt lat="47.506098" lon="7.730161">
        <ele>336.247314</ele>
        <time>2021-11-14T19:33:37.751Z</time>
      </trkpt>
      <trkpt lat="47.506182" lon="7.730192">
        <ele>337.068959</ele>
        <time>2021-11-14T19:33:42.692Z</time>
      </trkpt>
      <trkpt lat="47.506263" lon="7.730221">
        <ele>337.859895</ele>
        <time>2021-11-14T19:33:45.795Z</time>
      </trkpt>
      <trkpt lat="47.506380" lon="7.730243">
        <ele>338.979265</ele>
        <time>2021-11-14T19:33:51.371Z</time>
      </trkpt>
      <trkpt lat="47.506471" lon="7.730276">
        <ele>339.868483</ele>
        <time>2021-11-14T19:33:56.343Z</time>
      </trkpt>
      <trkpt lat="47.506756" lon="7.730348">
        <ele>342.612526</ele>
        <time>2021-11-14T19:34:10.380Z</time>
      </trkpt>
      <trkpt lat="47.506937" lon="7.730311">
        <ele>344.346700</ele>
        <time>2021-11-14T19:34:19.984Z</time>
      </trkpt>
      <trkpt lat="47.507701" lon="7.730399">
        <ele>351.619747</ele>
        <time>2021-11-14T19:35:02.307Z</time>
      </trkpt>
      <trkpt lat="47.507939" lon="7.730423">
        <ele>354.125324</ele>
        <time>2021-11-14T19:35:17.234Z</time>
      </trkpt>
      <trkpt lat="47.508551" lon="7.730458">
        <ele>361.232490</ele>
        <time>2021-11-14T19:35:55.889Z</time>
      </trkpt>
      <trkpt lat="47.508949" lon="7.730515">
        <ele>365.872587</ele>
        <time>2021-11-14T19:36:21.173Z</time>
      </trkpt>
      <trkpt lat="47.509109" lon="7.730536">
        <ele>367.736568</ele>
        <time>2021-11-14T19:36:32.527Z</time>
      </trkpt>
      <trkpt lat="47.509299" lon="7.730556">
        <ele>369.946962</ele>
        <time>2021-11-14T19:36:43.719Z</time>
      </trkpt>
      <trkpt lat="47.509971" lon="7.730436">
        <ele>377.210699</ele>
        <time>2021-11-14T19:37:23.349Z</time>
      </trkpt>
      <trkpt lat="47.510248" lon="7.730401">
        <ele>379.975224</ele>
        <time>2021-11-14T19:37:38.478Z</time>
      </trkpt>
      <trkpt lat="47.510439" lon="7.730517">
        <ele>382.028147</ele>
        <time>2021-11-14T19:37:48.411Z</time>
      </trkpt>
      <trkpt lat="47.510529" lon="7.730600">
        <ele>383.082550</ele>
        <time>2021-11-14T19:37:55.352Z</time>
      </trkpt>
      <trkpt lat="47.510582" lon="7.730653">
        <ele>383.718550</ele>
        <time>2021-11-14T19:37:59.007Z</time>
      </trkpt>
      <trkpt lat="47.510894" lon="7.730938">
        <ele>387.364135</ele>
        <time>2021-11-14T19:38:17.298Z</time>
      </trkpt>
      <trkpt lat="47.511169" lon="7.731160">
        <ele>390.478870</ele>
        <time>2021-11-14T19:38:33.054Z</time>
      </trkpt>
      <trkpt lat="47.511556" lon="7.731396">
        <ele>394.125545</ele>
        <time>2021-11-14T19:38:56.908Z</time>
      </trkpt>
      <trkpt lat="47.511744" lon="7.731418">
        <ele>395.687443</ele>
        <time>2021-11-14T19:39:06.711Z</time>
      </trkpt>
      <trkpt lat="47.511927" lon="7.731386">
        <ele>397.213608</ele>
        <time>2021-11-14T19:39:17.793Z</time>
      </trkpt>
      <trkpt lat="47.511976" lon="7.731370">
        <ele>397.629185</ele>
        <time>2021-11-14T19:39:19.865Z</time>
      </trkpt>
      <trkpt lat="47.512002" lon="7.731362">
        <ele>397.849122</ele>
        <time>2021-11-14T19:39:21.081Z</time>
      </trkpt>
      <trkpt lat="47.512392" lon="7.731255">
        <ele>401.134146</ele>
        <time>2021-11-14T19:39:40.113Z</time>
      </trkpt>
      <trkpt lat="47.512650" lon="7.731136">
        <ele>403.372228</ele>
        <time>2021-11-14T19:39:52.545Z</time>
      </trkpt>
      <trkpt lat="47.512937" lon="7.731121">
        <ele>405.750681</ele>
        <time>2021-11-14T19:40:05.508Z</time>
      </trkpt>
      <trkpt lat="47.513227" lon="7.731116">
        <ele>407.060336</ele>
        <time>2021-11-14T19:40:16.978Z</time>
      </trkpt>
      <trkpt lat="47.514180" lon="7.731076">
        <ele>409.879066</ele>
        <time>2021-11-14T19:40:44.789Z</time>
      </trkpt>
      <trkpt lat="47.514358" lon="7.731113">
        <ele>410.410494</ele>
        <time>2021-11-14T19:40:48.787Z</time>
      </trkpt>
      <trkpt lat="47.515097" lon="7.731253">
        <ele>410.650468</ele>
        <time>2021-11-14T19:40:59.349Z</time>
      </trkpt>
      <trkpt lat="47.515284" lon="7.731353">
        <ele>409.867217</ele>
        <time>2021-11-14T19:41:02.121Z</time>
      </trkpt>
      <trkpt lat="47.515400" lon="7.731439">
        <ele>409.356157</ele>
        <time>2021-11-14T19:41:03.577Z</time>
      </trkpt>
      <trkpt lat="47.515516" lon="7.731602">
        <ele>408.726148</ele>
        <time>2021-11-14T19:41:05.175Z</time>
      </trkpt>
      <trkpt lat="47.515609" lon="7.731738">
        <ele>408.211211</ele>
        <time>2021-11-14T19:41:06.552Z</time>
      </trkpt>
      <trkpt lat="47.515656" lon="7.731823">
        <ele>407.918930</ele>
        <time>2021-11-14T19:41:07.296Z</time>
      </trkpt>
      <trkpt lat="47.515788" lon="7.732081">
        <ele>407.057759</ele>
        <time>2021-11-14T19:41:09.315Z</time>
      </trkpt>
      <trkpt lat="47.516143" lon="7.733008">
        <ele>403.641045</ele>
        <time>2021-11-14T19:41:15.739Z</time>
      </trkpt>
      <trkpt lat="47.516252" lon="7.733231">
        <ele>401.990169</ele>
        <time>2021-11-14T19:41:17.394Z</time>
      </trkpt>
      <trkpt lat="47.516307" lon="7.733325">
        <ele>401.244300</ele>
        <time>2021-11-14T19:41:18.108Z</time>
      </trkpt>
      <trkpt lat="47.516479" lon="7.733615">
        <ele>398.929683</ele>
        <time>2021-11-14T19:41:20.453Z</time>
      </trkpt>
      <trkpt lat="47.516777" lon="7.734159">
        <ele>394.728994</ele>
        <time>2021-11-14T19:41:24.541Z</time>
      </trkpt>
      <trkpt lat="47.517043" lon="7.734808">
        <ele>390.176212</ele>
        <time>2021-11-14T19:41:28.948Z</time>
      </trkpt>
      <trkpt lat="47.517532" lon="7.736243">
        <ele>382.485419</ele>
        <time>2021-11-14T19:41:38.379Z</time>
      </trkpt>
      <trkpt lat="47.517709" lon="7.736646">
        <ele>380.289394</ele>
        <time>2021-11-14T19:41:41.391Z</time>
      </trkpt>
      <trkpt lat="47.517827" lon="7.736889">
        <ele>378.922177</ele>
        <time>2021-11-14T19:41:43.304Z</time>
      </trkpt>
      <trkpt lat="47.518829" lon="7.738474">
        <ele>373.937484</ele>
        <time>2021-11-14T19:41:58.577Z</time>
      </trkpt>
      <trkpt lat="47.519284" lon="7.738961">
        <ele>372.623130</ele>
        <time>2021-11-14T19:42:05.524Z</time>
      </trkpt>
      <trkpt lat="47.519623" lon="7.739293">
        <ele>371.292110</ele>
        <time>2021-11-14T19:42:10.022Z</time>
      </trkpt>
      <trkpt lat="47.519931" lon="7.739563">
        <ele>369.976766</ele>
        <time>2021-11-14T19:42:13.817Z</time>
      </trkpt>
      <trkpt lat="47.520226" lon="7.739816">
        <ele>368.723969</ele>
        <time>2021-11-14T19:42:17.313Z</time>
      </trkpt>
      <trkpt lat="47.520523" lon="7.740087">
        <ele>367.441948</ele>
        <time>2021-11-14T19:42:22.215Z</time>
      </trkpt>
      <trkpt lat="47.520998" lon="7.740513">
        <ele>365.014398</ele>
        <time>2021-11-14T19:42:29.617Z</time>
      </trkpt>
      <trkpt lat="47.521267" lon="7.740757">
        <ele>362.482829</ele>
        <time>2021-11-14T19:42:33.671Z</time>
      </trkpt>
      <trkpt lat="47.522060" lon="7.741467">
        <ele>355.046105</ele>
        <time>2021-11-14T19:42:45.255Z</time>
      </trkpt>
      <trkpt lat="47.522380" lon="7.741760">
        <ele>352.026809</ele>
        <time>2021-11-14T19:42:49.882Z</time>
      </trkpt>
      <trkpt lat="47.522575" lon="7.741928">
        <ele>350.061439</ele>
        <time>2021-11-14T19:42:52.639Z</time>
      </trkpt>
      <trkpt lat="47.522769" lon="7.742227">
        <ele>347.491242</ele>
        <time>2021-11-14T19:42:56.146Z</time>
      </trkpt>
      <trkpt lat="47.522802" lon="7.742354">
        <ele>346.647763</ele>
        <time>2021-11-14T19:42:57.239Z</time>
      </trkpt>
      <trkpt lat="47.522809" lon="7.742436">
        <ele>346.135439</ele>
        <time>2021-11-14T19:42:57.926Z</time>
      </trkpt>
      <trkpt lat="47.522797" lon="7.742883">
        <ele>343.362510</ele>
        <time>2021-11-14T19:43:01.593Z</time>
      </trkpt>
      <trkpt lat="47.522763" lon="7.743129">
        <ele>341.806063</ele>
        <time>2021-11-14T19:43:03.713Z</time>
      </trkpt>
      <trkpt lat="47.522741" lon="7.743405">
        <ele>340.083391</ele>
        <time>2021-11-14T19:43:05.945Z</time>
      </trkpt>
      <trkpt lat="47.522718" lon="7.743713">
        <ele>338.162606</ele>
        <time>2021-11-14T19:43:08.559Z</time>
      </trkpt>
      <trkpt lat="47.522759" lon="7.744390">
        <ele>334.247205</ele>
        <time>2021-11-14T19:43:14.277Z</time>
      </trkpt>
      <trkpt lat="47.522842" lon="7.744668">
        <ele>333.035508</ele>
        <time>2021-11-14T19:43:16.953Z</time>
      </trkpt>
      <trkpt lat="47.522934" lon="7.744789">
        <ele>332.309138</ele>
        <time>2021-11-14T19:43:18.501Z</time>
      </trkpt>
      <trkpt lat="47.523159" lon="7.744998">
        <ele>330.741243</ele>
        <time>2021-11-14T19:43:22.173Z</time>
      </trkpt>
      <trkpt lat="47.523167" lon="7.745068">
        <ele>330.458229</ele>
        <time>2021-11-14T19:43:22.772Z</time>
      </trkpt>
      <trkpt lat="47.523193" lon="7.745320">
        <ele>329.442008</ele>
        <time>2021-11-14T19:43:25.043Z</time>
      </trkpt>
      <trkpt lat="47.523198" lon="7.745377">
        <ele>329.212876</ele>
        <time>2021-11-14T19:43:25.596Z</time>
      </trkpt>
      <trkpt lat="47.523204" lon="7.745491">
        <ele>328.757053</ele>
        <time>2021-11-14T19:43:26.685Z</time>
      </trkpt>
      <trkpt lat="47.523239" lon="7.745774">
        <ele>327.610149</ele>
        <time>2021-11-14T19:43:29.236Z</time>
      </trkpt>
      <trkpt lat="47.523291" lon="7.746042">
        <ele>326.498579</ele>
        <time>2021-11-14T19:43:31.792Z</time>
      </trkpt>
      <trkpt lat="47.523619" lon="7.747020">
        <ele>323.565928</ele>
        <time>2021-11-14T19:43:41.555Z</time>
      </trkpt>
      <trkpt lat="47.523642" lon="7.747090">
        <ele>323.473735</ele>
        <time>2021-11-14T19:43:42.414Z</time>
      </trkpt>
      <trkpt lat="47.523682" lon="7.747182">
        <ele>323.344149</ele>
        <time>2021-11-14T19:43:43.469Z</time>
      </trkpt>
      <trkpt lat="47.523736" lon="7.747262">
        <ele>323.210190</ele>
        <time>2021-11-14T19:43:44.722Z</time>
      </trkpt>
      <trkpt lat="47.523866" lon="7.747399">
        <ele>322.930361</ele>
        <time>2021-11-14T19:43:47.170Z</time>
      </trkpt>
      <trkpt lat="47.524008" lon="7.747563">
        <ele>322.614542</ele>
        <time>2021-11-14T19:43:50.244Z</time>
      </trkpt>
      <trkpt lat="47.524137" lon="7.747681">
        <ele>322.348624</ele>
        <time>2021-11-14T19:43:52.778Z</time>
      </trkpt>
      <trkpt lat="47.524148" lon="7.747688">
        <ele>322.327627</ele>
        <time>2021-11-14T19:43:52.928Z</time>
      </trkpt>
      <trkpt lat="47.524248" lon="7.747742">
        <ele>322.140954</ele>
        <time>2021-11-14T19:43:54.830Z</time>
      </trkpt>
      <trkpt lat="47.524334" lon="7.747786">
        <ele>321.981381</ele>
        <time>2021-11-14T19:43:56.374Z</time>
      </trkpt>
      <trkpt lat="47.524410" lon="7.747828">
        <ele>321.839116</ele>
        <time>2021-11-14T19:43:57.981Z</time>
      </trkpt>
      <trkpt lat="47.524463" lon="7.747889">
        <ele>321.721394</ele>
        <time>2021-11-14T19:43:59.291Z</time>
      </trkpt>
      <trkpt lat="47.524570" lon="7.748090">
        <ele>321.418282</ele>
        <time>2021-11-14T19:44:02.777Z</time>
      </trkpt>
      <trkpt lat="47.524712" lon="7.748378">
        <ele>321.047097</ele>
        <time>2021-11-14T19:44:08.736Z</time>
      </trkpt>
      <trkpt lat="47.524786" lon="7.748513">
        <ele>321.504988</ele>
        <time>2021-11-14T19:44:11.202Z</time>
      </trkpt>
      <trkpt lat="47.525255" lon="7.749393">
        <ele>324.457163</ele>
        <time>2021-11-14T19:44:29.388Z</time>
      </trkpt>
      <trkpt lat="47.525385" lon="7.749630">
        <ele>325.261229</ele>
        <time>2021-11-14T19:44:36.195Z</time>
      </trkpt>
      <trkpt lat="47.525580" lon="7.749961">
        <ele>326.417963</ele>
        <time>2021-11-14T19:44:47.616Z</time>
      </trkpt>
      <trkpt lat="47.525813" lon="7.750584">
        <ele>328.463992</ele>
        <time>2021-11-14T19:45:07.560Z</time>
      </trkpt>
      <trkpt lat="47.525988" lon="7.751788">
        <ele>333.777593</ele>
        <time>2021-11-14T19:45:43.753Z</time>
      </trkpt>
      <trkpt lat="47.526070" lon="7.752392">
        <ele>336.435675</ele>
        <time>2021-11-14T19:45:59.646Z</time>
      </trkpt>
      <trkpt lat="47.526097" lon="7.752774">
        <ele>338.092802</ele>
        <time>2021-11-14T19:46:09.882Z</time>
      </trkpt>
      <trkpt lat="47.526034" lon="7.753359">
        <ele>340.265977</ele>
        <time>2021-11-14T19:46:25.035Z</time>
      </trkpt>
      <trkpt lat="47.525750" lon="7.754313">
        <ele>343.241375</ele>
        <time>2021-11-14T19:46:51.085Z</time>
      </trkpt>
      <trkpt lat="47.525697" lon="7.754492">
        <ele>343.799165</ele>
        <time>2021-11-14T19:46:55.783Z</time>
      </trkpt>
      <trkpt lat="47.525680" lon="7.754706">
        <ele>344.414101</ele>
        <time>2021-11-14T19:47:00.786Z</time>
      </trkpt>
      <trkpt lat="47.525656" lon="7.755020">
        <ele>345.315932</ele>
        <time>2021-11-14T19:47:07.275Z</time>
      </trkpt>
      <trkpt lat="47.525757" lon="7.755768">
        <ele>347.179073</ele>
        <time>2021-11-14T19:47:18.440Z</time>
      </trkpt>
      <trkpt lat="47.526120" lon="7.757265">
        <ele>347.899353</ele>
        <time>2021-11-14T19:47:36.830Z</time>
      </trkpt>
      <trkpt lat="47.526153" lon="7.757413">
        <ele>347.969932</ele>
        <time>2021-11-14T19:47:38.144Z</time>
      </trkpt>
      <trkpt lat="47.526178" lon="7.757679">
        <ele>348.091547</ele>
        <time>2021-11-14T19:47:40.568Z</time>
      </trkpt>
      <trkpt lat="47.526183" lon="7.758165">
        <ele>348.311651</ele>
        <time>2021-11-14T19:47:44.991Z</time>
      </trkpt>
      <trkpt lat="47.525838" lon="7.761399">
        <ele>351.156207</ele>
        <time>2021-11-14T19:48:27.753Z</time>
      </trkpt>
      <trkpt lat="47.525345" lon="7.763741">
        <ele>355.737954</ele>
        <time>2021-11-14T19:49:12.985Z</time>
      </trkpt>
      <trkpt lat="47.525032" lon="7.765894">
        <ele>360.885233</ele>
        <time>2021-11-14T19:49:56.591Z</time>
      </trkpt>
      <trkpt lat="47.524311" lon="7.768460">
        <ele>366.163713</ele>
        <time>2021-11-14T19:50:48.201Z</time>
      </trkpt>
      <trkpt lat="47.523940" lon="7.769974">
        <ele>365.780443</ele>
        <time>2021-11-14T19:51:04.345Z</time>
      </trkpt>
      <trkpt lat="47.523901" lon="7.770269">
        <ele>365.708910</ele>
        <time>2021-11-14T19:51:06.722Z</time>
      </trkpt>
      <trkpt lat="47.523815" lon="7.771108">
        <ele>365.392687</ele>
        <time>2021-11-14T19:51:12.910Z</time>
      </trkpt>
      <trkpt lat="47.523740" lon="7.771774">
        <ele>364.582455</ele>
        <time>2021-11-14T19:51:17.876Z</time>
      </trkpt>
      <trkpt lat="47.523683" lon="7.772233">
        <ele>364.022422</ele>
        <time>2021-11-14T19:51:21.167Z</time>
      </trkpt>
      <trkpt lat="47.523647" lon="7.772437">
        <ele>363.769402</ele>
        <time>2021-11-14T19:51:22.772Z</time>
      </trkpt>
      <trkpt lat="47.523369" lon="7.773349">
        <ele>362.568670</ele>
        <time>2021-11-14T19:51:30.273Z</time>
      </trkpt>
      <trkpt lat="47.523161" lon="7.774016">
        <ele>362.605741</ele>
        <time>2021-11-14T19:51:36.829Z</time>
      </trkpt>
      <trkpt lat="47.523142" lon="7.774075">
        <ele>362.637831</ele>
        <time>2021-11-14T19:51:37.390Z</time>
      </trkpt>
      <trkpt lat="47.523123" lon="7.774135">
        <ele>362.670365</ele>
        <time>2021-11-14T19:51:37.962Z</time>
      </trkpt>
      <trkpt lat="47.522943" lon="7.774683">
        <ele>362.969535</ele>
        <time>2021-11-14T19:51:45.584Z</time>
      </trkpt>
      <trkpt lat="47.522278" lon="7.777671">
        <ele>365.891382</ele>
        <time>2021-11-14T19:52:30.343Z</time>
      </trkpt>
      <trkpt lat="47.522048" lon="7.778683">
        <ele>367.333570</ele>
        <time>2021-11-14T19:52:48.066Z</time>
      </trkpt>
      <trkpt lat="47.521630" lon="7.780058">
        <ele>370.003438</ele>
        <time>2021-11-14T19:53:14.495Z</time>
      </trkpt>
      <trkpt lat="47.521125" lon="7.781677">
        <ele>372.998883</ele>
        <time>2021-11-14T19:53:44.647Z</time>
      </trkpt>
      <trkpt lat="47.521119" lon="7.781693">
        <ele>373.027573</ele>
        <time>2021-11-14T19:53:44.920Z</time>
      </trkpt>
      <trkpt lat="47.520998" lon="7.782108">
        <ele>373.736195</ele>
        <time>2021-11-14T19:53:52.024Z</time>
      </trkpt>
      <trkpt lat="47.520818" lon="7.782702">
        <ele>374.756836</ele>
        <time>2021-11-14T19:54:01.797Z</time>
      </trkpt>
      <trkpt lat="47.520762" lon="7.782884">
        <ele>375.070370</ele>
        <time>2021-11-14T19:54:05.175Z</time>
      </trkpt>
      <trkpt lat="47.520739" lon="7.782957">
        <ele>375.196651</ele>
        <time>2021-11-14T19:54:06.508Z</time>
      </trkpt>
      <trkpt lat="47.520719" lon="7.783093">
        <ele>375.414850</ele>
        <time>2021-11-14T19:54:08.566Z</time>
      </trkpt>
      <trkpt lat="47.520716" lon="7.783202">
        <ele>375.585867</ele>
        <time>2021-11-14T19:54:10.257Z</time>
      </trkpt>
      <trkpt lat="47.520737" lon="7.783291">
        <ele>375.733660</ele>
        <time>2021-11-14T19:54:11.873Z</time>
      </trkpt>
      <trkpt lat="47.520781" lon="7.783406">
        <ele>375.950886</ele>
        <time>2021-11-14T19:54:14.393Z</time>
      </trkpt>
      <trkpt lat="47.520820" lon="7.783467">
        <ele>376.150805</ele>
        <time>2021-11-14T19:54:15.774Z</time>
      </trkpt>
      <trkpt lat="47.520922" lon="7.783585">
        <ele>376.606969</ele>
        <time>2021-11-14T19:54:18.694Z</time>
      </trkpt>
      <trkpt lat="47.520988" lon="7.783660">
        <ele>376.900163</ele>
        <time>2021-11-14T19:54:20.795Z</time>
      </trkpt>
      <trkpt lat="47.521073" lon="7.783756">
        <ele>377.276907</ele>
        <time>2021-11-14T19:54:24.030Z</time>
      </trkpt>
      <trkpt lat="47.521184" lon="7.784076">
        <ele>378.133083</ele>
        <time>2021-11-14T19:54:30.201Z</time>
      </trkpt>
      <trkpt lat="47.521251" lon="7.784408">
        <ele>378.957753</ele>
        <time>2021-11-14T19:54:36.784Z</time>
      </trkpt>
      <trkpt lat="47.521340" lon="7.785091">
        <ele>380.613241</ele>
        <time>2021-11-14T19:54:50.400Z</time>
      </trkpt>
      <trkpt lat="47.521359" lon="7.785235">
        <ele>380.962433</ele>
        <time>2021-11-14T19:54:53.556Z</time>
      </trkpt>
      <trkpt lat="47.521411" lon="7.785651">
        <ele>381.969307</ele>
        <time>2021-11-14T19:55:02.455Z</time>
      </trkpt>
      <trkpt lat="47.521481" lon="7.786063">
        <ele>383.353288</ele>
        <time>2021-11-14T19:55:12.871Z</time>
      </trkpt>
      <trkpt lat="47.521561" lon="7.786302">
        <ele>384.316873</ele>
        <time>2021-11-14T19:55:19.129Z</time>
      </trkpt>
      <trkpt lat="47.521925" lon="7.787242">
        <ele>388.231092</ele>
        <time>2021-11-14T19:55:46.024Z</time>
      </trkpt>
      <trkpt lat="47.521639" lon="7.787535">
        <ele>390.091381</ele>
        <time>2021-11-14T19:55:58.748Z</time>
      </trkpt>
      <trkpt lat="47.521453" lon="7.787715">
        <ele>391.279947</ele>
        <time>2021-11-14T19:56:07.491Z</time>
      </trkpt>
      <trkpt lat="47.521099" lon="7.788048">
        <ele>393.899469</ele>
        <time>2021-11-14T19:56:22.967Z</time>
      </trkpt>
      <trkpt lat="47.520866" lon="7.788410">
        <ele>396.119837</ele>
        <time>2021-11-14T19:56:36.121Z</time>
      </trkpt>
      <trkpt lat="47.520775" lon="7.788985">
        <ele>398.742009</ele>
        <time>2021-11-14T19:56:52.090Z</time>
      </trkpt>
      <trkpt lat="47.520746" lon="7.789717">
        <ele>401.997685</ele>
        <time>2021-11-14T19:57:12.978Z</time>
      </trkpt>
      <trkpt lat="47.520783" lon="7.790185">
        <ele>404.256009</ele>
        <time>2021-11-14T19:57:27.038Z</time>
      </trkpt>
      <trkpt lat="47.521043" lon="7.791054">
        <ele>410.308011</ele>
        <time>2021-11-14T19:57:58.359Z</time>
      </trkpt>
      <trkpt lat="47.521374" lon="7.793903">
        <ele>428.589972</ele>
        <time>2021-11-14T19:59:48.170Z</time>
      </trkpt>
      <trkpt lat="47.521460" lon="7.795630">
        <ele>437.728782</ele>
        <time>2021-11-14T20:00:47.290Z</time>
      </trkpt>
      <trkpt lat="47.521488" lon="7.796167">
        <ele>438.324712</ele>
        <time>2021-11-14T20:01:00.126Z</time>
      </trkpt>
      <trkpt lat="47.521531" lon="7.796461">
        <ele>438.657548</ele>
        <time>2021-11-14T20:01:05.973Z</time>
      </trkpt>
      <trkpt lat="47.521832" lon="7.798025">
        <ele>439.538598</ele>
        <time>2021-11-14T20:01:19.488Z</time>
      </trkpt>
      <trkpt lat="47.521886" lon="7.798500">
        <ele>436.787626</ele>
        <time>2021-11-14T20:01:22.456Z</time>
      </trkpt>
      <trkpt lat="47.522709" lon="7.800072">
        <ele>425.427762</ele>
        <time>2021-11-14T20:01:34.030Z</time>
      </trkpt>
      <trkpt lat="47.522938" lon="7.800180">
        <ele>422.668490</ele>
        <time>2021-11-14T20:01:36.072Z</time>
      </trkpt>
      <trkpt lat="47.524111" lon="7.800323">
        <ele>408.462852</ele>
        <time>2021-11-14T20:01:45.975Z</time>
      </trkpt>
      <trkpt lat="47.524301" lon="7.800420">
        <ele>406.037159</ele>
        <time>2021-11-14T20:01:47.682Z</time>
      </trkpt>
      <trkpt lat="47.524601" lon="7.800707">
        <ele>401.664072</ele>
        <time>2021-11-14T20:01:50.707Z</time>
      </trkpt>
      <trkpt lat="47.524909" lon="7.800963">
        <ele>397.241132</ele>
        <time>2021-11-14T20:01:53.711Z</time>
      </trkpt>
      <trkpt lat="47.525009" lon="7.801022">
        <ele>395.893145</ele>
        <time>2021-11-14T20:01:54.609Z</time>
      </trkpt>
      <trkpt lat="47.525322" lon="7.801334">
        <ele>391.168350</ele>
        <time>2021-11-14T20:01:57.773Z</time>
      </trkpt>
      <trkpt lat="47.525644" lon="7.801949">
        <ele>384.587766</ele>
        <time>2021-11-14T20:02:02.200Z</time>
      </trkpt>
      <trkpt lat="47.526184" lon="7.802422">
        <ele>376.907548</ele>
        <time>2021-11-14T20:02:07.478Z</time>
      </trkpt>
      <trkpt lat="47.526229" lon="7.802508">
        <ele>376.026803</ele>
        <time>2021-11-14T20:02:08.096Z</time>
      </trkpt>
      <trkpt lat="47.526305" lon="7.802747">
        <ele>373.888255</ele>
        <time>2021-11-14T20:02:09.610Z</time>
      </trkpt>
      <trkpt lat="47.526435" lon="7.803139">
        <ele>370.352896</ele>
        <time>2021-11-14T20:02:12.124Z</time>
      </trkpt>
      <trkpt lat="47.526766" lon="7.803728">
        <ele>364.149639</ele>
        <time>2021-11-14T20:02:16.533Z</time>
      </trkpt>
      <trkpt lat="47.527195" lon="7.804775">
        <ele>354.951544</ele>
        <time>2021-11-14T20:02:23.479Z</time>
      </trkpt>
      <trkpt lat="47.527223" lon="7.804962">
        <ele>353.620120</ele>
        <time>2021-11-14T20:02:24.560Z</time>
      </trkpt>
      <trkpt lat="47.527187" lon="7.805916">
        <ele>346.978453</ele>
        <time>2021-11-14T20:02:30.148Z</time>
      </trkpt>
      <trkpt lat="47.527192" lon="7.805999">
        <ele>346.399222</ele>
        <time>2021-11-14T20:02:30.610Z</time>
      </trkpt>
      <trkpt lat="47.527215" lon="7.806158">
        <ele>345.268926</ele>
        <time>2021-11-14T20:02:31.579Z</time>
      </trkpt>
      <trkpt lat="47.527250" lon="7.806264">
        <ele>344.448738</ele>
        <time>2021-11-14T20:02:32.310Z</time>
      </trkpt>
      <trkpt lat="47.527311" lon="7.806422">
        <ele>343.183626</ele>
        <time>2021-11-14T20:02:33.379Z</time>
      </trkpt>
      <trkpt lat="47.527350" lon="7.806547">
        <ele>342.226476</ele>
        <time>2021-11-14T20:02:34.159Z</time>
      </trkpt>
      <trkpt lat="47.527401" lon="7.806802">
        <ele>340.594982</ele>
        <time>2021-11-14T20:02:35.824Z</time>
      </trkpt>
      <trkpt lat="47.527414" lon="7.806940">
        <ele>340.142522</ele>
        <time>2021-11-14T20:02:36.637Z</time>
      </trkpt>
      <trkpt lat="47.527456" lon="7.807830">
        <ele>337.245425</ele>
        <time>2021-11-14T20:02:42.103Z</time>
      </trkpt>
      <trkpt lat="47.527503" lon="7.808275">
        <ele>335.782833</ele>
        <time>2021-11-14T20:02:44.890Z</time>
      </trkpt>
      <trkpt lat="47.527634" lon="7.808204">
        <ele>335.111986</ele>
        <time>2021-11-14T20:02:46.970Z</time>
      </trkpt>
      <trkpt lat="47.527822" lon="7.807933">
        <ele>333.850323</ele>
        <time>2021-11-14T20:02:50.967Z</time>
      </trkpt>
      <trkpt lat="47.528101" lon="7.807533">
        <ele>332.087429</ele>
        <time>2021-11-14T20:02:57.287Z</time>
      </trkpt>
      <trkpt lat="47.528026" lon="7.807425">
        <ele>331.928737</ele>
        <time>2021-11-14T20:03:08.719Z</time>
      </trkpt>
      <trkpt lat="47.528032" lon="7.807417">
        <ele>331.916489</ele>
        <time>2021-11-14T20:03:09.651Z</time>
      </trkpt>
      <trkpt lat="47.528026" lon="7.807425">
        <ele>331.904242</ele>
        <time>2021-11-14T20:03:10.527Z</time>
      </trkpt>
      <trkpt lat="47.528101" lon="7.807533">
        <ele>331.745550</ele>
        <time>2021-11-14T20:03:21.571Z</time>
      </trkpt>
      <trkpt lat="47.528363" lon="7.807158">
        <ele>331.192812</ele>
        <time>2021-11-14T20:03:28.016Z</time>
      </trkpt>
      <trkpt lat="47.528486" lon="7.806982">
        <ele>330.933356</ele>
        <time>2021-11-14T20:03:31.227Z</time>
      </trkpt>
      <trkpt lat="47.528826" lon="7.806494">
        <ele>330.215098</ele>
        <time>2021-11-14T20:03:39.350Z</time>
      </trkpt>
      <trkpt lat="47.529482" lon="7.805461">
        <ele>328.021750</ele>
        <time>2021-11-14T20:03:54.291Z</time>
      </trkpt>
      <trkpt lat="47.529649" lon="7.805203">
        <ele>327.234892</ele>
        <time>2021-11-14T20:03:57.761Z</time>
      </trkpt>
      <trkpt lat="47.529834" lon="7.804969">
        <ele>326.441626</ele>
        <time>2021-11-14T20:04:01.154Z</time>
      </trkpt>
      <trkpt lat="47.529928" lon="7.804900">
        <ele>326.099547</ele>
        <time>2021-11-14T20:04:02.655Z</time>
      </trkpt>
      <trkpt lat="47.530103" lon="7.804771">
        <ele>325.462168</ele>
        <time>2021-11-14T20:04:05.336Z</time>
      </trkpt>
      <trkpt lat="47.530366" lon="7.804683">
        <ele>324.583013</ele>
        <time>2021-11-14T20:04:09.194Z</time>
      </trkpt>
      <trkpt lat="47.530664" lon="7.804655">
        <ele>323.609395</ele>
        <time>2021-11-14T20:04:13.366Z</time>
      </trkpt>
      <trkpt lat="47.531122" lon="7.804821">
        <ele>323.020656</ele>
        <time>2021-11-14T20:04:20.316Z</time>
      </trkpt>
      <trkpt lat="47.531148" lon="7.804834">
        <ele>322.988909</ele>
        <time>2021-11-14T20:04:20.668Z</time>
      </trkpt>
      <trkpt lat="47.531459" lon="7.805000">
        <ele>322.606465</ele>
        <time>2021-11-14T20:04:26.440Z</time>
      </trkpt>
      <trkpt lat="47.531549" lon="7.805047">
        <ele>322.496062</ele>
        <time>2021-11-14T20:04:27.930Z</time>
      </trkpt>
      <trkpt lat="47.531684" lon="7.805128">
        <ele>322.327553</ele>
        <time>2021-11-14T20:04:30.987Z</time>
      </trkpt>
      <trkpt lat="47.531901" lon="7.805311">
        <ele>322.038665</ele>
        <time>2021-11-14T20:04:35.456Z</time>
      </trkpt>
      <trkpt lat="47.532130" lon="7.805651">
        <ele>321.663542</ele>
        <time>2021-11-14T20:04:42.033Z</time>
      </trkpt>
      <trkpt lat="47.532253" lon="7.805913">
        <ele>321.489432</ele>
        <time>2021-11-14T20:04:47.507Z</time>
      </trkpt>
      <trkpt lat="47.532546" lon="7.806703">
        <ele>321.905131</ele>
        <time>2021-11-14T20:05:02.075Z</time>
      </trkpt>
      <trkpt lat="47.533091" lon="7.806305">
        <ele>322.320203</ele>
        <time>2021-11-14T20:05:16.863Z</time>
      </trkpt>
      <trkpt lat="47.533723" lon="7.806018">
        <ele>322.688073</ele>
        <time>2021-11-14T20:05:31.535Z</time>
      </trkpt>
      <trkpt lat="47.534648" lon="7.805785">
        <ele>322.671733</ele>
        <time>2021-11-14T20:05:49.452Z</time>
      </trkpt>
      <trkpt lat="47.534894" lon="7.805725">
        <ele>322.667391</ele>
        <time>2021-11-14T20:05:54.194Z</time>
      </trkpt>
      <trkpt lat="47.535092" lon="7.805671">
        <ele>322.663885</ele>
        <time>2021-11-14T20:05:58.558Z</time>
      </trkpt>
      <trkpt lat="47.535828" lon="7.805308">
        <ele>322.787130</ele>
        <time>2021-11-14T20:06:14.803Z</time>
      </trkpt>
      <trkpt lat="47.536875" lon="7.804558">
        <ele>323.094500</ele>
        <time>2021-11-14T20:06:40.735Z</time>
      </trkpt>
      <trkpt lat="47.537755" lon="7.803639">
        <ele>322.673298</ele>
        <time>2021-11-14T20:07:01.231Z</time>
      </trkpt>
      <trkpt lat="47.538164" lon="7.803170">
        <ele>322.416010</ele>
        <time>2021-11-14T20:07:10.774Z</time>
      </trkpt>
      <trkpt lat="47.538256" lon="7.803059">
        <ele>322.356986</ele>
        <time>2021-11-14T20:07:12.664Z</time>
      </trkpt>
      <trkpt lat="47.539874" lon="7.800859">
        <ele>320.600065</ele>
        <time>2021-11-14T20:07:50.556Z</time>
      </trkpt>
      <trkpt lat="47.540006" lon="7.800680">
        <ele>320.679514</ele>
        <time>2021-11-14T20:07:54.084Z</time>
      </trkpt>
      <trkpt lat="47.540192" lon="7.800458">
        <ele>320.785559</ele>
        <time>2021-11-14T20:07:58.957Z</time>
      </trkpt>
      <trkpt lat="47.540192" lon="7.800458">
        <ele>320.785559</ele>
        <time>2021-11-14T20:07:58.965Z</time>
      </trkpt>
      <trkpt lat="47.540260" lon="7.800353">
        <ele>320.829166</ele>
        <time>2021-11-14T20:08:01.703Z</time>
      </trkpt>
      <trkpt lat="47.540644" lon="7.800163">
        <ele>321.008903</ele>
        <time>2021-11-14T20:08:11.006Z</time>
      </trkpt>
      <trkpt lat="47.540897" lon="7.800171">
        <ele>321.121249</ele>
        <time>2021-11-14T20:08:16.873Z</time>
      </trkpt>
      <trkpt lat="47.541705" lon="7.800028">
        <ele>321.186562</ele>
        <time>2021-11-14T20:08:37.585Z</time>
      </trkpt>
      <trkpt lat="47.542307" lon="7.799830">
        <ele>320.939653</ele>
        <time>2021-11-14T20:08:52.559Z</time>
      </trkpt>
      <trkpt lat="47.542998" lon="7.799859">
        <ele>320.662867</ele>
        <time>2021-11-14T20:09:04.788Z</time>
      </trkpt>
      <trkpt lat="47.544071" lon="7.799629">
        <ele>315.688965</ele>
        <time>2021-11-14T20:09:19.710Z</time>
      </trkpt>
      <trkpt lat="47.544184" lon="7.799620">
        <ele>315.099427</ele>
        <time>2021-11-14T20:09:21.099Z</time>
      </trkpt>
      <trkpt lat="47.544345" lon="7.799570">
        <ele>314.242444</ele>
        <time>2021-11-14T20:09:23.293Z</time>
      </trkpt>
      <trkpt lat="47.544568" lon="7.799371">
        <ele>312.886205</ele>
        <time>2021-11-14T20:09:26.651Z</time>
      </trkpt>
      <trkpt lat="47.544749" lon="7.799388">
        <ele>311.941369</ele>
        <time>2021-11-14T20:09:29.093Z</time>
      </trkpt>
      <trkpt lat="47.544827" lon="7.799356">
        <ele>311.519724</ele>
        <time>2021-11-14T20:09:30.075Z</time>
      </trkpt>
      <trkpt lat="47.545096" lon="7.799250">
        <ele>310.141261</ele>
        <time>2021-11-14T20:09:33.794Z</time>
      </trkpt>
      <trkpt lat="47.545182" lon="7.799205">
        <ele>309.695286</ele>
        <time>2021-11-14T20:09:34.891Z</time>
      </trkpt>
      <trkpt lat="47.545396" lon="7.798977">
        <ele>308.406388</ele>
        <time>2021-11-14T20:09:38.432Z</time>
      </trkpt>
      <trkpt lat="47.545449" lon="7.798705">
        <ele>307.471973</ele>
        <time>2021-11-14T20:09:40.833Z</time>
      </trkpt>
      <trkpt lat="47.545511" lon="7.798680">
        <ele>307.157782</ele>
        <time>2021-11-14T20:09:41.665Z</time>
      </trkpt>
      <trkpt lat="47.545581" lon="7.798713">
        <ele>306.798590</ele>
        <time>2021-11-14T20:09:42.702Z</time>
      </trkpt>
      <trkpt lat="47.545731" lon="7.798810">
        <ele>305.998304</ele>
        <time>2021-11-14T20:09:44.909Z</time>
      </trkpt>
      <trkpt lat="47.545807" lon="7.798846">
        <ele>305.608152</ele>
        <time>2021-11-14T20:09:46.017Z</time>
      </trkpt>
      <trkpt lat="47.546418" lon="7.798980">
        <ele>302.587980</ele>
        <time>2021-11-14T20:09:54.864Z</time>
      </trkpt>
      <trkpt lat="47.547540" lon="7.799538">
        <ele>301.083402</ele>
        <time>2021-11-14T20:10:14.588Z</time>
      </trkpt>
      <trkpt lat="47.547912" lon="7.799646">
        <ele>300.637090</ele>
        <time>2021-11-14T20:10:21.969Z</time>
      </trkpt>
      <trkpt lat="47.548459" lon="7.799691">
        <ele>300.300223</ele>
        <time>2021-11-14T20:10:32.907Z</time>
      </trkpt>
      <trkpt lat="47.548535" lon="7.799720">
        <ele>300.293619</ele>
        <time>2021-11-14T20:10:34.426Z</time>
      </trkpt>
      <trkpt lat="47.548514" lon="7.799795">
        <ele>300.289008</ele>
        <time>2021-11-14T20:10:35.490Z</time>
      </trkpt>
      <trkpt lat="47.548519" lon="7.799896">
        <ele>300.283256</ele>
        <time>2021-11-14T20:10:36.845Z</time>
      </trkpt>
      <trkpt lat="47.548545" lon="7.800404">
        <ele>300.254320</ele>
        <time>2021-11-14T20:10:43.636Z</time>
      </trkpt>
      <trkpt lat="47.548560" lon="7.800672">
        <ele>300.239046</ele>
        <time>2021-11-14T20:10:47.334Z</time>
      </trkpt>
      <trkpt lat="47.548569" lon="7.800838">
        <ele>300.229587</ele>
        <time>2021-11-14T20:10:49.579Z</time>
      </trkpt>
      <trkpt lat="47.548576" lon="7.800968">
        <ele>300.222180</ele>
        <time>2021-11-14T20:10:51.348Z</time>
      </trkpt>
      <trkpt lat="47.548596" lon="7.801213">
        <ele>300.208163</ele>
        <time>2021-11-14T20:10:54.734Z</time>
      </trkpt>
      <trkpt lat="47.548607" lon="7.801690">
        <ele>300.181055</ele>
        <time>2021-11-14T20:11:01.231Z</time>
      </trkpt>
      <trkpt lat="47.548626" lon="7.802129">
        <ele>300.125538</ele>
        <time>2021-11-14T20:11:07.146Z</time>
      </trkpt>
      <trkpt lat="47.548795" lon="7.802155">
        <ele>300.084815</ele>
        <time>2021-11-14T20:11:10.539Z</time>
      </trkpt>
      <trkpt lat="47.548877" lon="7.802168">
        <ele>300.065049</ele>
        <time>2021-11-14T20:11:12.140Z</time>
      </trkpt>
      <trkpt lat="47.549027" lon="7.802184">
        <ele>300.029005</ele>
        <time>2021-11-14T20:11:15.153Z</time>
      </trkpt>
      <trkpt lat="47.549410" lon="7.802226">
        <ele>299.936958</ele>
        <time>2021-11-14T20:11:22.563Z</time>
      </trkpt>
      <trkpt lat="47.549481" lon="7.802234">
        <ele>299.919891</ele>
        <time>2021-11-14T20:11:23.905Z</time>
      </trkpt>
      <trkpt lat="47.549879" lon="7.802247">
        <ele>299.824477</ele>
        <time>2021-11-14T20:11:31.371Z</time>
      </trkpt>
      <trkpt lat="47.550146" lon="7.802262">
        <ele>299.760437</ele>
        <time>2021-11-14T20:11:36.442Z</time>
      </trkpt>
      <trkpt lat="47.550134" lon="7.803051">
        <ele>299.617728</ele>
        <time>2021-11-14T20:11:46.661Z</time>
      </trkpt>
      <trkpt lat="47.550196" lon="7.803120">
        <ele>299.596572</ele>
        <time>2021-11-14T20:11:48.120Z</time>
      </trkpt>
      <trkpt lat="47.550981" lon="7.803132">
        <ele>299.382386</ele>
        <time>2021-11-14T20:12:02.767Z</time>
      </trkpt>
      <trkpt lat="47.551163" lon="7.803129">
        <ele>299.332728</ele>
        <time>2021-11-14T20:12:06.170Z</time>
      </trkpt>
      <trkpt lat="47.551598" lon="7.803160">
        <ele>299.341923</ele>
        <time>2021-11-14T20:12:14.763Z</time>
      </trkpt>
      <trkpt lat="47.551666" lon="7.803144">
        <ele>299.388381</ele>
        <time>2021-11-14T20:12:19.507Z</time>
      </trkpt>
      <trkpt lat="47.551732" lon="7.803125">
        <ele>299.433748</ele>
        <time>2021-11-14T20:12:24.174Z</time>
      </trkpt>
      <trkpt lat="47.551744" lon="7.803277">
        <ele>299.503442</ele>
        <time>2021-11-14T20:12:25.868Z</time>
      </trkpt>
      <trkpt lat="47.551751" lon="7.803369">
        <ele>299.545604</ele>
        <time>2021-11-14T20:12:26.942Z</time>
      </trkpt>
      <trkpt lat="47.551692" lon="7.803510">
        <ele>299.621156</ele>
        <time>2021-11-14T20:12:29.536Z</time>
      </trkpt>
      <trkpt lat="47.551741" lon="7.804294">
        <ele>299.979723</ele>
        <time>2021-11-14T20:12:42.554Z</time>
      </trkpt>
      <trkpt lat="47.551744" lon="7.804473">
        <ele>300.061266</ele>
        <time>2021-11-14T20:12:45.073Z</time>
      </trkpt>
      <trkpt lat="47.551731" lon="7.804667">
        <ele>300.150050</ele>
        <time>2021-11-14T20:12:49.053Z</time>
      </trkpt>
      <trkpt lat="47.551709" lon="7.805000">
        <ele>300.302425</ele>
        <time>2021-11-14T20:12:53.545Z</time>
      </trkpt>
      <trkpt lat="47.551681" lon="7.805477">
        <ele>300.487087</ele>
        <time>2021-11-14T20:13:01.281Z</time>
      </trkpt>
      <trkpt lat="47.551671" lon="7.806117">
        <ele>300.605018</ele>
        <time>2021-11-14T20:13:11.370Z</time>
      </trkpt>
      <trkpt lat="47.551651" lon="7.806246">
        <ele>300.629401</ele>
        <time>2021-11-14T20:13:14.273Z</time>
      </trkpt>
      <trkpt lat="47.551895" lon="7.806278">
        <ele>300.696261</ele>
        <time>2021-11-14T20:13:17.799Z</time>
      </trkpt>
      <trkpt lat="47.552015" lon="7.806307">
        <ele>300.729447</ele>
        <time>2021-11-14T20:13:20.669Z</time>
      </trkpt>
      <trkpt lat="47.552068" lon="7.806445">
        <ele>300.758697</ele>
        <time>2021-11-14T20:13:22.126Z</time>
      </trkpt>
      <trkpt lat="47.552398" lon="7.808880">
        <ele>300.376233</ele>
        <time>2021-11-14T20:13:44.269Z</time>
      </trkpt>
      <trkpt lat="47.552566" lon="7.810386">
        <ele>299.742088</ele>
        <time>2021-11-14T20:13:57.280Z</time>
      </trkpt>
      <trkpt lat="47.552711" lon="7.812955">
        <ele>298.599092</ele>
        <time>2021-11-14T20:14:19.888Z</time>
      </trkpt>
      <trkpt lat="47.552844" lon="7.816432">
        <ele>297.443471</ele>
        <time>2021-11-14T20:14:50.245Z</time>
      </trkpt>
      <trkpt lat="47.552926" lon="7.818742">
        <ele>297.535573</ele>
        <time>2021-11-14T20:15:14.203Z</time>
      </trkpt>
      <trkpt lat="47.552948" lon="7.819358">
        <ele>297.778069</ele>
        <time>2021-11-14T20:15:21.445Z</time>
      </trkpt>
      <trkpt lat="47.552896" lon="7.820699">
        <ele>298.306100</ele>
        <time>2021-11-14T20:15:37.661Z</time>
      </trkpt>
      <trkpt lat="47.552567" lon="7.824508">
        <ele>300.224537</ele>
        <time>2021-11-14T20:16:24.289Z</time>
      </trkpt>
      <trkpt lat="47.552491" lon="7.827227">
        <ele>301.789471</ele>
        <time>2021-11-14T20:16:56.028Z</time>
      </trkpt>
      <trkpt lat="47.552515" lon="7.828094">
        <ele>302.424364</ele>
        <time>2021-11-14T20:17:07.738Z</time>
      </trkpt>
      <trkpt lat="47.552477" lon="7.828294">
        <ele>302.576387</ele>
        <time>2021-11-14T20:17:10.355Z</time>
      </trkpt>
      <trkpt lat="47.552421" lon="7.828481">
        <ele>302.726074</ele>
        <time>2021-11-14T20:17:13.287Z</time>
      </trkpt>
      <trkpt lat="47.552404" lon="7.828582">
        <ele>302.802236</ele>
        <time>2021-11-14T20:17:14.971Z</time>
      </trkpt>
      <trkpt lat="47.552416" lon="7.828822">
        <ele>303.085209</ele>
        <time>2021-11-14T20:17:18.205Z</time>
      </trkpt>
      <trkpt lat="47.552554" lon="7.829266">
        <ele>303.809267</ele>
        <time>2021-11-14T20:17:25.557Z</time>
      </trkpt>
      <trkpt lat="47.552645" lon="7.830686">
        <ele>305.922083</ele>
        <time>2021-11-14T20:17:48.863Z</time>
      </trkpt>
      <trkpt lat="47.552690" lon="7.832598">
        <ele>308.855499</ele>
        <time>2021-11-14T20:18:20.729Z</time>
      </trkpt>
      <trkpt lat="47.552616" lon="7.832891">
        <ele>309.342746</ele>
        <time>2021-11-14T20:18:25.480Z</time>
      </trkpt>
      <trkpt lat="47.552556" lon="7.832977">
        <ele>309.535391</ele>
        <time>2021-11-14T20:18:28.209Z</time>
      </trkpt>
      <trkpt lat="47.552508" lon="7.832936">
        <ele>309.663248</ele>
        <time>2021-11-14T20:18:29.577Z</time>
      </trkpt>
      <trkpt lat="47.552458" lon="7.832824">
        <ele>309.872394</ele>
        <time>2021-11-14T20:18:32.034Z</time>
      </trkpt>
      <trkpt lat="47.552414" lon="7.832574">
        <ele>310.274787</ele>
        <time>2021-11-14T20:18:37.342Z</time>
      </trkpt>
      <trkpt lat="47.552368" lon="7.832305">
        <ele>310.706990</ele>
        <time>2021-11-14T20:18:42.608Z</time>
      </trkpt>
      <trkpt lat="47.552251" lon="7.831814">
        <ele>311.312198</ele>
        <time>2021-11-14T20:18:52.730Z</time>
      </trkpt>
      <trkpt lat="47.552065" lon="7.831350">
        <ele>311.835834</ele>
        <time>2021-11-14T20:19:02.991Z</time>
      </trkpt>
      <trkpt lat="47.551640" lon="7.830558">
        <ele>312.817601</ele>
        <time>2021-11-14T20:19:21.448Z</time>
      </trkpt>
      <trkpt lat="47.550675" lon="7.828955">
        <ele>313.141384</ele>
        <time>2021-11-14T20:19:53.144Z</time>
      </trkpt>
      <trkpt lat="47.550522" lon="7.828744">
        <ele>313.048233</ele>
        <time>2021-11-14T20:19:57.046Z</time>
      </trkpt>
      <trkpt lat="47.550183" lon="7.828277">
        <ele>312.841945</ele>
        <time>2021-11-14T20:20:04.693Z</time>
      </trkpt>
      <trkpt lat="47.549105" lon="7.827067">
        <ele>310.977377</ele>
        <time>2021-11-14T20:20:26.038Z</time>
      </trkpt>
      <trkpt lat="47.548679" lon="7.826710">
        <ele>310.227076</ele>
        <time>2021-11-14T20:20:34.225Z</time>
      </trkpt>
      <trkpt lat="47.548237" lon="7.826410">
        <ele>310.176486</ele>
        <time>2021-11-14T20:20:42.965Z</time>
      </trkpt>
      <trkpt lat="47.547666" lon="7.826091">
        <ele>310.497406</ele>
        <time>2021-11-14T20:20:55.488Z</time>
      </trkpt>
      <trkpt lat="47.547233" lon="7.825872">
        <ele>310.738017</ele>
        <time>2021-11-14T20:21:07.054Z</time>
      </trkpt>
      <trkpt lat="47.546693" lon="7.825618">
        <ele>311.303629</ele>
        <time>2021-11-14T20:21:22.430Z</time>
      </trkpt>
      <trkpt lat="47.546589" lon="7.825597">
        <ele>311.521101</ele>
        <time>2021-11-14T20:21:25.360Z</time>
      </trkpt>
      <trkpt lat="47.546589" lon="7.825597">
        <ele>311.521101</ele>
        <time>2021-11-14T20:21:25.423Z</time>
      </trkpt>
      <trkpt lat="47.546589" lon="7.825597">
        <ele>311.521101</ele>
        <time>2021-11-14T20:21:25.430Z</time>
      </trkpt>
      <trkpt lat="47.546574" lon="7.826239">
        <ele>312.419496</ele>
        <time>2021-11-14T20:21:37.719Z</time>
      </trkpt>
      <trkpt lat="47.546592" lon="7.826850">
        <ele>313.274811</ele>
        <time>2021-11-14T20:21:49.518Z</time>
      </trkpt>
      <trkpt lat="47.546721" lon="7.828140">
        <ele>315.106298</ele>
        <time>2021-11-14T20:22:15.810Z</time>
      </trkpt>
      <trkpt lat="47.546823" lon="7.829336">
        <ele>316.822609</ele>
        <time>2021-11-14T20:22:39.110Z</time>
      </trkpt>
      <trkpt lat="47.546946" lon="7.830852">
        <ele>318.931521</ele>
        <time>2021-11-14T20:23:08.353Z</time>
      </trkpt>
      <trkpt lat="47.547020" lon="7.831965">
        <ele>320.328973</ele>
        <time>2021-11-14T20:23:29.190Z</time>
      </trkpt>
      <trkpt lat="47.547190" lon="7.835066">
        <ele>324.123029</ele>
        <time>2021-11-14T20:24:26.282Z</time>
      </trkpt>
      <trkpt lat="47.547240" lon="7.836221">
        <ele>325.542826</ele>
        <time>2021-11-14T20:24:47.756Z</time>
      </trkpt>
      <trkpt lat="47.547276" lon="7.837287">
        <ele>326.898023</ele>
        <time>2021-11-14T20:25:07.867Z</time>
      </trkpt>
      <trkpt lat="47.547300" lon="7.838688">
        <ele>328.578200</ele>
        <time>2021-11-14T20:25:34.613Z</time>
      </trkpt>
      <trkpt lat="47.547332" lon="7.840572">
        <ele>330.173954</ele>
        <time>2021-11-14T20:26:07.276Z</time>
      </trkpt>
      <trkpt lat="47.547339" lon="7.841072">
        <ele>330.597412</ele>
        <time>2021-11-14T20:26:15.051Z</time>
      </trkpt>
      <trkpt lat="47.547362" lon="7.841665">
        <ele>330.714476</ele>
        <time>2021-11-14T20:26:23.826Z</time>
      </trkpt>
      <trkpt lat="47.547448" lon="7.842262">
        <ele>330.801980</ele>
        <time>2021-11-14T20:26:32.212Z</time>
      </trkpt>
      <trkpt lat="47.547369" lon="7.842748">
        <ele>330.873638</ele>
        <time>2021-11-14T20:26:38.877Z</time>
      </trkpt>
      <trkpt lat="47.547354" lon="7.842839">
        <ele>330.887065</ele>
        <time>2021-11-14T20:26:40.076Z</time>
      </trkpt>
      <trkpt lat="47.547313" lon="7.843735">
        <ele>331.015798</ele>
        <time>2021-11-14T20:26:52.429Z</time>
      </trkpt>
      <trkpt lat="47.547295" lon="7.844722">
        <ele>331.743576</ele>
        <time>2021-11-14T20:27:07.170Z</time>
      </trkpt>
      <trkpt lat="47.547274" lon="7.845536">
        <ele>332.351000</ele>
        <time>2021-11-14T20:27:20.594Z</time>
      </trkpt>
      <trkpt lat="47.547124" lon="7.848795">
        <ele>336.235360</ele>
        <time>2021-11-14T20:28:22.747Z</time>
      </trkpt>
      <trkpt lat="47.547143" lon="7.849985">
        <ele>337.607672</ele>
        <time>2021-11-14T20:28:45.599Z</time>
      </trkpt>
      <trkpt lat="47.547141" lon="7.850355">
        <ele>338.012135</ele>
        <time>2021-11-14T20:28:52.699Z</time>
      </trkpt>
      <trkpt lat="47.546945" lon="7.851719">
        <ele>339.524415</ele>
        <time>2021-11-14T20:29:17.232Z</time>
      </trkpt>
      <trkpt lat="47.546582" lon="7.856413">
        <ele>340.662621</ele>
        <time>2021-11-14T20:30:25.543Z</time>
      </trkpt>
      <trkpt lat="47.546537" lon="7.857497">
        <ele>340.869157</ele>
        <time>2021-11-14T20:30:40.851Z</time>
      </trkpt>
      <trkpt lat="47.546487" lon="7.859119">
        <ele>341.212037</ele>
        <time>2021-11-14T20:31:04.299Z</time>
      </trkpt>
      <trkpt lat="47.546526" lon="7.861665">
        <ele>341.371546</ele>
        <time>2021-11-14T20:31:41.473Z</time>
      </trkpt>
      <trkpt lat="47.546592" lon="7.863006">
        <ele>340.684727</ele>
        <time>2021-11-14T20:31:57.940Z</time>
      </trkpt>
      <trkpt lat="47.546877" lon="7.864345">
        <ele>339.240630</ele>
        <time>2021-11-14T20:32:13.109Z</time>
      </trkpt>
      <trkpt lat="47.546885" lon="7.864500">
        <ele>339.080737</ele>
        <time>2021-11-14T20:32:14.789Z</time>
      </trkpt>
      <trkpt lat="47.546894" lon="7.864837">
        <ele>338.733841</ele>
        <time>2021-11-14T20:32:18.268Z</time>
      </trkpt>
      <trkpt lat="47.546889" lon="7.865225">
        <ele>338.266191</ele>
        <time>2021-11-14T20:32:22.389Z</time>
      </trkpt>
      <trkpt lat="47.546819" lon="7.865489">
        <ele>337.910152</ele>
        <time>2021-11-14T20:32:25.467Z</time>
      </trkpt>
      <trkpt lat="47.546510" lon="7.865766">
        <ele>337.238505</ele>
        <time>2021-11-14T20:32:31.161Z</time>
      </trkpt>
      <trkpt lat="47.546327" lon="7.865959">
        <ele>336.820760</ele>
        <time>2021-11-14T20:32:34.493Z</time>
      </trkpt>
      <trkpt lat="47.546096" lon="7.866147">
        <ele>336.330623</ele>
        <time>2021-11-14T20:32:38.559Z</time>
      </trkpt>
      <trkpt lat="47.545240" lon="7.866887">
        <ele>335.474394</ele>
        <time>2021-11-14T20:32:55.232Z</time>
      </trkpt>
      <trkpt lat="47.545160" lon="7.866985">
        <ele>335.515664</ele>
        <time>2021-11-14T20:32:57.188Z</time>
      </trkpt>
      <trkpt lat="47.545003" lon="7.867278">
        <ele>335.616057</ele>
        <time>2021-11-14T20:33:02.856Z</time>
      </trkpt>
      <trkpt lat="47.544568" lon="7.867693">
        <ele>335.821758</ele>
        <time>2021-11-14T20:33:15.647Z</time>
      </trkpt>
      <trkpt lat="47.544469" lon="7.867776">
        <ele>335.866983</ele>
        <time>2021-11-14T20:33:18.509Z</time>
      </trkpt>
      <trkpt lat="47.544410" lon="7.867825">
        <ele>335.893874</ele>
        <time>2021-11-14T20:33:20.598Z</time>
      </trkpt>
      <trkpt lat="47.544246" lon="7.867967">
        <ele>335.969395</ele>
        <time>2021-11-14T20:33:25.281Z</time>
      </trkpt>
      <trkpt lat="47.544214" lon="7.867988">
        <ele>335.983310</ele>
        <time>2021-11-14T20:33:26.129Z</time>
      </trkpt>
      <trkpt lat="47.543801" lon="7.868269">
        <ele>336.015664</ele>
        <time>2021-11-14T20:33:37.732Z</time>
      </trkpt>
      <trkpt lat="47.543657" lon="7.868359">
        <ele>336.015664</ele>
        <time>2021-11-14T20:33:42.081Z</time>
      </trkpt>
      <trkpt lat="47.543201" lon="7.868657">
        <ele>336.015664</ele>
        <time>2021-11-14T20:33:52.282Z</time>
      </trkpt>
      <trkpt lat="47.543105" lon="7.868711">
        <ele>336.015664</ele>
        <time>2021-11-14T20:33:54.847Z</time>
      </trkpt>
      <trkpt lat="47.543049" lon="7.868759">
        <ele>336.015664</ele>
        <time>2021-11-14T20:33:56.145Z</time>
      </trkpt>
      <trkpt lat="47.542722" lon="7.869201">
        <ele>336.015664</ele>
        <time>2021-11-14T20:34:05.515Z</time>
      </trkpt>
      <trkpt lat="47.542696" lon="7.869257">
        <ele>336.015664</ele>
        <time>2021-11-14T20:34:06.265Z</time>
      </trkpt>
      <trkpt lat="47.542657" lon="7.869354">
        <ele>336.015664</ele>
        <time>2021-11-14T20:34:07.668Z</time>
      </trkpt>
      <trkpt lat="47.542372" lon="7.869746">
        <ele>336.015664</ele>
        <time>2021-11-14T20:34:14.501Z</time>
      </trkpt>
      <trkpt lat="47.542329" lon="7.869820">
        <ele>336.015664</ele>
        <time>2021-11-14T20:34:15.713Z</time>
      </trkpt>
      <trkpt lat="47.542348" lon="7.869983">
        <ele>336.015664</ele>
        <time>2021-11-14T20:34:17.240Z</time>
      </trkpt>
      <trkpt lat="47.542317" lon="7.870012">
        <ele>336.015664</ele>
        <time>2021-11-14T20:34:17.836Z</time>
      </trkpt>
      <trkpt lat="47.542181" lon="7.870131">
        <ele>336.015664</ele>
        <time>2021-11-14T20:34:20.190Z</time>
      </trkpt>
      <trkpt lat="47.542118" lon="7.870134">
        <ele>336.015664</ele>
        <time>2021-11-14T20:34:21.223Z</time>
      </trkpt>
    </trkseg>
  </trk>
</gpx>